<?xml version="1.0" encoding="UTF-8" standalone="no" ?>
<gpx xmlns="http://www.topografix.com/GPX/1/1" xmlns:xsi="http://www.w3.org/2001/XMLSchema-instance" xsi:schemaLocation="http://www.topografix.com/GPX/1/1 http://www.topografix.com/GPX/1/1/gpx.xsd" version="1.1" creator="VisuGPX - https://www.visugpx.com">
  <metadata>
    <name>st auban parcours ludique</name>
    <desc><![CDATA[Pour ceux qui aime le all mountain ludique , vous allez vous régaler.]]></desc>
  </metadata>
  <trk>
    <name><![CDATA[Circuit 25 pre-definitif]]></name>
    <trkseg>
      <trkpt lat="44.06823" lon="5.99151">
        <ele>465</ele>
        <time>2013-05-14T11:52:59Z</time>
      </trkpt>
      <trkpt lat="44.06823" lon="5.99148">
        <ele>465</ele>
        <time>2013-05-14T11:53:30Z</time>
      </trkpt>
      <trkpt lat="44.06823" lon="5.9915">
        <ele>465</ele>
        <time>2013-05-14T11:54:07Z</time>
      </trkpt>
      <trkpt lat="44.06825" lon="5.99149">
        <ele>465</ele>
        <time>2013-05-14T11:55:02Z</time>
      </trkpt>
      <trkpt lat="44.06823" lon="5.9915">
        <ele>465</ele>
        <time>2013-05-14T11:55:50Z</time>
      </trkpt>
      <trkpt lat="44.06824" lon="5.99153">
        <ele>465</ele>
        <time>2013-05-14T11:56:44Z</time>
      </trkpt>
      <trkpt lat="44.06823" lon="5.99153">
        <ele>465</ele>
        <time>2013-05-14T11:57:19Z</time>
      </trkpt>
      <trkpt lat="44.06821" lon="5.99153">
        <ele>465</ele>
        <time>2013-05-14T11:58:17Z</time>
      </trkpt>
      <trkpt lat="44.06819" lon="5.9916">
        <ele>465</ele>
        <time>2013-05-14T11:58:58Z</time>
      </trkpt>
      <trkpt lat="44.06819" lon="5.99159">
        <ele>465</ele>
        <time>2013-05-14T11:59:03Z</time>
      </trkpt>
      <trkpt lat="44.06822" lon="5.99155">
        <ele>465</ele>
        <time>2013-05-14T11:59:54Z</time>
      </trkpt>
      <trkpt lat="44.06818" lon="5.99153">
        <ele>465</ele>
        <time>2013-05-14T12:00:42Z</time>
      </trkpt>
      <trkpt lat="44.06819" lon="5.99155">
        <ele>465</ele>
        <time>2013-05-14T12:01:39Z</time>
      </trkpt>
      <trkpt lat="44.06821" lon="5.99151">
        <ele>465</ele>
        <time>2013-05-14T12:02:39Z</time>
      </trkpt>
      <trkpt lat="44.06821" lon="5.99151">
        <ele>465</ele>
        <time>2013-05-14T12:02:52Z</time>
      </trkpt>
      <trkpt lat="44.06823" lon="5.9915">
        <ele>465</ele>
        <time>2013-05-14T12:03:14Z</time>
      </trkpt>
      <trkpt lat="44.06824" lon="5.99152">
        <ele>465</ele>
        <time>2013-05-14T12:03:43Z</time>
      </trkpt>
      <trkpt lat="44.06825" lon="5.99152">
        <ele>465</ele>
        <time>2013-05-14T12:03:48Z</time>
      </trkpt>
      <trkpt lat="44.06825" lon="5.9915">
        <ele>465</ele>
        <time>2013-05-14T12:04:33Z</time>
      </trkpt>
      <trkpt lat="44.06824" lon="5.99152">
        <ele>465</ele>
        <time>2013-05-14T12:05:21Z</time>
      </trkpt>
      <trkpt lat="44.06824" lon="5.99153">
        <ele>465</ele>
        <time>2013-05-14T12:05:58Z</time>
      </trkpt>
      <trkpt lat="44.06825" lon="5.99152">
        <ele>465</ele>
        <time>2013-05-14T12:06:37Z</time>
      </trkpt>
      <trkpt lat="44.06821" lon="5.99152">
        <ele>465</ele>
        <time>2013-05-14T12:07:12Z</time>
      </trkpt>
      <trkpt lat="44.06816" lon="5.99152">
        <ele>465</ele>
        <time>2013-05-14T12:07:38Z</time>
      </trkpt>
      <trkpt lat="44.06814" lon="5.99148">
        <ele>465</ele>
        <time>2013-05-14T12:08:02Z</time>
      </trkpt>
      <trkpt lat="44.06815" lon="5.99147">
        <ele>465</ele>
        <time>2013-05-14T12:08:11Z</time>
      </trkpt>
      <trkpt lat="44.06813" lon="5.99141">
        <ele>465</ele>
        <time>2013-05-14T12:08:26Z</time>
      </trkpt>
      <trkpt lat="44.06815" lon="5.99132">
        <ele>465</ele>
        <time>2013-05-14T12:08:31Z</time>
      </trkpt>
      <trkpt lat="44.0683" lon="5.99105">
        <ele>465</ele>
        <time>2013-05-14T12:08:42Z</time>
      </trkpt>
      <trkpt lat="44.06844" lon="5.99064">
        <ele>464.995911</ele>
        <time>2013-05-14T12:08:54Z</time>
      </trkpt>
      <trkpt lat="44.06819" lon="5.99016">
        <ele>464.390015</ele>
        <time>2013-05-14T12:09:06Z</time>
      </trkpt>
      <trkpt lat="44.06782" lon="5.99003">
        <ele>463.853455</ele>
        <time>2013-05-14T12:09:17Z</time>
      </trkpt>
      <trkpt lat="44.06744" lon="5.98981">
        <ele>462.763763</ele>
        <time>2013-05-14T12:09:30Z</time>
      </trkpt>
      <trkpt lat="44.06743" lon="5.98978">
        <ele>462.67749</ele>
        <time>2013-05-14T12:09:31Z</time>
      </trkpt>
      <trkpt lat="44.06742" lon="5.98976">
        <ele>462.588745</ele>
        <time>2013-05-14T12:09:32Z</time>
      </trkpt>
      <trkpt lat="44.0674" lon="5.98976">
        <ele>462.512512</ele>
        <time>2013-05-14T12:09:33Z</time>
      </trkpt>
      <trkpt lat="44.06738" lon="5.98975">
        <ele>462.417511</ele>
        <time>2013-05-14T12:09:34Z</time>
      </trkpt>
      <trkpt lat="44.06737" lon="5.98974">
        <ele>462.334991</ele>
        <time>2013-05-14T12:09:35Z</time>
      </trkpt>
      <trkpt lat="44.06735" lon="5.98973">
        <ele>462.248749</ele>
        <time>2013-05-14T12:09:36Z</time>
      </trkpt>
      <trkpt lat="44.06734" lon="5.98972">
        <ele>462.149994</ele>
        <time>2013-05-14T12:09:37Z</time>
      </trkpt>
      <trkpt lat="44.06732" lon="5.9897">
        <ele>462.065002</ele>
        <time>2013-05-14T12:09:38Z</time>
      </trkpt>
      <trkpt lat="44.06732" lon="5.98967">
        <ele>461.986237</ele>
        <time>2013-05-14T12:09:39Z</time>
      </trkpt>
      <trkpt lat="44.0673" lon="5.98965">
        <ele>461.893738</ele>
        <time>2013-05-14T12:09:40Z</time>
      </trkpt>
      <trkpt lat="44.06729" lon="5.98963">
        <ele>461.79126</ele>
        <time>2013-05-14T12:09:41Z</time>
      </trkpt>
      <trkpt lat="44.06727" lon="5.98962">
        <ele>461.682495</ele>
        <time>2013-05-14T12:09:42Z</time>
      </trkpt>
      <trkpt lat="44.06725" lon="5.98961">
        <ele>461.58374</ele>
        <time>2013-05-14T12:09:43Z</time>
      </trkpt>
      <trkpt lat="44.06723" lon="5.98959">
        <ele>461.481232</ele>
        <time>2013-05-14T12:09:44Z</time>
      </trkpt>
      <trkpt lat="44.06722" lon="5.98956">
        <ele>461.374908</ele>
        <time>2013-05-14T12:09:45Z</time>
      </trkpt>
      <trkpt lat="44.0669" lon="5.98936">
        <ele>459.266663</ele>
        <time>2013-05-14T12:09:56Z</time>
      </trkpt>
      <trkpt lat="44.06666" lon="5.98908">
        <ele>457.865234</ele>
        <time>2013-05-14T12:10:06Z</time>
      </trkpt>
      <trkpt lat="44.06649" lon="5.98905">
        <ele>457.18811</ele>
        <time>2013-05-14T12:10:11Z</time>
      </trkpt>
      <trkpt lat="44.06621" lon="5.989">
        <ele>456.069031</ele>
        <time>2013-05-14T12:10:21Z</time>
      </trkpt>
      <trkpt lat="44.06617" lon="5.98888">
        <ele>455.82251</ele>
        <time>2013-05-14T12:10:25Z</time>
      </trkpt>
      <trkpt lat="44.06618" lon="5.98885">
        <ele>455.839996</ele>
        <time>2013-05-14T12:10:26Z</time>
      </trkpt>
      <trkpt lat="44.06603" lon="5.98852">
        <ele>455.477509</ele>
        <time>2013-05-14T12:10:37Z</time>
      </trkpt>
      <trkpt lat="44.06573" lon="5.98816">
        <ele>454.604156</ele>
        <time>2013-05-14T12:10:52Z</time>
      </trkpt>
      <trkpt lat="44.06536" lon="5.98797">
        <ele>453.326263</ele>
        <time>2013-05-14T12:11:06Z</time>
      </trkpt>
      <trkpt lat="44.06525" lon="5.98799">
        <ele>453.028748</ele>
        <time>2013-05-14T12:11:10Z</time>
      </trkpt>
      <trkpt lat="44.06522" lon="5.98797">
        <ele>452.982513</ele>
        <time>2013-05-14T12:11:11Z</time>
      </trkpt>
      <trkpt lat="44.06488" lon="5.98771">
        <ele>452.636414</ele>
        <time>2013-05-14T12:11:24Z</time>
      </trkpt>
      <trkpt lat="44.06462" lon="5.98767">
        <ele>452.220703</ele>
        <time>2013-05-14T12:11:32Z</time>
      </trkpt>
      <trkpt lat="44.06436" lon="5.98755">
        <ele>451.695007</ele>
        <time>2013-05-14T12:11:41Z</time>
      </trkpt>
      <trkpt lat="44.06428" lon="5.98755">
        <ele>451.512512</ele>
        <time>2013-05-14T12:11:44Z</time>
      </trkpt>
      <trkpt lat="44.06404" lon="5.98749">
        <ele>450.967499</ele>
        <time>2013-05-14T12:11:53Z</time>
      </trkpt>
      <trkpt lat="44.06401" lon="5.98749">
        <ele>450.902496</ele>
        <time>2013-05-14T12:11:54Z</time>
      </trkpt>
      <trkpt lat="44.06398" lon="5.98748">
        <ele>450.837494</ele>
        <time>2013-05-14T12:11:55Z</time>
      </trkpt>
      <trkpt lat="44.06395" lon="5.98748">
        <ele>450.774994</ele>
        <time>2013-05-14T12:11:56Z</time>
      </trkpt>
      <trkpt lat="44.06387" lon="5.98745">
        <ele>450.592499</ele>
        <time>2013-05-14T12:11:59Z</time>
      </trkpt>
      <trkpt lat="44.06384" lon="5.98746">
        <ele>450.529999</ele>
        <time>2013-05-14T12:12:00Z</time>
      </trkpt>
      <trkpt lat="44.06382" lon="5.98749">
        <ele>450.475006</ele>
        <time>2013-05-14T12:12:01Z</time>
      </trkpt>
      <trkpt lat="44.06379" lon="5.98752">
        <ele>450.42749</ele>
        <time>2013-05-14T12:12:02Z</time>
      </trkpt>
      <trkpt lat="44.06377" lon="5.98755">
        <ele>450.38501</ele>
        <time>2013-05-14T12:12:03Z</time>
      </trkpt>
      <trkpt lat="44.06375" lon="5.98759">
        <ele>450.345001</ele>
        <time>2013-05-14T12:12:04Z</time>
      </trkpt>
      <trkpt lat="44.06374" lon="5.98763">
        <ele>450.3125</ele>
        <time>2013-05-14T12:12:05Z</time>
      </trkpt>
      <trkpt lat="44.06372" lon="5.98767">
        <ele>450.285004</ele>
        <time>2013-05-14T12:12:06Z</time>
      </trkpt>
      <trkpt lat="44.0636" lon="5.98817">
        <ele>450.045013</ele>
        <time>2013-05-14T12:12:18Z</time>
      </trkpt>
      <trkpt lat="44.06355" lon="5.98863">
        <ele>449.972504</ele>
        <time>2013-05-14T12:12:28Z</time>
      </trkpt>
      <trkpt lat="44.06354" lon="5.98869">
        <ele>449.954987</ele>
        <time>2013-05-14T12:12:29Z</time>
      </trkpt>
      <trkpt lat="44.06353" lon="5.98875">
        <ele>449.929993</ele>
        <time>2013-05-14T12:12:30Z</time>
      </trkpt>
      <trkpt lat="44.06333" lon="5.98919">
        <ele>449.522491</ele>
        <time>2013-05-14T12:12:40Z</time>
      </trkpt>
      <trkpt lat="44.0633" lon="5.98919">
        <ele>449.454987</ele>
        <time>2013-05-14T12:12:41Z</time>
      </trkpt>
      <trkpt lat="44.06327" lon="5.98919">
        <ele>449.387512</ele>
        <time>2013-05-14T12:12:42Z</time>
      </trkpt>
      <trkpt lat="44.06315" lon="5.98909">
        <ele>449.11499</ele>
        <time>2013-05-14T12:12:46Z</time>
      </trkpt>
      <trkpt lat="44.06303" lon="5.98897">
        <ele>448.852509</ele>
        <time>2013-05-14T12:12:50Z</time>
      </trkpt>
      <trkpt lat="44.06285" lon="5.98878">
        <ele>448.422485</ele>
        <time>2013-05-14T12:12:57Z</time>
      </trkpt>
      <trkpt lat="44.06259" lon="5.98843">
        <ele>447.754089</ele>
        <time>2013-05-14T12:13:07Z</time>
      </trkpt>
      <trkpt lat="44.0625" lon="5.98828">
        <ele>447.387848</ele>
        <time>2013-05-14T12:13:12Z</time>
      </trkpt>
      <trkpt lat="44.06226" lon="5.98813">
        <ele>446.311523</ele>
        <time>2013-05-14T12:13:22Z</time>
      </trkpt>
      <trkpt lat="44.0621" lon="5.98808">
        <ele>445.85376</ele>
        <time>2013-05-14T12:13:27Z</time>
      </trkpt>
      <trkpt lat="44.06179" lon="5.98784">
        <ele>444.584106</ele>
        <time>2013-05-14T12:13:40Z</time>
      </trkpt>
      <trkpt lat="44.06177" lon="5.98781">
        <ele>444.482361</ele>
        <time>2013-05-14T12:13:41Z</time>
      </trkpt>
      <trkpt lat="44.06175" lon="5.98779">
        <ele>444.374115</ele>
        <time>2013-05-14T12:13:42Z</time>
      </trkpt>
      <trkpt lat="44.06162" lon="5.98756">
        <ele>443.461212</ele>
        <time>2013-05-14T12:13:48Z</time>
      </trkpt>
      <trkpt lat="44.06153" lon="5.98743">
        <ele>442.794373</ele>
        <time>2013-05-14T12:13:51Z</time>
      </trkpt>
      <trkpt lat="44.06149" lon="5.98739">
        <ele>442.565552</ele>
        <time>2013-05-14T12:13:52Z</time>
      </trkpt>
      <trkpt lat="44.06115" lon="5.98702">
        <ele>441.54126</ele>
        <time>2013-05-14T12:14:04Z</time>
      </trkpt>
      <trkpt lat="44.06089" lon="5.98708">
        <ele>441.68512</ele>
        <time>2013-05-14T12:14:15Z</time>
      </trkpt>
      <trkpt lat="44.06083" lon="5.98711">
        <ele>441.85321</ele>
        <time>2013-05-14T12:14:18Z</time>
      </trkpt>
      <trkpt lat="44.06081" lon="5.98711">
        <ele>441.881958</ele>
        <time>2013-05-14T12:14:19Z</time>
      </trkpt>
      <trkpt lat="44.06079" lon="5.9871">
        <ele>441.907013</ele>
        <time>2013-05-14T12:14:20Z</time>
      </trkpt>
      <trkpt lat="44.06077" lon="5.9871">
        <ele>441.940857</ele>
        <time>2013-05-14T12:14:21Z</time>
      </trkpt>
      <trkpt lat="44.06074" lon="5.9871">
        <ele>441.98175</ele>
        <time>2013-05-14T12:14:22Z</time>
      </trkpt>
      <trkpt lat="44.06066" lon="5.98709">
        <ele>442.101929</ele>
        <time>2013-05-14T12:14:24Z</time>
      </trkpt>
      <trkpt lat="44.06037" lon="5.98724">
        <ele>442.933777</ele>
        <time>2013-05-14T12:14:34Z</time>
      </trkpt>
      <trkpt lat="44.06025" lon="5.98731">
        <ele>443.19751</ele>
        <time>2013-05-14T12:14:39Z</time>
      </trkpt>
      <trkpt lat="44.06023" lon="5.98731">
        <ele>443.184998</ele>
        <time>2013-05-14T12:14:40Z</time>
      </trkpt>
      <trkpt lat="44.0602" lon="5.98731">
        <ele>443.192505</ele>
        <time>2013-05-14T12:14:41Z</time>
      </trkpt>
      <trkpt lat="44.06018" lon="5.98732">
        <ele>443.242493</ele>
        <time>2013-05-14T12:14:42Z</time>
      </trkpt>
      <trkpt lat="44.06015" lon="5.98733">
        <ele>443.285004</ele>
        <time>2013-05-14T12:14:43Z</time>
      </trkpt>
      <trkpt lat="44.06012" lon="5.98733">
        <ele>443.292511</ele>
        <time>2013-05-14T12:14:44Z</time>
      </trkpt>
      <trkpt lat="44.06009" lon="5.98733">
        <ele>443.297485</ele>
        <time>2013-05-14T12:14:45Z</time>
      </trkpt>
      <trkpt lat="44.06006" lon="5.98734">
        <ele>443.327515</ele>
        <time>2013-05-14T12:14:46Z</time>
      </trkpt>
      <trkpt lat="44.05972" lon="5.98739">
        <ele>442.934998</ele>
        <time>2013-05-14T12:14:57Z</time>
      </trkpt>
      <trkpt lat="44.05966" lon="5.98737">
        <ele>442.744995</ele>
        <time>2013-05-14T12:14:59Z</time>
      </trkpt>
      <trkpt lat="44.05963" lon="5.98738">
        <ele>442.69751</ele>
        <time>2013-05-14T12:15:00Z</time>
      </trkpt>
      <trkpt lat="44.0596" lon="5.98738">
        <ele>442.63501</ele>
        <time>2013-05-14T12:15:01Z</time>
      </trkpt>
      <trkpt lat="44.05957" lon="5.98737">
        <ele>442.537506</ele>
        <time>2013-05-14T12:15:02Z</time>
      </trkpt>
      <trkpt lat="44.05953" lon="5.98736">
        <ele>442.446472</ele>
        <time>2013-05-14T12:15:03Z</time>
      </trkpt>
      <trkpt lat="44.05927" lon="5.98727">
        <ele>441.696594</ele>
        <time>2013-05-14T12:15:12Z</time>
      </trkpt>
      <trkpt lat="44.05924" lon="5.98725">
        <ele>441.566681</ele>
        <time>2013-05-14T12:15:13Z</time>
      </trkpt>
      <trkpt lat="44.05922" lon="5.98723">
        <ele>441.422852</ele>
        <time>2013-05-14T12:15:14Z</time>
      </trkpt>
      <trkpt lat="44.0592" lon="5.98719">
        <ele>441.239929</ele>
        <time>2013-05-14T12:15:15Z</time>
      </trkpt>
      <trkpt lat="44.05917" lon="5.98711">
        <ele>440.915009</ele>
        <time>2013-05-14T12:15:17Z</time>
      </trkpt>
      <trkpt lat="44.05914" lon="5.98709">
        <ele>440.779999</ele>
        <time>2013-05-14T12:15:18Z</time>
      </trkpt>
      <trkpt lat="44.0591" lon="5.98708">
        <ele>440.702515</ele>
        <time>2013-05-14T12:15:19Z</time>
      </trkpt>
      <trkpt lat="44.05907" lon="5.98707">
        <ele>440.762512</ele>
        <time>2013-05-14T12:15:20Z</time>
      </trkpt>
      <trkpt lat="44.05904" lon="5.98706">
        <ele>440.782501</ele>
        <time>2013-05-14T12:15:21Z</time>
      </trkpt>
      <trkpt lat="44.05902" lon="5.98703">
        <ele>440.772491</ele>
        <time>2013-05-14T12:15:22Z</time>
      </trkpt>
      <trkpt lat="44.059" lon="5.98701">
        <ele>440.76001</ele>
        <time>2013-05-14T12:15:23Z</time>
      </trkpt>
      <trkpt lat="44.05878" lon="5.98686">
        <ele>440.82251</ele>
        <time>2013-05-14T12:15:33Z</time>
      </trkpt>
      <trkpt lat="44.05873" lon="5.9868">
        <ele>440.755005</ele>
        <time>2013-05-14T12:15:35Z</time>
      </trkpt>
      <trkpt lat="44.05854" lon="5.98677">
        <ele>441.209503</ele>
        <time>2013-05-14T12:15:41Z</time>
      </trkpt>
      <trkpt lat="44.058" lon="5.9869">
        <ele>444.118958</ele>
        <time>2013-05-14T12:15:57Z</time>
      </trkpt>
      <trkpt lat="44.0578" lon="5.98682">
        <ele>444.969147</ele>
        <time>2013-05-14T12:16:05Z</time>
      </trkpt>
      <trkpt lat="44.05758" lon="5.98689">
        <ele>445.820007</ele>
        <time>2013-05-14T12:16:13Z</time>
      </trkpt>
      <trkpt lat="44.05724" lon="5.98675">
        <ele>445.935425</ele>
        <time>2013-05-14T12:16:24Z</time>
      </trkpt>
      <trkpt lat="44.05702" lon="5.98655">
        <ele>444.850128</ele>
        <time>2013-05-14T12:16:35Z</time>
      </trkpt>
      <trkpt lat="44.05673" lon="5.98641">
        <ele>443.695435</ele>
        <time>2013-05-14T12:16:44Z</time>
      </trkpt>
      <trkpt lat="44.05635" lon="5.98633">
        <ele>441.833069</ele>
        <time>2013-05-14T12:16:55Z</time>
      </trkpt>
      <trkpt lat="44.05602" lon="5.98628">
        <ele>440.38681</ele>
        <time>2013-05-14T12:17:04Z</time>
      </trkpt>
      <trkpt lat="44.05594" lon="5.98651">
        <ele>440.785522</ele>
        <time>2013-05-14T12:17:11Z</time>
      </trkpt>
      <trkpt lat="44.05593" lon="5.98701">
        <ele>440.701721</ele>
        <time>2013-05-14T12:17:22Z</time>
      </trkpt>
      <trkpt lat="44.05598" lon="5.9873">
        <ele>440.575317</ele>
        <time>2013-05-14T12:17:28Z</time>
      </trkpt>
      <trkpt lat="44.05603" lon="5.98744">
        <ele>440.643097</ele>
        <time>2013-05-14T12:17:32Z</time>
      </trkpt>
      <trkpt lat="44.05621" lon="5.98764">
        <ele>441.160553</ele>
        <time>2013-05-14T12:17:42Z</time>
      </trkpt>
      <trkpt lat="44.05636" lon="5.98767">
        <ele>441.754272</ele>
        <time>2013-05-14T12:17:48Z</time>
      </trkpt>
      <trkpt lat="44.0564" lon="5.98767">
        <ele>441.941254</ele>
        <time>2013-05-14T12:17:50Z</time>
      </trkpt>
      <trkpt lat="44.05636" lon="5.98783">
        <ele>441.557953</ele>
        <time>2013-05-14T12:17:58Z</time>
      </trkpt>
      <trkpt lat="44.05632" lon="5.98783">
        <ele>441.421631</ele>
        <time>2013-05-14T12:17:59Z</time>
      </trkpt>
      <trkpt lat="44.05619" lon="5.98783">
        <ele>440.924042</ele>
        <time>2013-05-14T12:18:03Z</time>
      </trkpt>
      <trkpt lat="44.05598" lon="5.98785">
        <ele>440.14444</ele>
        <time>2013-05-14T12:18:07Z</time>
      </trkpt>
      <trkpt lat="44.05576" lon="5.98766">
        <ele>440.049194</ele>
        <time>2013-05-14T12:18:14Z</time>
      </trkpt>
      <trkpt lat="44.05556" lon="5.98717">
        <ele>438.915283</ele>
        <time>2013-05-14T12:18:25Z</time>
      </trkpt>
      <trkpt lat="44.05547" lon="5.98703">
        <ele>438.67807</ele>
        <time>2013-05-14T12:18:29Z</time>
      </trkpt>
      <trkpt lat="44.05534" lon="5.98685">
        <ele>439.470795</ele>
        <time>2013-05-14T12:18:35Z</time>
      </trkpt>
      <trkpt lat="44.0552" lon="5.98661">
        <ele>439.574371</ele>
        <time>2013-05-14T12:18:43Z</time>
      </trkpt>
      <trkpt lat="44.05497" lon="5.98621">
        <ele>438.83374</ele>
        <time>2013-05-14T12:18:55Z</time>
      </trkpt>
      <trkpt lat="44.05482" lon="5.98603">
        <ele>438.954987</ele>
        <time>2013-05-14T12:19:02Z</time>
      </trkpt>
      <trkpt lat="44.05452" lon="5.98588">
        <ele>440.883057</ele>
        <time>2013-05-14T12:19:09Z</time>
      </trkpt>
      <trkpt lat="44.05446" lon="5.98585">
        <ele>441.031189</ele>
        <time>2013-05-14T12:19:10Z</time>
      </trkpt>
      <trkpt lat="44.05414" lon="5.98573">
        <ele>441.800354</ele>
        <time>2013-05-14T12:19:18Z</time>
      </trkpt>
      <trkpt lat="44.05375" lon="5.9856">
        <ele>441.26825</ele>
        <time>2013-05-14T12:19:28Z</time>
      </trkpt>
      <trkpt lat="44.05331" lon="5.98539">
        <ele>438.590088</ele>
        <time>2013-05-14T12:19:40Z</time>
      </trkpt>
      <trkpt lat="44.05286" lon="5.98508">
        <ele>435.395081</ele>
        <time>2013-05-14T12:19:51Z</time>
      </trkpt>
      <trkpt lat="44.05247" lon="5.98489">
        <ele>437.594116</ele>
        <time>2013-05-14T12:20:01Z</time>
      </trkpt>
      <trkpt lat="44.05219" lon="5.98479">
        <ele>436.953308</ele>
        <time>2013-05-14T12:20:08Z</time>
      </trkpt>
      <trkpt lat="44.05189" lon="5.98474">
        <ele>435.518982</ele>
        <time>2013-05-14T12:20:15Z</time>
      </trkpt>
      <trkpt lat="44.05176" lon="5.98472">
        <ele>433.503418</ele>
        <time>2013-05-14T12:20:18Z</time>
      </trkpt>
      <trkpt lat="44.0517" lon="5.98475">
        <ele>433.350159</ele>
        <time>2013-05-14T12:20:20Z</time>
      </trkpt>
      <trkpt lat="44.0517" lon="5.98479">
        <ele>434.0513</ele>
        <time>2013-05-14T12:20:21Z</time>
      </trkpt>
      <trkpt lat="44.05171" lon="5.98482">
        <ele>434.864746</ele>
        <time>2013-05-14T12:20:22Z</time>
      </trkpt>
      <trkpt lat="44.05172" lon="5.98486">
        <ele>434.875702</ele>
        <time>2013-05-14T12:20:23Z</time>
      </trkpt>
      <trkpt lat="44.0519" lon="5.98526">
        <ele>436.166138</ele>
        <time>2013-05-14T12:20:33Z</time>
      </trkpt>
      <trkpt lat="44.05199" lon="5.98546">
        <ele>437.251862</ele>
        <time>2013-05-14T12:20:38Z</time>
      </trkpt>
      <trkpt lat="44.05219" lon="5.98589">
        <ele>436.567474</ele>
        <time>2013-05-14T12:20:47Z</time>
      </trkpt>
      <trkpt lat="44.05226" lon="5.98598">
        <ele>437.361633</ele>
        <time>2013-05-14T12:20:50Z</time>
      </trkpt>
      <trkpt lat="44.05255" lon="5.98644">
        <ele>439.096558</ele>
        <time>2013-05-14T12:21:03Z</time>
      </trkpt>
      <trkpt lat="44.05276" lon="5.98688">
        <ele>439.440002</ele>
        <time>2013-05-14T12:21:14Z</time>
      </trkpt>
      <trkpt lat="44.05305" lon="5.98742">
        <ele>437.730621</ele>
        <time>2013-05-14T12:21:27Z</time>
      </trkpt>
      <trkpt lat="44.05329" lon="5.9879">
        <ele>438.559998</ele>
        <time>2013-05-14T12:21:39Z</time>
      </trkpt>
      <trkpt lat="44.05353" lon="5.9885">
        <ele>438.686493</ele>
        <time>2013-05-14T12:21:52Z</time>
      </trkpt>
      <trkpt lat="44.05366" lon="5.98903">
        <ele>439.513245</ele>
        <time>2013-05-14T12:22:03Z</time>
      </trkpt>
      <trkpt lat="44.05379" lon="5.98969">
        <ele>438.957214</ele>
        <time>2013-05-14T12:22:15Z</time>
      </trkpt>
      <trkpt lat="44.0539" lon="5.99028">
        <ele>438.281647</ele>
        <time>2013-05-14T12:22:26Z</time>
      </trkpt>
      <trkpt lat="44.05399" lon="5.99061">
        <ele>438.085999</ele>
        <time>2013-05-14T12:22:32Z</time>
      </trkpt>
      <trkpt lat="44.05405" lon="5.99086">
        <ele>437.871613</ele>
        <time>2013-05-14T12:22:36Z</time>
      </trkpt>
      <trkpt lat="44.05408" lon="5.99108">
        <ele>437.299377</ele>
        <time>2013-05-14T12:22:44Z</time>
      </trkpt>
      <trkpt lat="44.05409" lon="5.99113">
        <ele>437.230347</ele>
        <time>2013-05-14T12:23:06Z</time>
      </trkpt>
      <trkpt lat="44.05402" lon="5.99106">
        <ele>436.585388</ele>
        <time>2013-05-14T12:23:33Z</time>
      </trkpt>
      <trkpt lat="44.05391" lon="5.99092">
        <ele>435.22052</ele>
        <time>2013-05-14T12:23:38Z</time>
      </trkpt>
      <trkpt lat="44.05382" lon="5.99084">
        <ele>433.943176</ele>
        <time>2013-05-14T12:23:41Z</time>
      </trkpt>
      <trkpt lat="44.05366" lon="5.99055">
        <ele>433.115112</ele>
        <time>2013-05-14T12:23:46Z</time>
      </trkpt>
      <trkpt lat="44.05342" lon="5.99026">
        <ele>429.397491</ele>
        <time>2013-05-14T12:23:52Z</time>
      </trkpt>
      <trkpt lat="44.05334" lon="5.99">
        <ele>428.674988</ele>
        <time>2013-05-14T12:23:57Z</time>
      </trkpt>
      <trkpt lat="44.05315" lon="5.98926">
        <ele>428.289856</ele>
        <time>2013-05-14T12:24:10Z</time>
      </trkpt>
      <trkpt lat="44.05296" lon="5.98871">
        <ele>427.46991</ele>
        <time>2013-05-14T12:24:21Z</time>
      </trkpt>
      <trkpt lat="44.0526" lon="5.98806">
        <ele>424.948547</ele>
        <time>2013-05-14T12:24:35Z</time>
      </trkpt>
      <trkpt lat="44.05228" lon="5.98737">
        <ele>423.343628</ele>
        <time>2013-05-14T12:24:48Z</time>
      </trkpt>
      <trkpt lat="44.05198" lon="5.98674">
        <ele>422.344391</ele>
        <time>2013-05-14T12:25:00Z</time>
      </trkpt>
      <trkpt lat="44.0517" lon="5.98606">
        <ele>423.144775</ele>
        <time>2013-05-14T12:25:14Z</time>
      </trkpt>
      <trkpt lat="44.05142" lon="5.9854">
        <ele>423.287506</ele>
        <time>2013-05-14T12:25:28Z</time>
      </trkpt>
      <trkpt lat="44.05115" lon="5.98478">
        <ele>423.306458</ele>
        <time>2013-05-14T12:25:41Z</time>
      </trkpt>
      <trkpt lat="44.05098" lon="5.98447">
        <ele>420.032227</ele>
        <time>2013-05-14T12:25:46Z</time>
      </trkpt>
      <trkpt lat="44.05096" lon="5.9844">
        <ele>419.710388</ele>
        <time>2013-05-14T12:25:47Z</time>
      </trkpt>
      <trkpt lat="44.05095" lon="5.98433">
        <ele>419.579773</ele>
        <time>2013-05-14T12:25:48Z</time>
      </trkpt>
      <trkpt lat="44.05093" lon="5.98419">
        <ele>419.524994</ele>
        <time>2013-05-14T12:25:50Z</time>
      </trkpt>
      <trkpt lat="44.05092" lon="5.98401">
        <ele>418.526886</ele>
        <time>2013-05-14T12:25:54Z</time>
      </trkpt>
      <trkpt lat="44.05093" lon="5.98399">
        <ele>418.487854</ele>
        <time>2013-05-14T12:25:55Z</time>
      </trkpt>
      <trkpt lat="44.05094" lon="5.98397">
        <ele>418.471191</ele>
        <time>2013-05-14T12:25:56Z</time>
      </trkpt>
      <trkpt lat="44.05095" lon="5.98394">
        <ele>418.401276</ele>
        <time>2013-05-14T12:25:57Z</time>
      </trkpt>
      <trkpt lat="44.05096" lon="5.9839">
        <ele>418.292419</ele>
        <time>2013-05-14T12:25:58Z</time>
      </trkpt>
      <trkpt lat="44.05097" lon="5.98386">
        <ele>418.110229</ele>
        <time>2013-05-14T12:25:59Z</time>
      </trkpt>
      <trkpt lat="44.05102" lon="5.98377">
        <ele>417.88501</ele>
        <time>2013-05-14T12:26:02Z</time>
      </trkpt>
      <trkpt lat="44.05111" lon="5.98377">
        <ele>418.741089</ele>
        <time>2013-05-14T12:26:06Z</time>
      </trkpt>
      <trkpt lat="44.05114" lon="5.98377">
        <ele>418.815186</ele>
        <time>2013-05-14T12:26:07Z</time>
      </trkpt>
      <trkpt lat="44.05117" lon="5.98377">
        <ele>418.741486</ele>
        <time>2013-05-14T12:26:08Z</time>
      </trkpt>
      <trkpt lat="44.05135" lon="5.98373">
        <ele>417.977509</ele>
        <time>2013-05-14T12:26:15Z</time>
      </trkpt>
      <trkpt lat="44.05146" lon="5.98378">
        <ele>418.200012</ele>
        <time>2013-05-14T12:26:21Z</time>
      </trkpt>
      <trkpt lat="44.05157" lon="5.98377">
        <ele>417.948425</ele>
        <time>2013-05-14T12:26:26Z</time>
      </trkpt>
      <trkpt lat="44.05164" lon="5.98367">
        <ele>415.645447</ele>
        <time>2013-05-14T12:26:31Z</time>
      </trkpt>
      <trkpt lat="44.05168" lon="5.98364">
        <ele>414.808197</ele>
        <time>2013-05-14T12:26:32Z</time>
      </trkpt>
      <trkpt lat="44.05173" lon="5.98361">
        <ele>413.687195</ele>
        <time>2013-05-14T12:26:33Z</time>
      </trkpt>
      <trkpt lat="44.05175" lon="5.98358">
        <ele>413.125</ele>
        <time>2013-05-14T12:26:34Z</time>
      </trkpt>
      <trkpt lat="44.05175" lon="5.98356">
        <ele>413.432983</ele>
        <time>2013-05-14T12:26:35Z</time>
      </trkpt>
      <trkpt lat="44.05176" lon="5.98352">
        <ele>413.80484</ele>
        <time>2013-05-14T12:26:36Z</time>
      </trkpt>
      <trkpt lat="44.05176" lon="5.98349">
        <ele>414.170135</ele>
        <time>2013-05-14T12:26:37Z</time>
      </trkpt>
      <trkpt lat="44.05177" lon="5.98346">
        <ele>414.467285</ele>
        <time>2013-05-14T12:26:38Z</time>
      </trkpt>
      <trkpt lat="44.05179" lon="5.98344">
        <ele>414.695801</ele>
        <time>2013-05-14T12:26:39Z</time>
      </trkpt>
      <trkpt lat="44.05181" lon="5.98341">
        <ele>414.920929</ele>
        <time>2013-05-14T12:26:40Z</time>
      </trkpt>
      <trkpt lat="44.05184" lon="5.98333">
        <ele>415.879486</ele>
        <time>2013-05-14T12:26:43Z</time>
      </trkpt>
      <trkpt lat="44.05183" lon="5.98331">
        <ele>416.210327</ele>
        <time>2013-05-14T12:26:44Z</time>
      </trkpt>
      <trkpt lat="44.05182" lon="5.98329">
        <ele>416.520477</ele>
        <time>2013-05-14T12:26:45Z</time>
      </trkpt>
      <trkpt lat="44.0518" lon="5.98327">
        <ele>416.82608</ele>
        <time>2013-05-14T12:26:46Z</time>
      </trkpt>
      <trkpt lat="44.0518" lon="5.98325">
        <ele>417.138794</ele>
        <time>2013-05-14T12:26:47Z</time>
      </trkpt>
      <trkpt lat="44.0518" lon="5.98323">
        <ele>417.370026</ele>
        <time>2013-05-14T12:26:48Z</time>
      </trkpt>
      <trkpt lat="44.05192" lon="5.98323">
        <ele>417.246002</ele>
        <time>2013-05-14T12:26:58Z</time>
      </trkpt>
      <trkpt lat="44.05209" lon="5.98322">
        <ele>417.850006</ele>
        <time>2013-05-14T12:27:14Z</time>
      </trkpt>
      <trkpt lat="44.05229" lon="5.98322">
        <ele>419.629089</ele>
        <time>2013-05-14T12:27:28Z</time>
      </trkpt>
      <trkpt lat="44.0523" lon="5.98322">
        <ele>419.771698</ele>
        <time>2013-05-14T12:27:29Z</time>
      </trkpt>
      <trkpt lat="44.05257" lon="5.9832">
        <ele>422.911224</ele>
        <time>2013-05-14T12:27:47Z</time>
      </trkpt>
      <trkpt lat="44.05258" lon="5.9832">
        <ele>423.065552</ele>
        <time>2013-05-14T12:27:48Z</time>
      </trkpt>
      <trkpt lat="44.05272" lon="5.98316">
        <ele>425.588287</ele>
        <time>2013-05-14T12:27:58Z</time>
      </trkpt>
      <trkpt lat="44.05272" lon="5.98311">
        <ele>426.870056</ele>
        <time>2013-05-14T12:28:02Z</time>
      </trkpt>
      <trkpt lat="44.05249" lon="5.98304">
        <ele>426.155823</ele>
        <time>2013-05-14T12:28:18Z</time>
      </trkpt>
      <trkpt lat="44.05226" lon="5.98296">
        <ele>425.069916</ele>
        <time>2013-05-14T12:28:30Z</time>
      </trkpt>
      <trkpt lat="44.05207" lon="5.98287">
        <ele>424.869965</ele>
        <time>2013-05-14T12:28:41Z</time>
      </trkpt>
      <trkpt lat="44.05205" lon="5.98286">
        <ele>424.882385</ele>
        <time>2013-05-14T12:28:42Z</time>
      </trkpt>
      <trkpt lat="44.05203" lon="5.98285">
        <ele>424.985718</ele>
        <time>2013-05-14T12:28:43Z</time>
      </trkpt>
      <trkpt lat="44.05202" lon="5.98284">
        <ele>425.117462</ele>
        <time>2013-05-14T12:28:44Z</time>
      </trkpt>
      <trkpt lat="44.052" lon="5.98283">
        <ele>425.185486</ele>
        <time>2013-05-14T12:28:45Z</time>
      </trkpt>
      <trkpt lat="44.05198" lon="5.98282">
        <ele>425.288361</ele>
        <time>2013-05-14T12:28:46Z</time>
      </trkpt>
      <trkpt lat="44.05196" lon="5.98281">
        <ele>425.461914</ele>
        <time>2013-05-14T12:28:47Z</time>
      </trkpt>
      <trkpt lat="44.05194" lon="5.9828">
        <ele>425.61438</ele>
        <time>2013-05-14T12:28:48Z</time>
      </trkpt>
      <trkpt lat="44.05192" lon="5.98278">
        <ele>425.852539</ele>
        <time>2013-05-14T12:28:49Z</time>
      </trkpt>
      <trkpt lat="44.05191" lon="5.98276">
        <ele>426.128418</ele>
        <time>2013-05-14T12:28:50Z</time>
      </trkpt>
      <trkpt lat="44.05188" lon="5.98274">
        <ele>426.432159</ele>
        <time>2013-05-14T12:28:51Z</time>
      </trkpt>
      <trkpt lat="44.05167" lon="5.98249">
        <ele>430.021057</ele>
        <time>2013-05-14T12:29:03Z</time>
      </trkpt>
      <trkpt lat="44.05142" lon="5.98228">
        <ele>432.064911</ele>
        <time>2013-05-14T12:29:16Z</time>
      </trkpt>
      <trkpt lat="44.05111" lon="5.9822">
        <ele>430.795319</ele>
        <time>2013-05-14T12:29:29Z</time>
      </trkpt>
      <trkpt lat="44.05105" lon="5.98218">
        <ele>430.50296</ele>
        <time>2013-05-14T12:29:43Z</time>
      </trkpt>
      <trkpt lat="44.05103" lon="5.98217">
        <ele>430.641876</ele>
        <time>2013-05-14T12:29:59Z</time>
      </trkpt>
      <trkpt lat="44.05086" lon="5.98226">
        <ele>426.907318</ele>
        <time>2013-05-14T12:30:13Z</time>
      </trkpt>
      <trkpt lat="44.05081" lon="5.98227">
        <ele>426.095703</ele>
        <time>2013-05-14T12:30:14Z</time>
      </trkpt>
      <trkpt lat="44.05076" lon="5.98227">
        <ele>425.388458</ele>
        <time>2013-05-14T12:30:15Z</time>
      </trkpt>
      <trkpt lat="44.05061" lon="5.98227">
        <ele>423.547058</ele>
        <time>2013-05-14T12:30:18Z</time>
      </trkpt>
      <trkpt lat="44.0503" lon="5.9822">
        <ele>421.433929</ele>
        <time>2013-05-14T12:30:24Z</time>
      </trkpt>
      <trkpt lat="44.05006" lon="5.98215">
        <ele>419.122253</ele>
        <time>2013-05-14T12:30:30Z</time>
      </trkpt>
      <trkpt lat="44.05002" lon="5.98212">
        <ele>419.13031</ele>
        <time>2013-05-14T12:30:31Z</time>
      </trkpt>
      <trkpt lat="44.04999" lon="5.98208">
        <ele>419.361176</ele>
        <time>2013-05-14T12:30:32Z</time>
      </trkpt>
      <trkpt lat="44.04998" lon="5.98204">
        <ele>419.817444</ele>
        <time>2013-05-14T12:30:33Z</time>
      </trkpt>
      <trkpt lat="44.04997" lon="5.98201">
        <ele>420.250763</ele>
        <time>2013-05-14T12:30:34Z</time>
      </trkpt>
      <trkpt lat="44.04996" lon="5.98194">
        <ele>421.318573</ele>
        <time>2013-05-14T12:30:37Z</time>
      </trkpt>
      <trkpt lat="44.04995" lon="5.9819">
        <ele>421.767395</ele>
        <time>2013-05-14T12:30:39Z</time>
      </trkpt>
      <trkpt lat="44.04995" lon="5.98188">
        <ele>421.967194</ele>
        <time>2013-05-14T12:30:40Z</time>
      </trkpt>
      <trkpt lat="44.04988" lon="5.98166">
        <ele>423.752869</ele>
        <time>2013-05-14T12:30:51Z</time>
      </trkpt>
      <trkpt lat="44.04984" lon="5.98142">
        <ele>426.408661</ele>
        <time>2013-05-14T12:31:03Z</time>
      </trkpt>
      <trkpt lat="44.04982" lon="5.98124">
        <ele>428.506805</ele>
        <time>2013-05-14T12:31:12Z</time>
      </trkpt>
      <trkpt lat="44.04974" lon="5.98093">
        <ele>430.834991</ele>
        <time>2013-05-14T12:31:26Z</time>
      </trkpt>
      <trkpt lat="44.04966" lon="5.98068">
        <ele>430.767487</ele>
        <time>2013-05-14T12:31:36Z</time>
      </trkpt>
      <trkpt lat="44.04957" lon="5.98029">
        <ele>431.76358</ele>
        <time>2013-05-14T12:31:49Z</time>
      </trkpt>
      <trkpt lat="44.04943" lon="5.98003">
        <ele>430.205933</ele>
        <time>2013-05-14T12:31:55Z</time>
      </trkpt>
      <trkpt lat="44.04941" lon="5.97998">
        <ele>430.106781</ele>
        <time>2013-05-14T12:31:56Z</time>
      </trkpt>
      <trkpt lat="44.0493" lon="5.97971">
        <ele>429.431549</ele>
        <time>2013-05-14T12:32:01Z</time>
      </trkpt>
      <trkpt lat="44.04927" lon="5.97965">
        <ele>429.113525</ele>
        <time>2013-05-14T12:32:02Z</time>
      </trkpt>
      <trkpt lat="44.04925" lon="5.97958">
        <ele>428.880768</ele>
        <time>2013-05-14T12:32:03Z</time>
      </trkpt>
      <trkpt lat="44.04923" lon="5.97951">
        <ele>428.741089</ele>
        <time>2013-05-14T12:32:04Z</time>
      </trkpt>
      <trkpt lat="44.04921" lon="5.97944">
        <ele>428.798462</ele>
        <time>2013-05-14T12:32:05Z</time>
      </trkpt>
      <trkpt lat="44.0492" lon="5.97938">
        <ele>428.950439</ele>
        <time>2013-05-14T12:32:06Z</time>
      </trkpt>
      <trkpt lat="44.04908" lon="5.97888">
        <ele>429.439911</ele>
        <time>2013-05-14T12:32:17Z</time>
      </trkpt>
      <trkpt lat="44.04905" lon="5.97883">
        <ele>429.224762</ele>
        <time>2013-05-14T12:32:18Z</time>
      </trkpt>
      <trkpt lat="44.04902" lon="5.97877">
        <ele>429.181427</ele>
        <time>2013-05-14T12:32:19Z</time>
      </trkpt>
      <trkpt lat="44.049" lon="5.97871">
        <ele>429.23645</ele>
        <time>2013-05-14T12:32:20Z</time>
      </trkpt>
      <trkpt lat="44.04898" lon="5.97865">
        <ele>429.233215</ele>
        <time>2013-05-14T12:32:21Z</time>
      </trkpt>
      <trkpt lat="44.04896" lon="5.97859">
        <ele>429.159271</ele>
        <time>2013-05-14T12:32:22Z</time>
      </trkpt>
      <trkpt lat="44.04894" lon="5.97853">
        <ele>429.191711</ele>
        <time>2013-05-14T12:32:23Z</time>
      </trkpt>
      <trkpt lat="44.04892" lon="5.97847">
        <ele>429.322083</ele>
        <time>2013-05-14T12:32:24Z</time>
      </trkpt>
      <trkpt lat="44.04891" lon="5.97841">
        <ele>429.561554</ele>
        <time>2013-05-14T12:32:25Z</time>
      </trkpt>
      <trkpt lat="44.04891" lon="5.97836">
        <ele>429.769989</ele>
        <time>2013-05-14T12:32:26Z</time>
      </trkpt>
      <trkpt lat="44.04876" lon="5.97806">
        <ele>428.276245</ele>
        <time>2013-05-14T12:32:33Z</time>
      </trkpt>
      <trkpt lat="44.04873" lon="5.97799">
        <ele>428.046234</ele>
        <time>2013-05-14T12:32:34Z</time>
      </trkpt>
      <trkpt lat="44.04871" lon="5.97792">
        <ele>428.101257</ele>
        <time>2013-05-14T12:32:35Z</time>
      </trkpt>
      <trkpt lat="44.04869" lon="5.97779">
        <ele>428.523743</ele>
        <time>2013-05-14T12:32:37Z</time>
      </trkpt>
      <trkpt lat="44.04854" lon="5.97702">
        <ele>429.270905</ele>
        <time>2013-05-14T12:32:52Z</time>
      </trkpt>
      <trkpt lat="44.04838" lon="5.9763">
        <ele>427.978394</ele>
        <time>2013-05-14T12:33:07Z</time>
      </trkpt>
      <trkpt lat="44.04837" lon="5.97625">
        <ele>428.136475</ele>
        <time>2013-05-14T12:33:08Z</time>
      </trkpt>
      <trkpt lat="44.04833" lon="5.97546">
        <ele>430.35965</ele>
        <time>2013-05-14T12:33:24Z</time>
      </trkpt>
      <trkpt lat="44.04834" lon="5.97492">
        <ele>432.673157</ele>
        <time>2013-05-14T12:33:37Z</time>
      </trkpt>
      <trkpt lat="44.0482" lon="5.97394">
        <ele>433.738525</ele>
        <time>2013-05-14T12:33:55Z</time>
      </trkpt>
      <trkpt lat="44.04812" lon="5.97329">
        <ele>432.335785</ele>
        <time>2013-05-14T12:34:08Z</time>
      </trkpt>
      <trkpt lat="44.04813" lon="5.97326">
        <ele>432.59668</ele>
        <time>2013-05-14T12:34:09Z</time>
      </trkpt>
      <trkpt lat="44.04815" lon="5.97324">
        <ele>432.998444</ele>
        <time>2013-05-14T12:34:10Z</time>
      </trkpt>
      <trkpt lat="44.04818" lon="5.97324">
        <ele>433.369171</ele>
        <time>2013-05-14T12:34:11Z</time>
      </trkpt>
      <trkpt lat="44.04819" lon="5.97326">
        <ele>433.655487</ele>
        <time>2013-05-14T12:34:12Z</time>
      </trkpt>
      <trkpt lat="44.0482" lon="5.97328">
        <ele>433.800934</ele>
        <time>2013-05-14T12:34:13Z</time>
      </trkpt>
      <trkpt lat="44.04821" lon="5.97331">
        <ele>433.945679</ele>
        <time>2013-05-14T12:34:14Z</time>
      </trkpt>
      <trkpt lat="44.04821" lon="5.97334">
        <ele>434.072723</ele>
        <time>2013-05-14T12:34:15Z</time>
      </trkpt>
      <trkpt lat="44.04822" lon="5.97337">
        <ele>434.162598</ele>
        <time>2013-05-14T12:34:16Z</time>
      </trkpt>
      <trkpt lat="44.04833" lon="5.97366">
        <ele>436.137512</ele>
        <time>2013-05-14T12:34:28Z</time>
      </trkpt>
      <trkpt lat="44.04842" lon="5.97396">
        <ele>437.262512</ele>
        <time>2013-05-14T12:34:41Z</time>
      </trkpt>
      <trkpt lat="44.0485" lon="5.97431">
        <ele>437.359192</ele>
        <time>2013-05-14T12:34:56Z</time>
      </trkpt>
      <trkpt lat="44.0486" lon="5.97475">
        <ele>437.583557</ele>
        <time>2013-05-14T12:35:14Z</time>
      </trkpt>
      <trkpt lat="44.04873" lon="5.97513">
        <ele>438.626129</ele>
        <time>2013-05-14T12:35:31Z</time>
      </trkpt>
      <trkpt lat="44.04894" lon="5.97536">
        <ele>440.489594</ele>
        <time>2013-05-14T12:35:47Z</time>
      </trkpt>
      <trkpt lat="44.04908" lon="5.97542">
        <ele>442.122498</ele>
        <time>2013-05-14T12:35:55Z</time>
      </trkpt>
      <trkpt lat="44.04909" lon="5.97545">
        <ele>442.261902</ele>
        <time>2013-05-14T12:35:56Z</time>
      </trkpt>
      <trkpt lat="44.0491" lon="5.97547">
        <ele>442.29364</ele>
        <time>2013-05-14T12:35:57Z</time>
      </trkpt>
      <trkpt lat="44.0491" lon="5.9755">
        <ele>442.322906</ele>
        <time>2013-05-14T12:36:10Z</time>
      </trkpt>
      <trkpt lat="44.04911" lon="5.97552">
        <ele>442.430511</ele>
        <time>2013-05-14T12:36:33Z</time>
      </trkpt>
      <trkpt lat="44.04911" lon="5.97555">
        <ele>442.449005</ele>
        <time>2013-05-14T12:37:05Z</time>
      </trkpt>
      <trkpt lat="44.04907" lon="5.97569">
        <ele>441.920135</ele>
        <time>2013-05-14T12:37:26Z</time>
      </trkpt>
      <trkpt lat="44.04905" lon="5.97575">
        <ele>441.67569</ele>
        <time>2013-05-14T12:37:29Z</time>
      </trkpt>
      <trkpt lat="44.04906" lon="5.97595">
        <ele>441.837769</ele>
        <time>2013-05-14T12:37:39Z</time>
      </trkpt>
      <trkpt lat="44.04897" lon="5.97612">
        <ele>440.309448</ele>
        <time>2013-05-14T12:37:48Z</time>
      </trkpt>
      <trkpt lat="44.0489" lon="5.97623">
        <ele>439.193115</ele>
        <time>2013-05-14T12:37:53Z</time>
      </trkpt>
      <trkpt lat="44.04887" lon="5.97642">
        <ele>438.702423</ele>
        <time>2013-05-14T12:37:58Z</time>
      </trkpt>
      <trkpt lat="44.04886" lon="5.97674">
        <ele>437.732819</ele>
        <time>2013-05-14T12:38:05Z</time>
      </trkpt>
      <trkpt lat="44.04897" lon="5.97709">
        <ele>438.664795</ele>
        <time>2013-05-14T12:38:13Z</time>
      </trkpt>
      <trkpt lat="44.04907" lon="5.97728">
        <ele>440.015259</ele>
        <time>2013-05-14T12:38:20Z</time>
      </trkpt>
      <trkpt lat="44.04908" lon="5.97747">
        <ele>439.356995</ele>
        <time>2013-05-14T12:38:25Z</time>
      </trkpt>
      <trkpt lat="44.04914" lon="5.9776">
        <ele>439.710632</ele>
        <time>2013-05-14T12:38:29Z</time>
      </trkpt>
      <trkpt lat="44.04925" lon="5.97794">
        <ele>439.524292</ele>
        <time>2013-05-14T12:38:39Z</time>
      </trkpt>
      <trkpt lat="44.04937" lon="5.97838">
        <ele>438.863892</ele>
        <time>2013-05-14T12:38:52Z</time>
      </trkpt>
      <trkpt lat="44.04936" lon="5.97861">
        <ele>437.43924</ele>
        <time>2013-05-14T12:38:59Z</time>
      </trkpt>
      <trkpt lat="44.04946" lon="5.97867">
        <ele>439.291077</ele>
        <time>2013-05-14T12:39:03Z</time>
      </trkpt>
      <trkpt lat="44.0496" lon="5.97887">
        <ele>440.09375</ele>
        <time>2013-05-14T12:39:13Z</time>
      </trkpt>
      <trkpt lat="44.04953" lon="5.97917">
        <ele>438.040375</ele>
        <time>2013-05-14T12:39:22Z</time>
      </trkpt>
      <trkpt lat="44.04952" lon="5.97925">
        <ele>437.455536</ele>
        <time>2013-05-14T12:39:24Z</time>
      </trkpt>
      <trkpt lat="44.04952" lon="5.97934">
        <ele>436.868256</ele>
        <time>2013-05-14T12:39:26Z</time>
      </trkpt>
      <trkpt lat="44.04962" lon="5.9797">
        <ele>436.93277</ele>
        <time>2013-05-14T12:39:35Z</time>
      </trkpt>
      <trkpt lat="44.04978" lon="5.97999">
        <ele>438.552002</ele>
        <time>2013-05-14T12:39:44Z</time>
      </trkpt>
      <trkpt lat="44.04982" lon="5.98021">
        <ele>438.46701</ele>
        <time>2013-05-14T12:39:49Z</time>
      </trkpt>
      <trkpt lat="44.04986" lon="5.98056">
        <ele>437.442505</ele>
        <time>2013-05-14T12:39:58Z</time>
      </trkpt>
      <trkpt lat="44.05001" lon="5.98078">
        <ele>437.932861</ele>
        <time>2013-05-14T12:40:08Z</time>
      </trkpt>
      <trkpt lat="44.05005" lon="5.98095">
        <ele>437.366302</ele>
        <time>2013-05-14T12:40:15Z</time>
      </trkpt>
      <trkpt lat="44.05008" lon="5.98099">
        <ele>437.628204</ele>
        <time>2013-05-14T12:40:21Z</time>
      </trkpt>
      <trkpt lat="44.05014" lon="5.98102">
        <ele>438.407501</ele>
        <time>2013-05-14T12:40:26Z</time>
      </trkpt>
      <trkpt lat="44.05036" lon="5.9809">
        <ele>442.837524</ele>
        <time>2013-05-14T12:40:39Z</time>
      </trkpt>
      <trkpt lat="44.05053" lon="5.98074">
        <ele>444.947479</ele>
        <time>2013-05-14T12:40:48Z</time>
      </trkpt>
      <trkpt lat="44.05078" lon="5.98055">
        <ele>447.532501</ele>
        <time>2013-05-14T12:41:01Z</time>
      </trkpt>
      <trkpt lat="44.05116" lon="5.98076">
        <ele>446.924988</ele>
        <time>2013-05-14T12:41:16Z</time>
      </trkpt>
      <trkpt lat="44.05153" lon="5.9811">
        <ele>445.782227</ele>
        <time>2013-05-14T12:41:30Z</time>
      </trkpt>
      <trkpt lat="44.05186" lon="5.98117">
        <ele>445.158295</ele>
        <time>2013-05-14T12:41:40Z</time>
      </trkpt>
      <trkpt lat="44.05222" lon="5.98126">
        <ele>444.846619</ele>
        <time>2013-05-14T12:41:52Z</time>
      </trkpt>
      <trkpt lat="44.05265" lon="5.98152">
        <ele>445.532928</ele>
        <time>2013-05-14T12:42:07Z</time>
      </trkpt>
      <trkpt lat="44.05303" lon="5.98178">
        <ele>446</ele>
        <time>2013-05-14T12:42:20Z</time>
      </trkpt>
      <trkpt lat="44.05341" lon="5.982">
        <ele>445.377563</ele>
        <time>2013-05-14T12:42:33Z</time>
      </trkpt>
      <trkpt lat="44.05376" lon="5.98212">
        <ele>444.776031</ele>
        <time>2013-05-14T12:42:44Z</time>
      </trkpt>
      <trkpt lat="44.0541" lon="5.98212">
        <ele>443.990234</ele>
        <time>2013-05-14T12:42:56Z</time>
      </trkpt>
      <trkpt lat="44.0544" lon="5.98203">
        <ele>443.372498</ele>
        <time>2013-05-14T12:43:08Z</time>
      </trkpt>
      <trkpt lat="44.0545" lon="5.98194">
        <ele>443.475006</ele>
        <time>2013-05-14T12:43:19Z</time>
      </trkpt>
      <trkpt lat="44.05455" lon="5.98192">
        <ele>443.44751</ele>
        <time>2013-05-14T12:43:45Z</time>
      </trkpt>
      <trkpt lat="44.05455" lon="5.98196">
        <ele>443.299988</ele>
        <time>2013-05-14T12:44:00Z</time>
      </trkpt>
      <trkpt lat="44.05455" lon="5.98195">
        <ele>443.325012</ele>
        <time>2013-05-14T12:44:33Z</time>
      </trkpt>
      <trkpt lat="44.05457" lon="5.98197">
        <ele>443.237488</ele>
        <time>2013-05-14T12:45:08Z</time>
      </trkpt>
      <trkpt lat="44.05458" lon="5.98197">
        <ele>443.212494</ele>
        <time>2013-05-14T12:45:46Z</time>
      </trkpt>
      <trkpt lat="44.05462" lon="5.98197">
        <ele>443.125</ele>
        <time>2013-05-14T12:46:22Z</time>
      </trkpt>
      <trkpt lat="44.05461" lon="5.98197">
        <ele>443.172485</ele>
        <time>2013-05-14T12:46:56Z</time>
      </trkpt>
      <trkpt lat="44.05459" lon="5.98197">
        <ele>443.174988</ele>
        <time>2013-05-14T12:47:30Z</time>
      </trkpt>
      <trkpt lat="44.05458" lon="5.98196">
        <ele>443.252502</ele>
        <time>2013-05-14T12:47:58Z</time>
      </trkpt>
      <trkpt lat="44.05458" lon="5.98196">
        <ele>443.230011</ele>
        <time>2013-05-14T12:48:35Z</time>
      </trkpt>
      <trkpt lat="44.05458" lon="5.98196">
        <ele>443.264984</ele>
        <time>2013-05-14T12:49:08Z</time>
      </trkpt>
      <trkpt lat="44.05457" lon="5.98196">
        <ele>443.262512</ele>
        <time>2013-05-14T12:49:47Z</time>
      </trkpt>
      <trkpt lat="44.05455" lon="5.98194">
        <ele>443.375</ele>
        <time>2013-05-14T12:50:23Z</time>
      </trkpt>
      <trkpt lat="44.05456" lon="5.98195">
        <ele>443.320007</ele>
        <time>2013-05-14T12:50:51Z</time>
      </trkpt>
      <trkpt lat="44.05458" lon="5.98195">
        <ele>443.285004</ele>
        <time>2013-05-14T12:51:21Z</time>
      </trkpt>
      <trkpt lat="44.05461" lon="5.98193">
        <ele>443.279999</ele>
        <time>2013-05-14T12:51:23Z</time>
      </trkpt>
      <trkpt lat="44.05461" lon="5.98192">
        <ele>443.320007</ele>
        <time>2013-05-14T12:51:24Z</time>
      </trkpt>
      <trkpt lat="44.05462" lon="5.98189">
        <ele>443.394165</ele>
        <time>2013-05-14T12:51:25Z</time>
      </trkpt>
      <trkpt lat="44.05462" lon="5.98186">
        <ele>443.453522</ele>
        <time>2013-05-14T12:51:26Z</time>
      </trkpt>
      <trkpt lat="44.05462" lon="5.98184">
        <ele>443.529144</ele>
        <time>2013-05-14T12:51:27Z</time>
      </trkpt>
      <trkpt lat="44.05461" lon="5.98181">
        <ele>443.61554</ele>
        <time>2013-05-14T12:51:28Z</time>
      </trkpt>
      <trkpt lat="44.0546" lon="5.98179">
        <ele>443.696503</ele>
        <time>2013-05-14T12:51:29Z</time>
      </trkpt>
      <trkpt lat="44.05459" lon="5.98177">
        <ele>443.764069</ele>
        <time>2013-05-14T12:51:30Z</time>
      </trkpt>
      <trkpt lat="44.05457" lon="5.98176">
        <ele>443.812927</ele>
        <time>2013-05-14T12:51:31Z</time>
      </trkpt>
      <trkpt lat="44.05455" lon="5.98176">
        <ele>443.844086</ele>
        <time>2013-05-14T12:51:32Z</time>
      </trkpt>
      <trkpt lat="44.05454" lon="5.98176">
        <ele>443.867798</ele>
        <time>2013-05-14T12:51:33Z</time>
      </trkpt>
      <trkpt lat="44.05453" lon="5.98176">
        <ele>443.888062</ele>
        <time>2013-05-14T12:51:34Z</time>
      </trkpt>
      <trkpt lat="44.05451" lon="5.98176">
        <ele>443.908325</ele>
        <time>2013-05-14T12:51:35Z</time>
      </trkpt>
      <trkpt lat="44.0545" lon="5.98176">
        <ele>443.925385</ele>
        <time>2013-05-14T12:51:36Z</time>
      </trkpt>
      <trkpt lat="44.05429" lon="5.98166">
        <ele>444.566254</ele>
        <time>2013-05-14T12:51:51Z</time>
      </trkpt>
      <trkpt lat="44.05406" lon="5.98129">
        <ele>445.636322</ele>
        <time>2013-05-14T12:52:06Z</time>
      </trkpt>
      <trkpt lat="44.05368" lon="5.98094">
        <ele>445.561249</ele>
        <time>2013-05-14T12:52:24Z</time>
      </trkpt>
      <trkpt lat="44.05346" lon="5.98053">
        <ele>444.995789</ele>
        <time>2013-05-14T12:52:38Z</time>
      </trkpt>
      <trkpt lat="44.05316" lon="5.98009">
        <ele>444.432892</ele>
        <time>2013-05-14T12:52:54Z</time>
      </trkpt>
      <trkpt lat="44.05295" lon="5.9795">
        <ele>444.499146</ele>
        <time>2013-05-14T12:53:10Z</time>
      </trkpt>
      <trkpt lat="44.05278" lon="5.979">
        <ele>444.765015</ele>
        <time>2013-05-14T12:53:23Z</time>
      </trkpt>
      <trkpt lat="44.05258" lon="5.9785">
        <ele>445.424927</ele>
        <time>2013-05-14T12:53:37Z</time>
      </trkpt>
      <trkpt lat="44.05237" lon="5.97801">
        <ele>446.328339</ele>
        <time>2013-05-14T12:53:51Z</time>
      </trkpt>
      <trkpt lat="44.05198" lon="5.97761">
        <ele>446.023743</ele>
        <time>2013-05-14T12:54:07Z</time>
      </trkpt>
      <trkpt lat="44.05172" lon="5.97744">
        <ele>445.720367</ele>
        <time>2013-05-14T12:54:21Z</time>
      </trkpt>
      <trkpt lat="44.05169" lon="5.97742">
        <ele>445.696411</ele>
        <time>2013-05-14T12:54:49Z</time>
      </trkpt>
      <trkpt lat="44.0517" lon="5.97746">
        <ele>445.649994</ele>
        <time>2013-05-14T12:55:13Z</time>
      </trkpt>
      <trkpt lat="44.05167" lon="5.9775">
        <ele>445.554077</ele>
        <time>2013-05-14T12:55:18Z</time>
      </trkpt>
      <trkpt lat="44.05146" lon="5.97776">
        <ele>445.094177</ele>
        <time>2013-05-14T12:55:29Z</time>
      </trkpt>
      <trkpt lat="44.05119" lon="5.97796">
        <ele>444.96994</ele>
        <time>2013-05-14T12:55:39Z</time>
      </trkpt>
      <trkpt lat="44.051" lon="5.97804">
        <ele>444.939392</ele>
        <time>2013-05-14T12:55:48Z</time>
      </trkpt>
      <trkpt lat="44.05095" lon="5.97807">
        <ele>444.952026</ele>
        <time>2013-05-14T12:56:01Z</time>
      </trkpt>
      <trkpt lat="44.0507" lon="5.97826">
        <ele>445</ele>
        <time>2013-05-14T12:56:12Z</time>
      </trkpt>
      <trkpt lat="44.05038" lon="5.97841">
        <ele>444.948639</ele>
        <time>2013-05-14T12:56:22Z</time>
      </trkpt>
      <trkpt lat="44.05033" lon="5.97838">
        <ele>444.869202</ele>
        <time>2013-05-14T12:56:24Z</time>
      </trkpt>
      <trkpt lat="44.05032" lon="5.97835">
        <ele>444.854889</ele>
        <time>2013-05-14T12:56:25Z</time>
      </trkpt>
      <trkpt lat="44.05031" lon="5.97831">
        <ele>444.843964</ele>
        <time>2013-05-14T12:56:26Z</time>
      </trkpt>
      <trkpt lat="44.05016" lon="5.97785">
        <ele>445.026245</ele>
        <time>2013-05-14T12:56:38Z</time>
      </trkpt>
      <trkpt lat="44.04995" lon="5.97729">
        <ele>445.815002</ele>
        <time>2013-05-14T12:56:52Z</time>
      </trkpt>
      <trkpt lat="44.04976" lon="5.97674">
        <ele>445.872711</ele>
        <time>2013-05-14T12:57:06Z</time>
      </trkpt>
      <trkpt lat="44.04957" lon="5.9762">
        <ele>445.962494</ele>
        <time>2013-05-14T12:57:21Z</time>
      </trkpt>
      <trkpt lat="44.04937" lon="5.97558">
        <ele>444.195435</ele>
        <time>2013-05-14T12:57:38Z</time>
      </trkpt>
      <trkpt lat="44.04919" lon="5.97506">
        <ele>443.080383</ele>
        <time>2013-05-14T12:57:53Z</time>
      </trkpt>
      <trkpt lat="44.04901" lon="5.97451">
        <ele>441.960236</ele>
        <time>2013-05-14T12:58:09Z</time>
      </trkpt>
      <trkpt lat="44.04881" lon="5.97388">
        <ele>441.255005</ele>
        <time>2013-05-14T12:58:25Z</time>
      </trkpt>
      <trkpt lat="44.04899" lon="5.97358">
        <ele>442.015015</ele>
        <time>2013-05-14T12:58:35Z</time>
      </trkpt>
      <trkpt lat="44.04899" lon="5.97354">
        <ele>442.01001</ele>
        <time>2013-05-14T12:58:36Z</time>
      </trkpt>
      <trkpt lat="44.04898" lon="5.97351">
        <ele>441.945007</ele>
        <time>2013-05-14T12:58:37Z</time>
      </trkpt>
      <trkpt lat="44.04896" lon="5.97348">
        <ele>441.859985</ele>
        <time>2013-05-14T12:58:38Z</time>
      </trkpt>
      <trkpt lat="44.04894" lon="5.97344">
        <ele>441.774994</ele>
        <time>2013-05-14T12:58:39Z</time>
      </trkpt>
      <trkpt lat="44.04893" lon="5.97341">
        <ele>441.688904</ele>
        <time>2013-05-14T12:58:40Z</time>
      </trkpt>
      <trkpt lat="44.04887" lon="5.97293">
        <ele>441.22287</ele>
        <time>2013-05-14T12:58:52Z</time>
      </trkpt>
      <trkpt lat="44.04912" lon="5.97269">
        <ele>441.061737</ele>
        <time>2013-05-14T12:59:02Z</time>
      </trkpt>
      <trkpt lat="44.04947" lon="5.97252">
        <ele>440</ele>
        <time>2013-05-14T12:59:16Z</time>
      </trkpt>
      <trkpt lat="44.04967" lon="5.97244">
        <ele>439.700287</ele>
        <time>2013-05-14T12:59:27Z</time>
      </trkpt>
      <trkpt lat="44.04967" lon="5.97246">
        <ele>439.74234</ele>
        <time>2013-05-14T12:59:28Z</time>
      </trkpt>
      <trkpt lat="44.04969" lon="5.97248">
        <ele>439.837769</ele>
        <time>2013-05-14T12:59:30Z</time>
      </trkpt>
      <trkpt lat="44.0497" lon="5.9725">
        <ele>439.888336</ele>
        <time>2013-05-14T12:59:31Z</time>
      </trkpt>
      <trkpt lat="44.0498" lon="5.9728">
        <ele>440.609894</ele>
        <time>2013-05-14T12:59:42Z</time>
      </trkpt>
      <trkpt lat="44.04983" lon="5.9729">
        <ele>440.751251</ele>
        <time>2013-05-14T12:59:45Z</time>
      </trkpt>
      <trkpt lat="44.05001" lon="5.97336">
        <ele>441.038757</ele>
        <time>2013-05-14T12:59:59Z</time>
      </trkpt>
      <trkpt lat="44.05019" lon="5.9738">
        <ele>441.30249</ele>
        <time>2013-05-14T13:00:11Z</time>
      </trkpt>
      <trkpt lat="44.05034" lon="5.97419">
        <ele>441.549988</ele>
        <time>2013-05-14T13:00:23Z</time>
      </trkpt>
      <trkpt lat="44.05034" lon="5.97421">
        <ele>441.566254</ele>
        <time>2013-05-14T13:00:24Z</time>
      </trkpt>
      <trkpt lat="44.05031" lon="5.97428">
        <ele>441.766235</ele>
        <time>2013-05-14T13:00:28Z</time>
      </trkpt>
      <trkpt lat="44.05032" lon="5.9744">
        <ele>441.910004</ele>
        <time>2013-05-14T13:00:33Z</time>
      </trkpt>
      <trkpt lat="44.05033" lon="5.97444">
        <ele>441.94751</ele>
        <time>2013-05-14T13:00:35Z</time>
      </trkpt>
      <trkpt lat="44.05039" lon="5.97459">
        <ele>442.03125</ele>
        <time>2013-05-14T13:00:41Z</time>
      </trkpt>
      <trkpt lat="44.05054" lon="5.97501">
        <ele>442.336243</ele>
        <time>2013-05-14T13:00:56Z</time>
      </trkpt>
      <trkpt lat="44.05063" lon="5.97533">
        <ele>442.613739</ele>
        <time>2013-05-14T13:01:06Z</time>
      </trkpt>
      <trkpt lat="44.05072" lon="5.97538">
        <ele>442.476257</ele>
        <time>2013-05-14T13:01:11Z</time>
      </trkpt>
      <trkpt lat="44.05079" lon="5.97555">
        <ele>442.797516</ele>
        <time>2013-05-14T13:01:18Z</time>
      </trkpt>
      <trkpt lat="44.05085" lon="5.97571">
        <ele>443.142487</ele>
        <time>2013-05-14T13:01:24Z</time>
      </trkpt>
      <trkpt lat="44.05085" lon="5.97574">
        <ele>443.255005</ele>
        <time>2013-05-14T13:01:25Z</time>
      </trkpt>
      <trkpt lat="44.05084" lon="5.97577">
        <ele>443.367493</ele>
        <time>2013-05-14T13:01:26Z</time>
      </trkpt>
      <trkpt lat="44.05082" lon="5.97579">
        <ele>443.472504</ele>
        <time>2013-05-14T13:01:27Z</time>
      </trkpt>
      <trkpt lat="44.0508" lon="5.9758">
        <ele>443.57251</ele>
        <time>2013-05-14T13:01:28Z</time>
      </trkpt>
      <trkpt lat="44.05078" lon="5.97582">
        <ele>443.670013</ele>
        <time>2013-05-14T13:01:29Z</time>
      </trkpt>
      <trkpt lat="44.05045" lon="5.97602">
        <ele>445.093506</ele>
        <time>2013-05-14T13:01:43Z</time>
      </trkpt>
      <trkpt lat="44.05016" lon="5.97627">
        <ele>445.838745</ele>
        <time>2013-05-14T13:01:56Z</time>
      </trkpt>
      <trkpt lat="44.05017" lon="5.97646">
        <ele>445.912476</ele>
        <time>2013-05-14T13:02:02Z</time>
      </trkpt>
      <trkpt lat="44.05019" lon="5.97647">
        <ele>445.911407</ele>
        <time>2013-05-14T13:02:03Z</time>
      </trkpt>
      <trkpt lat="44.05021" lon="5.97648">
        <ele>445.90918</ele>
        <time>2013-05-14T13:02:04Z</time>
      </trkpt>
      <trkpt lat="44.05023" lon="5.9765">
        <ele>445.905823</ele>
        <time>2013-05-14T13:02:05Z</time>
      </trkpt>
      <trkpt lat="44.05025" lon="5.9765">
        <ele>445.898926</ele>
        <time>2013-05-14T13:02:06Z</time>
      </trkpt>
      <trkpt lat="44.05027" lon="5.97651">
        <ele>445.890991</ele>
        <time>2013-05-14T13:02:07Z</time>
      </trkpt>
      <trkpt lat="44.0503" lon="5.97651">
        <ele>445.880768</ele>
        <time>2013-05-14T13:02:08Z</time>
      </trkpt>
      <trkpt lat="44.05063" lon="5.97653">
        <ele>445.44751</ele>
        <time>2013-05-14T13:02:22Z</time>
      </trkpt>
      <trkpt lat="44.051" lon="5.97681">
        <ele>445</ele>
        <time>2013-05-14T13:02:39Z</time>
      </trkpt>
      <trkpt lat="44.05137" lon="5.9771">
        <ele>445.057495</ele>
        <time>2013-05-14T13:02:57Z</time>
      </trkpt>
      <trkpt lat="44.05141" lon="5.97712">
        <ele>445.144989</ele>
        <time>2013-05-14T13:02:59Z</time>
      </trkpt>
      <trkpt lat="44.05143" lon="5.97712">
        <ele>445.190002</ele>
        <time>2013-05-14T13:03:00Z</time>
      </trkpt>
      <trkpt lat="44.05145" lon="5.97713">
        <ele>445.234985</ele>
        <time>2013-05-14T13:03:01Z</time>
      </trkpt>
      <trkpt lat="44.05147" lon="5.97712">
        <ele>445.274994</ele>
        <time>2013-05-14T13:03:02Z</time>
      </trkpt>
      <trkpt lat="44.05149" lon="5.97712">
        <ele>445.32251</ele>
        <time>2013-05-14T13:03:03Z</time>
      </trkpt>
      <trkpt lat="44.05152" lon="5.97711">
        <ele>445.375</ele>
        <time>2013-05-14T13:03:04Z</time>
      </trkpt>
      <trkpt lat="44.05154" lon="5.97711">
        <ele>445.424988</ele>
        <time>2013-05-14T13:03:05Z</time>
      </trkpt>
      <trkpt lat="44.05183" lon="5.97693">
        <ele>446.049988</ele>
        <time>2013-05-14T13:03:19Z</time>
      </trkpt>
      <trkpt lat="44.05185" lon="5.97678">
        <ele>446.095001</ele>
        <time>2013-05-14T13:03:24Z</time>
      </trkpt>
      <trkpt lat="44.05189" lon="5.97664">
        <ele>446.032501</ele>
        <time>2013-05-14T13:03:29Z</time>
      </trkpt>
      <trkpt lat="44.05192" lon="5.97659">
        <ele>445.994995</ele>
        <time>2013-05-14T13:03:31Z</time>
      </trkpt>
      <trkpt lat="44.05193" lon="5.97642">
        <ele>445.753754</ele>
        <time>2013-05-14T13:03:37Z</time>
      </trkpt>
      <trkpt lat="44.05195" lon="5.97638">
        <ele>445.735016</ele>
        <time>2013-05-14T13:03:39Z</time>
      </trkpt>
      <trkpt lat="44.05195" lon="5.97634">
        <ele>445.66626</ele>
        <time>2013-05-14T13:03:41Z</time>
      </trkpt>
      <trkpt lat="44.05191" lon="5.97623">
        <ele>445.376251</ele>
        <time>2013-05-14T13:03:46Z</time>
      </trkpt>
      <trkpt lat="44.05182" lon="5.97599">
        <ele>444.605011</ele>
        <time>2013-05-14T13:03:54Z</time>
      </trkpt>
      <trkpt lat="44.05181" lon="5.97583">
        <ele>444.087494</ele>
        <time>2013-05-14T13:03:59Z</time>
      </trkpt>
      <trkpt lat="44.05178" lon="5.97577">
        <ele>443.804993</ele>
        <time>2013-05-14T13:04:01Z</time>
      </trkpt>
      <trkpt lat="44.05188" lon="5.97561">
        <ele>443.53772</ele>
        <time>2013-05-14T13:04:08Z</time>
      </trkpt>
      <trkpt lat="44.05222" lon="5.9754">
        <ele>444.467499</ele>
        <time>2013-05-14T13:04:21Z</time>
      </trkpt>
      <trkpt lat="44.05249" lon="5.97522">
        <ele>445.324982</ele>
        <time>2013-05-14T13:04:31Z</time>
      </trkpt>
      <trkpt lat="44.05267" lon="5.97499">
        <ele>445.711243</ele>
        <time>2013-05-14T13:04:40Z</time>
      </trkpt>
      <trkpt lat="44.05269" lon="5.97497">
        <ele>445.748749</ele>
        <time>2013-05-14T13:04:41Z</time>
      </trkpt>
      <trkpt lat="44.05278" lon="5.97495">
        <ele>446.070007</ele>
        <time>2013-05-14T13:04:46Z</time>
      </trkpt>
      <trkpt lat="44.05287" lon="5.97487">
        <ele>446.147522</ele>
        <time>2013-05-14T13:04:51Z</time>
      </trkpt>
      <trkpt lat="44.05291" lon="5.97486">
        <ele>446.218201</ele>
        <time>2013-05-14T13:04:53Z</time>
      </trkpt>
      <trkpt lat="44.05293" lon="5.97485">
        <ele>446.262451</ele>
        <time>2013-05-14T13:04:54Z</time>
      </trkpt>
      <trkpt lat="44.05319" lon="5.97473">
        <ele>446.88913</ele>
        <time>2013-05-14T13:05:05Z</time>
      </trkpt>
      <trkpt lat="44.05336" lon="5.97459">
        <ele>447.287506</ele>
        <time>2013-05-14T13:05:13Z</time>
      </trkpt>
      <trkpt lat="44.05338" lon="5.9746">
        <ele>447.32251</ele>
        <time>2013-05-14T13:05:14Z</time>
      </trkpt>
      <trkpt lat="44.05339" lon="5.97462">
        <ele>447.357513</ele>
        <time>2013-05-14T13:05:15Z</time>
      </trkpt>
      <trkpt lat="44.0534" lon="5.97465">
        <ele>447.38501</ele>
        <time>2013-05-14T13:05:16Z</time>
      </trkpt>
      <trkpt lat="44.05343" lon="5.97467">
        <ele>447.4375</ele>
        <time>2013-05-14T13:05:17Z</time>
      </trkpt>
      <trkpt lat="44.05345" lon="5.97467">
        <ele>447.48999</ele>
        <time>2013-05-14T13:05:18Z</time>
      </trkpt>
      <trkpt lat="44.05348" lon="5.97467">
        <ele>447.55249</ele>
        <time>2013-05-14T13:05:19Z</time>
      </trkpt>
      <trkpt lat="44.05351" lon="5.97466">
        <ele>447.612488</ele>
        <time>2013-05-14T13:05:20Z</time>
      </trkpt>
      <trkpt lat="44.05354" lon="5.97464">
        <ele>447.6875</ele>
        <time>2013-05-14T13:05:21Z</time>
      </trkpt>
      <trkpt lat="44.05359" lon="5.97457">
        <ele>447.790009</ele>
        <time>2013-05-14T13:05:23Z</time>
      </trkpt>
      <trkpt lat="44.05361" lon="5.97451">
        <ele>447.82251</ele>
        <time>2013-05-14T13:05:26Z</time>
      </trkpt>
      <trkpt lat="44.05369" lon="5.97434">
        <ele>448.005005</ele>
        <time>2013-05-14T13:05:34Z</time>
      </trkpt>
      <trkpt lat="44.05377" lon="5.97412">
        <ele>448.167511</ele>
        <time>2013-05-14T13:05:44Z</time>
      </trkpt>
      <trkpt lat="44.05375" lon="5.974">
        <ele>448.107513</ele>
        <time>2013-05-14T13:05:48Z</time>
      </trkpt>
      <trkpt lat="44.05367" lon="5.9739">
        <ele>447.917511</ele>
        <time>2013-05-14T13:05:52Z</time>
      </trkpt>
      <trkpt lat="44.05364" lon="5.97373">
        <ele>447.852509</ele>
        <time>2013-05-14T13:05:58Z</time>
      </trkpt>
      <trkpt lat="44.05362" lon="5.97365">
        <ele>447.795013</ele>
        <time>2013-05-14T13:06:01Z</time>
      </trkpt>
      <trkpt lat="44.05352" lon="5.97344">
        <ele>447.559998</ele>
        <time>2013-05-14T13:06:09Z</time>
      </trkpt>
      <trkpt lat="44.05352" lon="5.97334">
        <ele>447.557495</ele>
        <time>2013-05-14T13:06:13Z</time>
      </trkpt>
      <trkpt lat="44.05348" lon="5.97317">
        <ele>447.454987</ele>
        <time>2013-05-14T13:06:19Z</time>
      </trkpt>
      <trkpt lat="44.0534" lon="5.97296">
        <ele>447.25</ele>
        <time>2013-05-14T13:06:26Z</time>
      </trkpt>
      <trkpt lat="44.05337" lon="5.97259">
        <ele>447.149994</ele>
        <time>2013-05-14T13:06:36Z</time>
      </trkpt>
      <trkpt lat="44.05318" lon="5.97238">
        <ele>446.7966</ele>
        <time>2013-05-14T13:06:45Z</time>
      </trkpt>
      <trkpt lat="44.05312" lon="5.97219">
        <ele>446.811127</ele>
        <time>2013-05-14T13:06:53Z</time>
      </trkpt>
      <trkpt lat="44.05299" lon="5.97202">
        <ele>446.445374</ele>
        <time>2013-05-14T13:07:02Z</time>
      </trkpt>
      <trkpt lat="44.05292" lon="5.97193">
        <ele>446.183472</ele>
        <time>2013-05-14T13:07:06Z</time>
      </trkpt>
      <trkpt lat="44.05276" lon="5.9719">
        <ele>445.757507</ele>
        <time>2013-05-14T13:07:12Z</time>
      </trkpt>
      <trkpt lat="44.05265" lon="5.97177">
        <ele>445.477905</ele>
        <time>2013-05-14T13:07:19Z</time>
      </trkpt>
      <trkpt lat="44.05264" lon="5.97174">
        <ele>445.42688</ele>
        <time>2013-05-14T13:07:20Z</time>
      </trkpt>
      <trkpt lat="44.05263" lon="5.97171">
        <ele>445.387543</ele>
        <time>2013-05-14T13:07:21Z</time>
      </trkpt>
      <trkpt lat="44.05255" lon="5.97131">
        <ele>444.677216</ele>
        <time>2013-05-14T13:07:32Z</time>
      </trkpt>
      <trkpt lat="44.05252" lon="5.97121">
        <ele>444.392456</ele>
        <time>2013-05-14T13:07:35Z</time>
      </trkpt>
      <trkpt lat="44.05251" lon="5.97117">
        <ele>444.331482</ele>
        <time>2013-05-14T13:07:36Z</time>
      </trkpt>
      <trkpt lat="44.05252" lon="5.97113">
        <ele>444.304993</ele>
        <time>2013-05-14T13:07:37Z</time>
      </trkpt>
      <trkpt lat="44.05252" lon="5.97109">
        <ele>444.295013</ele>
        <time>2013-05-14T13:07:38Z</time>
      </trkpt>
      <trkpt lat="44.05251" lon="5.97105">
        <ele>444.265015</ele>
        <time>2013-05-14T13:07:39Z</time>
      </trkpt>
      <trkpt lat="44.0525" lon="5.971">
        <ele>444.214996</ele>
        <time>2013-05-14T13:07:40Z</time>
      </trkpt>
      <trkpt lat="44.05248" lon="5.97096">
        <ele>444.130005</ele>
        <time>2013-05-14T13:07:41Z</time>
      </trkpt>
      <trkpt lat="44.05246" lon="5.97092">
        <ele>444.029999</ele>
        <time>2013-05-14T13:07:42Z</time>
      </trkpt>
      <trkpt lat="44.05244" lon="5.97089">
        <ele>443.909332</ele>
        <time>2013-05-14T13:07:43Z</time>
      </trkpt>
      <trkpt lat="44.0523" lon="5.97066">
        <ele>443.008392</ele>
        <time>2013-05-14T13:07:49Z</time>
      </trkpt>
      <trkpt lat="44.05229" lon="5.9706">
        <ele>442.870789</ele>
        <time>2013-05-14T13:07:50Z</time>
      </trkpt>
      <trkpt lat="44.05228" lon="5.97054">
        <ele>442.753632</ele>
        <time>2013-05-14T13:07:51Z</time>
      </trkpt>
      <trkpt lat="44.05222" lon="5.97016">
        <ele>442.58728</ele>
        <time>2013-05-14T13:07:57Z</time>
      </trkpt>
      <trkpt lat="44.05223" lon="5.9694">
        <ele>444.334991</ele>
        <time>2013-05-14T13:08:12Z</time>
      </trkpt>
      <trkpt lat="44.05251" lon="5.9689">
        <ele>447.185577</ele>
        <time>2013-05-14T13:08:27Z</time>
      </trkpt>
      <trkpt lat="44.05287" lon="5.96855">
        <ele>449.152496</ele>
        <time>2013-05-14T13:08:42Z</time>
      </trkpt>
      <trkpt lat="44.05324" lon="5.96819">
        <ele>451.270172</ele>
        <time>2013-05-14T13:08:58Z</time>
      </trkpt>
      <trkpt lat="44.05337" lon="5.96808">
        <ele>451.859985</ele>
        <time>2013-05-14T13:09:04Z</time>
      </trkpt>
      <trkpt lat="44.05339" lon="5.96808">
        <ele>451.892487</ele>
        <time>2013-05-14T13:09:05Z</time>
      </trkpt>
      <trkpt lat="44.05342" lon="5.9681">
        <ele>451.907379</ele>
        <time>2013-05-14T13:09:06Z</time>
      </trkpt>
      <trkpt lat="44.05344" lon="5.96812">
        <ele>451.9263</ele>
        <time>2013-05-14T13:09:07Z</time>
      </trkpt>
      <trkpt lat="44.05348" lon="5.96817">
        <ele>452.04187</ele>
        <time>2013-05-14T13:09:09Z</time>
      </trkpt>
      <trkpt lat="44.05357" lon="5.96831">
        <ele>452.143005</ele>
        <time>2013-05-14T13:09:15Z</time>
      </trkpt>
      <trkpt lat="44.0536" lon="5.96847">
        <ele>451.919525</ele>
        <time>2013-05-14T13:09:20Z</time>
      </trkpt>
      <trkpt lat="44.05362" lon="5.96853">
        <ele>451.871094</ele>
        <time>2013-05-14T13:09:22Z</time>
      </trkpt>
      <trkpt lat="44.05363" lon="5.96854">
        <ele>451.87381</ele>
        <time>2013-05-14T13:09:23Z</time>
      </trkpt>
      <trkpt lat="44.05379" lon="5.9684">
        <ele>452.750671</ele>
        <time>2013-05-14T13:09:33Z</time>
      </trkpt>
      <trkpt lat="44.05398" lon="5.96817">
        <ele>454.242493</ele>
        <time>2013-05-14T13:09:44Z</time>
      </trkpt>
      <trkpt lat="44.05421" lon="5.96802">
        <ele>455.774994</ele>
        <time>2013-05-14T13:09:56Z</time>
      </trkpt>
      <trkpt lat="44.05433" lon="5.9678">
        <ele>457.01001</ele>
        <time>2013-05-14T13:10:06Z</time>
      </trkpt>
      <trkpt lat="44.05439" lon="5.96774">
        <ele>457.429993</ele>
        <time>2013-05-14T13:10:11Z</time>
      </trkpt>
      <trkpt lat="44.05443" lon="5.96758">
        <ele>458.13501</ele>
        <time>2013-05-14T13:10:21Z</time>
      </trkpt>
      <trkpt lat="44.05453" lon="5.96742">
        <ele>459.15155</ele>
        <time>2013-05-14T13:10:33Z</time>
      </trkpt>
      <trkpt lat="44.0546" lon="5.96727">
        <ele>460.072479</ele>
        <time>2013-05-14T13:10:39Z</time>
      </trkpt>
      <trkpt lat="44.05483" lon="5.96714">
        <ele>462.029144</ele>
        <time>2013-05-14T13:10:54Z</time>
      </trkpt>
      <trkpt lat="44.05502" lon="5.96695">
        <ele>463.780518</ele>
        <time>2013-05-14T13:11:05Z</time>
      </trkpt>
      <trkpt lat="44.05516" lon="5.96664">
        <ele>465.551147</ele>
        <time>2013-05-14T13:11:16Z</time>
      </trkpt>
      <trkpt lat="44.05533" lon="5.96657">
        <ele>466.394989</ele>
        <time>2013-05-14T13:11:27Z</time>
      </trkpt>
      <trkpt lat="44.05542" lon="5.96653">
        <ele>466.934998</ele>
        <time>2013-05-14T13:11:37Z</time>
      </trkpt>
      <trkpt lat="44.05545" lon="5.96658">
        <ele>466.959991</ele>
        <time>2013-05-14T13:11:52Z</time>
      </trkpt>
      <trkpt lat="44.05545" lon="5.96658">
        <ele>466.934998</ele>
        <time>2013-05-14T13:12:17Z</time>
      </trkpt>
      <trkpt lat="44.05549" lon="5.96647">
        <ele>467.450012</ele>
        <time>2013-05-14T13:12:36Z</time>
      </trkpt>
      <trkpt lat="44.05556" lon="5.96635">
        <ele>468.155457</ele>
        <time>2013-05-14T13:12:55Z</time>
      </trkpt>
      <trkpt lat="44.05565" lon="5.96632">
        <ele>468.664093</ele>
        <time>2013-05-14T13:13:04Z</time>
      </trkpt>
      <trkpt lat="44.05575" lon="5.96622">
        <ele>469.420258</ele>
        <time>2013-05-14T13:13:12Z</time>
      </trkpt>
      <trkpt lat="44.05583" lon="5.96606">
        <ele>470.122498</ele>
        <time>2013-05-14T13:13:22Z</time>
      </trkpt>
      <trkpt lat="44.05584" lon="5.966">
        <ele>470.375</ele>
        <time>2013-05-14T13:13:26Z</time>
      </trkpt>
      <trkpt lat="44.05599" lon="5.96581">
        <ele>471.304993</ele>
        <time>2013-05-14T13:13:38Z</time>
      </trkpt>
      <trkpt lat="44.05608" lon="5.96571">
        <ele>472.123901</ele>
        <time>2013-05-14T13:13:49Z</time>
      </trkpt>
      <trkpt lat="44.05615" lon="5.96562">
        <ele>473.193909</ele>
        <time>2013-05-14T13:14:02Z</time>
      </trkpt>
      <trkpt lat="44.05627" lon="5.96558">
        <ele>474.033234</ele>
        <time>2013-05-14T13:14:14Z</time>
      </trkpt>
      <trkpt lat="44.05644" lon="5.96554">
        <ele>475.112305</ele>
        <time>2013-05-14T13:14:26Z</time>
      </trkpt>
      <trkpt lat="44.05652" lon="5.96547">
        <ele>476.043396</ele>
        <time>2013-05-14T13:14:32Z</time>
      </trkpt>
      <trkpt lat="44.05656" lon="5.96545">
        <ele>476.410004</ele>
        <time>2013-05-14T13:14:35Z</time>
      </trkpt>
      <trkpt lat="44.05665" lon="5.96542">
        <ele>476.950348</ele>
        <time>2013-05-14T13:14:41Z</time>
      </trkpt>
      <trkpt lat="44.05676" lon="5.96535">
        <ele>478.008301</ele>
        <time>2013-05-14T13:14:50Z</time>
      </trkpt>
      <trkpt lat="44.05692" lon="5.96522">
        <ele>478.960999</ele>
        <time>2013-05-14T13:15:06Z</time>
      </trkpt>
      <trkpt lat="44.05695" lon="5.96516">
        <ele>479.784698</ele>
        <time>2013-05-14T13:15:10Z</time>
      </trkpt>
      <trkpt lat="44.05698" lon="5.96515">
        <ele>479.963837</ele>
        <time>2013-05-14T13:15:13Z</time>
      </trkpt>
      <trkpt lat="44.05714" lon="5.96519">
        <ele>479.274506</ele>
        <time>2013-05-14T13:15:21Z</time>
      </trkpt>
      <trkpt lat="44.05724" lon="5.96514">
        <ele>481.391998</ele>
        <time>2013-05-14T13:15:27Z</time>
      </trkpt>
      <trkpt lat="44.05733" lon="5.96507">
        <ele>483.09021</ele>
        <time>2013-05-14T13:15:32Z</time>
      </trkpt>
      <trkpt lat="44.05737" lon="5.96501">
        <ele>483.771515</ele>
        <time>2013-05-14T13:15:36Z</time>
      </trkpt>
      <trkpt lat="44.05743" lon="5.96491">
        <ele>484.420898</ele>
        <time>2013-05-14T13:15:46Z</time>
      </trkpt>
      <trkpt lat="44.05748" lon="5.96482">
        <ele>484.521057</ele>
        <time>2013-05-14T13:16:02Z</time>
      </trkpt>
      <trkpt lat="44.05749" lon="5.96473">
        <ele>484.447388</ele>
        <time>2013-05-14T13:16:07Z</time>
      </trkpt>
      <trkpt lat="44.05748" lon="5.96467">
        <ele>484.48175</ele>
        <time>2013-05-14T13:16:10Z</time>
      </trkpt>
      <trkpt lat="44.05749" lon="5.9646">
        <ele>484.470062</ele>
        <time>2013-05-14T13:16:14Z</time>
      </trkpt>
      <trkpt lat="44.05759" lon="5.96451">
        <ele>484.922882</ele>
        <time>2013-05-14T13:16:26Z</time>
      </trkpt>
      <trkpt lat="44.05759" lon="5.96438">
        <ele>487.020599</ele>
        <time>2013-05-14T13:16:40Z</time>
      </trkpt>
      <trkpt lat="44.05758" lon="5.96428">
        <ele>488.591522</ele>
        <time>2013-05-14T13:16:52Z</time>
      </trkpt>
      <trkpt lat="44.05768" lon="5.96434">
        <ele>487.741882</ele>
        <time>2013-05-14T13:17:05Z</time>
      </trkpt>
      <trkpt lat="44.05773" lon="5.96439">
        <ele>487.913147</ele>
        <time>2013-05-14T13:17:21Z</time>
      </trkpt>
      <trkpt lat="44.05773" lon="5.96437">
        <ele>488.008789</ele>
        <time>2013-05-14T13:17:43Z</time>
      </trkpt>
      <trkpt lat="44.05772" lon="5.96441">
        <ele>487.589447</ele>
        <time>2013-05-14T13:17:58Z</time>
      </trkpt>
      <trkpt lat="44.05775" lon="5.96441">
        <ele>488.000153</ele>
        <time>2013-05-14T13:18:00Z</time>
      </trkpt>
      <trkpt lat="44.05781" lon="5.96433">
        <ele>489.291565</ele>
        <time>2013-05-14T13:18:06Z</time>
      </trkpt>
      <trkpt lat="44.05799" lon="5.96414">
        <ele>490.184814</ele>
        <time>2013-05-14T13:18:23Z</time>
      </trkpt>
      <trkpt lat="44.05801" lon="5.96408">
        <ele>489.843079</ele>
        <time>2013-05-14T13:18:27Z</time>
      </trkpt>
      <trkpt lat="44.05824" lon="5.9639">
        <ele>491.888763</ele>
        <time>2013-05-14T13:18:47Z</time>
      </trkpt>
      <trkpt lat="44.05843" lon="5.96369">
        <ele>494.57251</ele>
        <time>2013-05-14T13:19:04Z</time>
      </trkpt>
      <trkpt lat="44.05864" lon="5.96354">
        <ele>496.384796</ele>
        <time>2013-05-14T13:19:20Z</time>
      </trkpt>
      <trkpt lat="44.0589" lon="5.96347">
        <ele>498.33606</ele>
        <time>2013-05-14T13:19:39Z</time>
      </trkpt>
      <trkpt lat="44.05915" lon="5.96344">
        <ele>501.974396</ele>
        <time>2013-05-14T13:19:54Z</time>
      </trkpt>
      <trkpt lat="44.05945" lon="5.96344">
        <ele>507.529755</ele>
        <time>2013-05-14T13:20:11Z</time>
      </trkpt>
      <trkpt lat="44.05971" lon="5.96362">
        <ele>510.133698</ele>
        <time>2013-05-14T13:20:26Z</time>
      </trkpt>
      <trkpt lat="44.05992" lon="5.96376">
        <ele>511.752655</ele>
        <time>2013-05-14T13:20:39Z</time>
      </trkpt>
      <trkpt lat="44.06001" lon="5.96377">
        <ele>511.471191</ele>
        <time>2013-05-14T13:20:45Z</time>
      </trkpt>
      <trkpt lat="44.06023" lon="5.96383">
        <ele>511.297241</ele>
        <time>2013-05-14T13:20:57Z</time>
      </trkpt>
      <trkpt lat="44.06049" lon="5.96396">
        <ele>512.114746</ele>
        <time>2013-05-14T13:21:13Z</time>
      </trkpt>
      <trkpt lat="44.06083" lon="5.96399">
        <ele>512.020996</ele>
        <time>2013-05-14T13:21:31Z</time>
      </trkpt>
      <trkpt lat="44.06114" lon="5.96401">
        <ele>512.276672</ele>
        <time>2013-05-14T13:21:46Z</time>
      </trkpt>
      <trkpt lat="44.06137" lon="5.964">
        <ele>512.513</ele>
        <time>2013-05-14T13:21:57Z</time>
      </trkpt>
      <trkpt lat="44.0616" lon="5.96405">
        <ele>513.467285</ele>
        <time>2013-05-14T13:22:09Z</time>
      </trkpt>
      <trkpt lat="44.0616" lon="5.96433">
        <ele>515.563721</ele>
        <time>2013-05-14T13:22:21Z</time>
      </trkpt>
      <trkpt lat="44.06163" lon="5.96441">
        <ele>516.276672</ele>
        <time>2013-05-14T13:22:25Z</time>
      </trkpt>
      <trkpt lat="44.06169" lon="5.96464">
        <ele>518.267273</ele>
        <time>2013-05-14T13:22:36Z</time>
      </trkpt>
      <trkpt lat="44.06186" lon="5.96478">
        <ele>520.115662</ele>
        <time>2013-05-14T13:22:50Z</time>
      </trkpt>
      <trkpt lat="44.06189" lon="5.96487">
        <ele>520.88269</ele>
        <time>2013-05-14T13:22:56Z</time>
      </trkpt>
      <trkpt lat="44.06213" lon="5.96502">
        <ele>524.070557</ele>
        <time>2013-05-14T13:23:09Z</time>
      </trkpt>
      <trkpt lat="44.06238" lon="5.96503">
        <ele>526.44165</ele>
        <time>2013-05-14T13:23:23Z</time>
      </trkpt>
      <trkpt lat="44.06252" lon="5.9651">
        <ele>528.427734</ele>
        <time>2013-05-14T13:23:32Z</time>
      </trkpt>
      <trkpt lat="44.06262" lon="5.96521">
        <ele>530.048706</ele>
        <time>2013-05-14T13:23:43Z</time>
      </trkpt>
      <trkpt lat="44.06266" lon="5.96523">
        <ele>530.435547</ele>
        <time>2013-05-14T13:23:46Z</time>
      </trkpt>
      <trkpt lat="44.06284" lon="5.96545">
        <ele>533.300659</ele>
        <time>2013-05-14T13:24:02Z</time>
      </trkpt>
      <trkpt lat="44.06303" lon="5.96558">
        <ele>535.167175</ele>
        <time>2013-05-14T13:24:17Z</time>
      </trkpt>
      <trkpt lat="44.06309" lon="5.96561">
        <ele>535.696655</ele>
        <time>2013-05-14T13:24:21Z</time>
      </trkpt>
      <trkpt lat="44.06314" lon="5.96563">
        <ele>536.058289</ele>
        <time>2013-05-14T13:24:24Z</time>
      </trkpt>
      <trkpt lat="44.06316" lon="5.96563">
        <ele>536.168884</ele>
        <time>2013-05-14T13:24:26Z</time>
      </trkpt>
      <trkpt lat="44.06327" lon="5.96565">
        <ele>536.672424</ele>
        <time>2013-05-14T13:24:32Z</time>
      </trkpt>
      <trkpt lat="44.06338" lon="5.96561">
        <ele>536.807068</ele>
        <time>2013-05-14T13:24:43Z</time>
      </trkpt>
      <trkpt lat="44.06344" lon="5.96565">
        <ele>537.30658</ele>
        <time>2013-05-14T13:24:49Z</time>
      </trkpt>
      <trkpt lat="44.06347" lon="5.9657">
        <ele>537.765259</ele>
        <time>2013-05-14T13:25:00Z</time>
      </trkpt>
      <trkpt lat="44.06349" lon="5.96572">
        <ele>537.983582</ele>
        <time>2013-05-14T13:25:15Z</time>
      </trkpt>
      <trkpt lat="44.06349" lon="5.96572">
        <ele>537.952332</ele>
        <time>2013-05-14T13:25:35Z</time>
      </trkpt>
      <trkpt lat="44.06348" lon="5.96574">
        <ele>538.034302</ele>
        <time>2013-05-14T13:25:37Z</time>
      </trkpt>
      <trkpt lat="44.06348" lon="5.96581">
        <ele>538.420654</ele>
        <time>2013-05-14T13:25:41Z</time>
      </trkpt>
      <trkpt lat="44.0635" lon="5.96619">
        <ele>540.356628</ele>
        <time>2013-05-14T13:25:59Z</time>
      </trkpt>
      <trkpt lat="44.06367" lon="5.96641">
        <ele>540.313782</ele>
        <time>2013-05-14T13:26:12Z</time>
      </trkpt>
      <trkpt lat="44.06388" lon="5.96663">
        <ele>539.374512</ele>
        <time>2013-05-14T13:26:23Z</time>
      </trkpt>
      <trkpt lat="44.06392" lon="5.96673">
        <ele>539.192017</ele>
        <time>2013-05-14T13:26:25Z</time>
      </trkpt>
      <trkpt lat="44.06395" lon="5.96678">
        <ele>539.006897</ele>
        <time>2013-05-14T13:26:26Z</time>
      </trkpt>
      <trkpt lat="44.06398" lon="5.96684">
        <ele>538.781067</ele>
        <time>2013-05-14T13:26:27Z</time>
      </trkpt>
      <trkpt lat="44.06407" lon="5.96701">
        <ele>537.782776</ele>
        <time>2013-05-14T13:26:30Z</time>
      </trkpt>
      <trkpt lat="44.0641" lon="5.96707">
        <ele>537.303162</ele>
        <time>2013-05-14T13:26:31Z</time>
      </trkpt>
      <trkpt lat="44.06414" lon="5.96713">
        <ele>536.810669</ele>
        <time>2013-05-14T13:26:32Z</time>
      </trkpt>
      <trkpt lat="44.06417" lon="5.96718">
        <ele>536.261047</ele>
        <time>2013-05-14T13:26:33Z</time>
      </trkpt>
      <trkpt lat="44.06421" lon="5.96725">
        <ele>535.673584</ele>
        <time>2013-05-14T13:26:34Z</time>
      </trkpt>
      <trkpt lat="44.06425" lon="5.96731">
        <ele>535.018494</ele>
        <time>2013-05-14T13:26:35Z</time>
      </trkpt>
      <trkpt lat="44.06429" lon="5.96736">
        <ele>534.4422</ele>
        <time>2013-05-14T13:26:36Z</time>
      </trkpt>
      <trkpt lat="44.06432" lon="5.96743">
        <ele>533.9505</ele>
        <time>2013-05-14T13:26:37Z</time>
      </trkpt>
      <trkpt lat="44.06438" lon="5.96755">
        <ele>532.997498</ele>
        <time>2013-05-14T13:26:39Z</time>
      </trkpt>
      <trkpt lat="44.06439" lon="5.96761">
        <ele>532.537476</ele>
        <time>2013-05-14T13:26:40Z</time>
      </trkpt>
      <trkpt lat="44.0644" lon="5.96768">
        <ele>532.211243</ele>
        <time>2013-05-14T13:26:41Z</time>
      </trkpt>
      <trkpt lat="44.06439" lon="5.96774">
        <ele>531.905029</ele>
        <time>2013-05-14T13:26:42Z</time>
      </trkpt>
      <trkpt lat="44.06439" lon="5.9678">
        <ele>531.602478</ele>
        <time>2013-05-14T13:26:43Z</time>
      </trkpt>
      <trkpt lat="44.06439" lon="5.96786">
        <ele>531.342468</ele>
        <time>2013-05-14T13:26:44Z</time>
      </trkpt>
      <trkpt lat="44.06437" lon="5.96792">
        <ele>531.14502</ele>
        <time>2013-05-14T13:26:45Z</time>
      </trkpt>
      <trkpt lat="44.06435" lon="5.96798">
        <ele>531.080017</ele>
        <time>2013-05-14T13:26:46Z</time>
      </trkpt>
      <trkpt lat="44.06431" lon="5.96802">
        <ele>531.196289</ele>
        <time>2013-05-14T13:26:47Z</time>
      </trkpt>
      <trkpt lat="44.06426" lon="5.96804">
        <ele>531.492493</ele>
        <time>2013-05-14T13:26:48Z</time>
      </trkpt>
      <trkpt lat="44.06421" lon="5.96804">
        <ele>531.878296</ele>
        <time>2013-05-14T13:26:49Z</time>
      </trkpt>
      <trkpt lat="44.06384" lon="5.96813">
        <ele>533.759705</ele>
        <time>2013-05-14T13:26:56Z</time>
      </trkpt>
      <trkpt lat="44.06378" lon="5.96816">
        <ele>533.879333</ele>
        <time>2013-05-14T13:26:57Z</time>
      </trkpt>
      <trkpt lat="44.06368" lon="5.96824">
        <ele>534.167664</ele>
        <time>2013-05-14T13:26:59Z</time>
      </trkpt>
      <trkpt lat="44.06363" lon="5.9683">
        <ele>534.06311</ele>
        <time>2013-05-14T13:27:00Z</time>
      </trkpt>
      <trkpt lat="44.0636" lon="5.96838">
        <ele>533.757629</ele>
        <time>2013-05-14T13:27:01Z</time>
      </trkpt>
      <trkpt lat="44.06358" lon="5.96846">
        <ele>533.314575</ele>
        <time>2013-05-14T13:27:02Z</time>
      </trkpt>
      <trkpt lat="44.06357" lon="5.96855">
        <ele>532.790771</ele>
        <time>2013-05-14T13:27:03Z</time>
      </trkpt>
      <trkpt lat="44.06355" lon="5.96864">
        <ele>532.22821</ele>
        <time>2013-05-14T13:27:04Z</time>
      </trkpt>
      <trkpt lat="44.06354" lon="5.96874">
        <ele>531.686157</ele>
        <time>2013-05-14T13:27:05Z</time>
      </trkpt>
      <trkpt lat="44.0635" lon="5.96892">
        <ele>530.71521</ele>
        <time>2013-05-14T13:27:07Z</time>
      </trkpt>
      <trkpt lat="44.06349" lon="5.96901">
        <ele>530.178284</ele>
        <time>2013-05-14T13:27:08Z</time>
      </trkpt>
      <trkpt lat="44.06347" lon="5.96918">
        <ele>529.117981</ele>
        <time>2013-05-14T13:27:10Z</time>
      </trkpt>
      <trkpt lat="44.06344" lon="5.96951">
        <ele>527.126648</ele>
        <time>2013-05-14T13:27:14Z</time>
      </trkpt>
      <trkpt lat="44.06343" lon="5.96958">
        <ele>526.772278</ele>
        <time>2013-05-14T13:27:15Z</time>
      </trkpt>
      <trkpt lat="44.06343" lon="5.96963">
        <ele>526.432495</ele>
        <time>2013-05-14T13:27:16Z</time>
      </trkpt>
      <trkpt lat="44.06343" lon="5.96968">
        <ele>526.075562</ele>
        <time>2013-05-14T13:27:17Z</time>
      </trkpt>
      <trkpt lat="44.06343" lon="5.96973">
        <ele>525.713928</ele>
        <time>2013-05-14T13:27:18Z</time>
      </trkpt>
      <trkpt lat="44.06351" lon="5.97012">
        <ele>523.805176</ele>
        <time>2013-05-14T13:27:29Z</time>
      </trkpt>
      <trkpt lat="44.06357" lon="5.97056">
        <ele>525.741699</ele>
        <time>2013-05-14T13:27:42Z</time>
      </trkpt>
      <trkpt lat="44.06362" lon="5.97118">
        <ele>531.203308</ele>
        <time>2013-05-14T13:27:58Z</time>
      </trkpt>
      <trkpt lat="44.06331" lon="5.97146">
        <ele>528.334778</ele>
        <time>2013-05-14T13:28:13Z</time>
      </trkpt>
      <trkpt lat="44.06322" lon="5.9718">
        <ele>529.225891</ele>
        <time>2013-05-14T13:28:25Z</time>
      </trkpt>
      <trkpt lat="44.0634" lon="5.97196">
        <ele>533.48999</ele>
        <time>2013-05-14T13:28:39Z</time>
      </trkpt>
      <trkpt lat="44.06342" lon="5.97174">
        <ele>533.498413</ele>
        <time>2013-05-14T13:28:53Z</time>
      </trkpt>
      <trkpt lat="44.0635" lon="5.97164">
        <ele>534.095642</ele>
        <time>2013-05-14T13:29:10Z</time>
      </trkpt>
      <trkpt lat="44.06365" lon="5.97166">
        <ele>537.773438</ele>
        <time>2013-05-14T13:29:18Z</time>
      </trkpt>
      <trkpt lat="44.0638" lon="5.9717">
        <ele>539.3703</ele>
        <time>2013-05-14T13:29:19Z</time>
      </trkpt>
      <trkpt lat="44.06396" lon="5.97177">
        <ele>540.710938</ele>
        <time>2013-05-14T13:29:20Z</time>
      </trkpt>
      <trkpt lat="44.06407" lon="5.97185">
        <ele>541.6203</ele>
        <time>2013-05-14T13:29:21Z</time>
      </trkpt>
      <trkpt lat="44.06384" lon="5.97195">
        <ele>541.135925</ele>
        <time>2013-05-14T13:29:22Z</time>
      </trkpt>
      <trkpt lat="44.06375" lon="5.97207">
        <ele>540.198425</ele>
        <time>2013-05-14T13:29:33Z</time>
      </trkpt>
      <trkpt lat="44.06364" lon="5.97216">
        <ele>538.502502</ele>
        <time>2013-05-14T13:29:43Z</time>
      </trkpt>
      <trkpt lat="44.06361" lon="5.9723">
        <ele>536.804993</ele>
        <time>2013-05-14T13:29:44Z</time>
      </trkpt>
      <trkpt lat="44.06357" lon="5.97249">
        <ele>534.724976</ele>
        <time>2013-05-14T13:29:45Z</time>
      </trkpt>
      <trkpt lat="44.06383" lon="5.97288">
        <ele>534.255005</ele>
        <time>2013-05-14T13:29:46Z</time>
      </trkpt>
      <trkpt lat="44.0641" lon="5.97329">
        <ele>536.144958</ele>
        <time>2013-05-14T13:29:47Z</time>
      </trkpt>
      <trkpt lat="44.06435" lon="5.9736">
        <ele>534.075012</ele>
        <time>2013-05-14T13:29:48Z</time>
      </trkpt>
      <trkpt lat="44.0646" lon="5.97365">
        <ele>535.097656</ele>
        <time>2013-05-14T13:29:49Z</time>
      </trkpt>
      <trkpt lat="44.06488" lon="5.97342">
        <ele>536.585144</ele>
        <time>2013-05-14T13:29:50Z</time>
      </trkpt>
      <trkpt lat="44.06508" lon="5.97314">
        <ele>540.195129</ele>
        <time>2013-05-14T13:30:03Z</time>
      </trkpt>
      <trkpt lat="44.06496" lon="5.97273">
        <ele>541.253479</ele>
        <time>2013-05-14T13:32:38Z</time>
      </trkpt>
      <trkpt lat="44.06496" lon="5.97267">
        <ele>541.307678</ele>
        <time>2013-05-14T13:32:39Z</time>
      </trkpt>
      <trkpt lat="44.06495" lon="5.9726">
        <ele>541.385986</ele>
        <time>2013-05-14T13:32:40Z</time>
      </trkpt>
      <trkpt lat="44.06493" lon="5.97228">
        <ele>540.343384</ele>
        <time>2013-05-14T13:32:44Z</time>
      </trkpt>
      <trkpt lat="44.06493" lon="5.9721">
        <ele>539.569763</ele>
        <time>2013-05-14T13:32:46Z</time>
      </trkpt>
      <trkpt lat="44.06499" lon="5.97164">
        <ele>535.083923</ele>
        <time>2013-05-14T13:32:50Z</time>
      </trkpt>
      <trkpt lat="44.06503" lon="5.97135">
        <ele>531.402893</ele>
        <time>2013-05-14T13:32:52Z</time>
      </trkpt>
      <trkpt lat="44.06508" lon="5.97109">
        <ele>525.663452</ele>
        <time>2013-05-14T13:32:54Z</time>
      </trkpt>
      <trkpt lat="44.06512" lon="5.97097">
        <ele>522.94873</ele>
        <time>2013-05-14T13:32:55Z</time>
      </trkpt>
      <trkpt lat="44.06518" lon="5.97087">
        <ele>520.460815</ele>
        <time>2013-05-14T13:32:56Z</time>
      </trkpt>
      <trkpt lat="44.06533" lon="5.97068">
        <ele>516.5177</ele>
        <time>2013-05-14T13:32:58Z</time>
      </trkpt>
      <trkpt lat="44.06538" lon="5.97056">
        <ele>515.787903</ele>
        <time>2013-05-14T13:32:59Z</time>
      </trkpt>
      <trkpt lat="44.0654" lon="5.97042">
        <ele>515.287476</ele>
        <time>2013-05-14T13:33:00Z</time>
      </trkpt>
      <trkpt lat="44.06542" lon="5.97013">
        <ele>514.513733</ele>
        <time>2013-05-14T13:33:02Z</time>
      </trkpt>
      <trkpt lat="44.06546" lon="5.96998">
        <ele>514.779968</ele>
        <time>2013-05-14T13:33:03Z</time>
      </trkpt>
      <trkpt lat="44.06549" lon="5.96984">
        <ele>515.075012</ele>
        <time>2013-05-14T13:33:04Z</time>
      </trkpt>
      <trkpt lat="44.06554" lon="5.96971">
        <ele>515.33252</ele>
        <time>2013-05-14T13:33:05Z</time>
      </trkpt>
      <trkpt lat="44.06574" lon="5.96916">
        <ele>517.330383</ele>
        <time>2013-05-14T13:33:10Z</time>
      </trkpt>
      <trkpt lat="44.06575" lon="5.96906">
        <ele>517.73999</ele>
        <time>2013-05-14T13:33:11Z</time>
      </trkpt>
      <trkpt lat="44.06574" lon="5.96896">
        <ele>518.063293</ele>
        <time>2013-05-14T13:33:12Z</time>
      </trkpt>
      <trkpt lat="44.06571" lon="5.9689">
        <ele>518.237183</ele>
        <time>2013-05-14T13:33:13Z</time>
      </trkpt>
      <trkpt lat="44.06566" lon="5.96885">
        <ele>518.315002</ele>
        <time>2013-05-14T13:33:14Z</time>
      </trkpt>
      <trkpt lat="44.06561" lon="5.96881">
        <ele>518.366272</ele>
        <time>2013-05-14T13:33:15Z</time>
      </trkpt>
      <trkpt lat="44.06553" lon="5.96874">
        <ele>518.908752</ele>
        <time>2013-05-14T13:33:17Z</time>
      </trkpt>
      <trkpt lat="44.0653" lon="5.96848">
        <ele>521.323914</ele>
        <time>2013-05-14T13:33:26Z</time>
      </trkpt>
      <trkpt lat="44.06502" lon="5.96834">
        <ele>523.537659</ele>
        <time>2013-05-14T13:33:37Z</time>
      </trkpt>
      <trkpt lat="44.06454" lon="5.96835">
        <ele>527.177979</ele>
        <time>2013-05-14T13:33:55Z</time>
      </trkpt>
      <trkpt lat="44.06408" lon="5.96829">
        <ele>530.963745</ele>
        <time>2013-05-14T13:34:13Z</time>
      </trkpt>
      <trkpt lat="44.06378" lon="5.96819">
        <ele>533.637634</ele>
        <time>2013-05-14T13:34:26Z</time>
      </trkpt>
      <trkpt lat="44.06377" lon="5.96816">
        <ele>533.983459</ele>
        <time>2013-05-14T13:34:37Z</time>
      </trkpt>
      <trkpt lat="44.06377" lon="5.96816">
        <ele>534.012085</ele>
        <time>2013-05-14T13:34:59Z</time>
      </trkpt>
      <trkpt lat="44.06379" lon="5.96816">
        <ele>533.866821</ele>
        <time>2013-05-14T13:35:05Z</time>
      </trkpt>
      <trkpt lat="44.0638" lon="5.96815">
        <ele>533.806274</ele>
        <time>2013-05-14T13:35:06Z</time>
      </trkpt>
      <trkpt lat="44.06382" lon="5.96815">
        <ele>533.722473</ele>
        <time>2013-05-14T13:35:07Z</time>
      </trkpt>
      <trkpt lat="44.06384" lon="5.96815">
        <ele>533.626221</ele>
        <time>2013-05-14T13:35:08Z</time>
      </trkpt>
      <trkpt lat="44.06385" lon="5.96815">
        <ele>533.517517</ele>
        <time>2013-05-14T13:35:09Z</time>
      </trkpt>
      <trkpt lat="44.06388" lon="5.96815">
        <ele>533.380005</ele>
        <time>2013-05-14T13:35:10Z</time>
      </trkpt>
      <trkpt lat="44.0639" lon="5.96815">
        <ele>533.248779</ele>
        <time>2013-05-14T13:35:11Z</time>
      </trkpt>
      <trkpt lat="44.06419" lon="5.96806">
        <ele>531.911011</ele>
        <time>2013-05-14T13:35:23Z</time>
      </trkpt>
      <trkpt lat="44.06454" lon="5.9679">
        <ele>529.80249</ele>
        <time>2013-05-14T13:35:37Z</time>
      </trkpt>
      <trkpt lat="44.06487" lon="5.96766">
        <ele>528.569763</ele>
        <time>2013-05-14T13:35:49Z</time>
      </trkpt>
      <trkpt lat="44.06521" lon="5.96709">
        <ele>531.05127</ele>
        <time>2013-05-14T13:36:04Z</time>
      </trkpt>
      <trkpt lat="44.06556" lon="5.96642">
        <ele>538.235291</ele>
        <time>2013-05-14T13:36:22Z</time>
      </trkpt>
      <trkpt lat="44.06565" lon="5.96604">
        <ele>542.7948</ele>
        <time>2013-05-14T13:36:32Z</time>
      </trkpt>
      <trkpt lat="44.06563" lon="5.966">
        <ele>543.085266</ele>
        <time>2013-05-14T13:36:33Z</time>
      </trkpt>
      <trkpt lat="44.0656" lon="5.96598">
        <ele>543.242554</ele>
        <time>2013-05-14T13:36:34Z</time>
      </trkpt>
      <trkpt lat="44.06515" lon="5.96558">
        <ele>545.159119</ele>
        <time>2013-05-14T13:36:51Z</time>
      </trkpt>
      <trkpt lat="44.0649" lon="5.96511">
        <ele>547.698608</ele>
        <time>2013-05-14T13:37:05Z</time>
      </trkpt>
      <trkpt lat="44.06515" lon="5.96492">
        <ele>552.059998</ele>
        <time>2013-05-14T13:37:16Z</time>
      </trkpt>
      <trkpt lat="44.06549" lon="5.96508">
        <ele>553.065613</ele>
        <time>2013-05-14T13:37:30Z</time>
      </trkpt>
      <trkpt lat="44.0659" lon="5.96519">
        <ele>554.68335</ele>
        <time>2013-05-14T13:37:46Z</time>
      </trkpt>
      <trkpt lat="44.06622" lon="5.96532">
        <ele>554.757935</ele>
        <time>2013-05-14T13:38:00Z</time>
      </trkpt>
      <trkpt lat="44.0666" lon="5.9655">
        <ele>554.113647</ele>
        <time>2013-05-14T13:38:15Z</time>
      </trkpt>
      <trkpt lat="44.067" lon="5.96547">
        <ele>556.972595</ele>
        <time>2013-05-14T13:38:30Z</time>
      </trkpt>
      <trkpt lat="44.06746" lon="5.9656">
        <ele>558.046143</ele>
        <time>2013-05-14T13:38:47Z</time>
      </trkpt>
      <trkpt lat="44.0678" lon="5.96582">
        <ele>558.58075</ele>
        <time>2013-05-14T13:39:00Z</time>
      </trkpt>
      <trkpt lat="44.06821" lon="5.96608">
        <ele>559.534241</ele>
        <time>2013-05-14T13:39:15Z</time>
      </trkpt>
      <trkpt lat="44.06858" lon="5.96633">
        <ele>560.530273</ele>
        <time>2013-05-14T13:39:30Z</time>
      </trkpt>
      <trkpt lat="44.06859" lon="5.96639">
        <ele>560.460571</ele>
        <time>2013-05-14T13:39:32Z</time>
      </trkpt>
      <trkpt lat="44.06859" lon="5.96642">
        <ele>560.414612</ele>
        <time>2013-05-14T13:39:33Z</time>
      </trkpt>
      <trkpt lat="44.06861" lon="5.96647">
        <ele>560.368042</ele>
        <time>2013-05-14T13:39:36Z</time>
      </trkpt>
      <trkpt lat="44.06863" lon="5.96649">
        <ele>560.421387</ele>
        <time>2013-05-14T13:39:38Z</time>
      </trkpt>
      <trkpt lat="44.06864" lon="5.96652">
        <ele>560.410278</ele>
        <time>2013-05-14T13:39:39Z</time>
      </trkpt>
      <trkpt lat="44.06865" lon="5.96654">
        <ele>560.377258</ele>
        <time>2013-05-14T13:39:40Z</time>
      </trkpt>
      <trkpt lat="44.06865" lon="5.96656">
        <ele>560.341736</ele>
        <time>2013-05-14T13:39:41Z</time>
      </trkpt>
      <trkpt lat="44.06866" lon="5.96659">
        <ele>560.255798</ele>
        <time>2013-05-14T13:39:42Z</time>
      </trkpt>
      <trkpt lat="44.06866" lon="5.96661">
        <ele>560.154541</ele>
        <time>2013-05-14T13:39:43Z</time>
      </trkpt>
      <trkpt lat="44.06867" lon="5.96663">
        <ele>560.065186</ele>
        <time>2013-05-14T13:39:44Z</time>
      </trkpt>
      <trkpt lat="44.06867" lon="5.96665">
        <ele>560.001648</ele>
        <time>2013-05-14T13:39:45Z</time>
      </trkpt>
      <trkpt lat="44.06871" lon="5.96675">
        <ele>559.639954</ele>
        <time>2013-05-14T13:39:56Z</time>
      </trkpt>
      <trkpt lat="44.06871" lon="5.96676">
        <ele>559.614502</ele>
        <time>2013-05-14T13:40:21Z</time>
      </trkpt>
      <trkpt lat="44.06874" lon="5.96678">
        <ele>559.652161</ele>
        <time>2013-05-14T13:40:45Z</time>
      </trkpt>
      <trkpt lat="44.06888" lon="5.96716">
        <ele>557.679871</ele>
        <time>2013-05-14T13:40:57Z</time>
      </trkpt>
      <trkpt lat="44.06898" lon="5.96733">
        <ele>555.058777</ele>
        <time>2013-05-14T13:41:02Z</time>
      </trkpt>
      <trkpt lat="44.06914" lon="5.96752">
        <ele>552.443542</ele>
        <time>2013-05-14T13:41:08Z</time>
      </trkpt>
      <trkpt lat="44.06917" lon="5.96756">
        <ele>552.144958</ele>
        <time>2013-05-14T13:41:09Z</time>
      </trkpt>
      <trkpt lat="44.0692" lon="5.9676">
        <ele>551.765015</ele>
        <time>2013-05-14T13:41:10Z</time>
      </trkpt>
      <trkpt lat="44.06933" lon="5.9679">
        <ele>547.963684</ele>
        <time>2013-05-14T13:41:17Z</time>
      </trkpt>
      <trkpt lat="44.06944" lon="5.96801">
        <ele>546.552734</ele>
        <time>2013-05-14T13:41:22Z</time>
      </trkpt>
      <trkpt lat="44.06947" lon="5.96801">
        <ele>546.527466</ele>
        <time>2013-05-14T13:41:23Z</time>
      </trkpt>
      <trkpt lat="44.06949" lon="5.96802">
        <ele>546.439697</ele>
        <time>2013-05-14T13:41:24Z</time>
      </trkpt>
      <trkpt lat="44.06952" lon="5.96804">
        <ele>546.286743</ele>
        <time>2013-05-14T13:41:25Z</time>
      </trkpt>
      <trkpt lat="44.06953" lon="5.96805">
        <ele>546.182617</ele>
        <time>2013-05-14T13:41:26Z</time>
      </trkpt>
      <trkpt lat="44.06954" lon="5.96806">
        <ele>546.105408</ele>
        <time>2013-05-14T13:41:27Z</time>
      </trkpt>
      <trkpt lat="44.06956" lon="5.96807">
        <ele>546.057007</ele>
        <time>2013-05-14T13:41:28Z</time>
      </trkpt>
      <trkpt lat="44.06957" lon="5.96807">
        <ele>546.055725</ele>
        <time>2013-05-14T13:41:29Z</time>
      </trkpt>
      <trkpt lat="44.06958" lon="5.96802">
        <ele>546.388916</ele>
        <time>2013-05-14T13:41:36Z</time>
      </trkpt>
      <trkpt lat="44.06962" lon="5.96803">
        <ele>546.32782</ele>
        <time>2013-05-14T13:41:47Z</time>
      </trkpt>
      <trkpt lat="44.06967" lon="5.96804">
        <ele>545.793274</ele>
        <time>2013-05-14T13:41:50Z</time>
      </trkpt>
      <trkpt lat="44.06968" lon="5.96806">
        <ele>545.382935</ele>
        <time>2013-05-14T13:41:51Z</time>
      </trkpt>
      <trkpt lat="44.0697" lon="5.96808">
        <ele>544.836487</ele>
        <time>2013-05-14T13:41:52Z</time>
      </trkpt>
      <trkpt lat="44.06973" lon="5.96811">
        <ele>544.158997</ele>
        <time>2013-05-14T13:41:53Z</time>
      </trkpt>
      <trkpt lat="44.06974" lon="5.96812">
        <ele>543.900024</ele>
        <time>2013-05-14T13:41:54Z</time>
      </trkpt>
      <trkpt lat="44.06991" lon="5.96832">
        <ele>540.427307</ele>
        <time>2013-05-14T13:42:04Z</time>
      </trkpt>
      <trkpt lat="44.06997" lon="5.96831">
        <ele>539.343628</ele>
        <time>2013-05-14T13:42:09Z</time>
      </trkpt>
      <trkpt lat="44.06998" lon="5.96829">
        <ele>539.14502</ele>
        <time>2013-05-14T13:42:10Z</time>
      </trkpt>
      <trkpt lat="44.07001" lon="5.96825">
        <ele>538.393127</ele>
        <time>2013-05-14T13:42:14Z</time>
      </trkpt>
      <trkpt lat="44.07003" lon="5.96824">
        <ele>537.817871</ele>
        <time>2013-05-14T13:42:26Z</time>
      </trkpt>
      <trkpt lat="44.07008" lon="5.96823">
        <ele>536.889221</ele>
        <time>2013-05-14T13:42:38Z</time>
      </trkpt>
      <trkpt lat="44.07022" lon="5.96819">
        <ele>532.267517</ele>
        <time>2013-05-14T13:42:46Z</time>
      </trkpt>
      <trkpt lat="44.07029" lon="5.96832">
        <ele>530.963745</ele>
        <time>2013-05-14T13:42:55Z</time>
      </trkpt>
      <trkpt lat="44.07029" lon="5.96835">
        <ele>531.141235</ele>
        <time>2013-05-14T13:48:12Z</time>
      </trkpt>
      <trkpt lat="44.07034" lon="5.96843">
        <ele>530.182495</ele>
        <time>2013-05-14T13:48:17Z</time>
      </trkpt>
      <trkpt lat="44.0704" lon="5.96853">
        <ele>529.006226</ele>
        <time>2013-05-14T13:48:22Z</time>
      </trkpt>
      <trkpt lat="44.07042" lon="5.96865">
        <ele>528.145386</ele>
        <time>2013-05-14T13:48:26Z</time>
      </trkpt>
      <trkpt lat="44.07044" lon="5.9687">
        <ele>527.675476</ele>
        <time>2013-05-14T13:48:29Z</time>
      </trkpt>
      <trkpt lat="44.07045" lon="5.96877">
        <ele>526.971008</ele>
        <time>2013-05-14T13:48:33Z</time>
      </trkpt>
      <trkpt lat="44.07046" lon="5.96899">
        <ele>526.47699</ele>
        <time>2013-05-14T13:48:46Z</time>
      </trkpt>
      <trkpt lat="44.07048" lon="5.96926">
        <ele>525.431091</ele>
        <time>2013-05-14T13:49:00Z</time>
      </trkpt>
      <trkpt lat="44.07049" lon="5.96935">
        <ele>524.987</ele>
        <time>2013-05-14T13:49:13Z</time>
      </trkpt>
      <trkpt lat="44.07051" lon="5.96937">
        <ele>524.745972</ele>
        <time>2013-05-14T13:49:29Z</time>
      </trkpt>
      <trkpt lat="44.07052" lon="5.96938">
        <ele>524.397949</ele>
        <time>2013-05-14T13:49:32Z</time>
      </trkpt>
      <trkpt lat="44.07065" lon="5.96958">
        <ele>522.212952</ele>
        <time>2013-05-14T13:49:44Z</time>
      </trkpt>
      <trkpt lat="44.07073" lon="5.9697">
        <ele>521.148132</ele>
        <time>2013-05-14T13:49:51Z</time>
      </trkpt>
      <trkpt lat="44.07077" lon="5.96976">
        <ele>520.815247</ele>
        <time>2013-05-14T13:49:53Z</time>
      </trkpt>
      <trkpt lat="44.07085" lon="5.96987">
        <ele>520.16748</ele>
        <time>2013-05-14T13:49:57Z</time>
      </trkpt>
      <trkpt lat="44.07096" lon="5.97004">
        <ele>519.975037</ele>
        <time>2013-05-14T13:50:01Z</time>
      </trkpt>
      <trkpt lat="44.071" lon="5.97011">
        <ele>519.88501</ele>
        <time>2013-05-14T13:50:03Z</time>
      </trkpt>
      <trkpt lat="44.07101" lon="5.97013">
        <ele>519.965027</ele>
        <time>2013-05-14T13:50:04Z</time>
      </trkpt>
      <trkpt lat="44.07103" lon="5.97016">
        <ele>519.94751</ele>
        <time>2013-05-14T13:50:06Z</time>
      </trkpt>
      <trkpt lat="44.07104" lon="5.97017">
        <ele>519.940002</ele>
        <time>2013-05-14T13:50:07Z</time>
      </trkpt>
      <trkpt lat="44.07105" lon="5.97022">
        <ele>520.049988</ele>
        <time>2013-05-14T13:50:09Z</time>
      </trkpt>
      <trkpt lat="44.07125" lon="5.97048">
        <ele>519.304993</ele>
        <time>2013-05-14T13:50:17Z</time>
      </trkpt>
      <trkpt lat="44.07137" lon="5.97071">
        <ele>518.054138</ele>
        <time>2013-05-14T13:50:25Z</time>
      </trkpt>
      <trkpt lat="44.0715" lon="5.97082">
        <ele>514.935547</ele>
        <time>2013-05-14T13:50:31Z</time>
      </trkpt>
      <trkpt lat="44.07152" lon="5.97082">
        <ele>514.445679</ele>
        <time>2013-05-14T13:50:32Z</time>
      </trkpt>
      <trkpt lat="44.07177" lon="5.97112">
        <ele>506.841431</ele>
        <time>2013-05-14T13:50:43Z</time>
      </trkpt>
      <trkpt lat="44.07179" lon="5.97116">
        <ele>506.21347</ele>
        <time>2013-05-14T13:50:44Z</time>
      </trkpt>
      <trkpt lat="44.07182" lon="5.97126">
        <ele>505.123627</ele>
        <time>2013-05-14T13:50:46Z</time>
      </trkpt>
      <trkpt lat="44.07188" lon="5.97141">
        <ele>503.10141</ele>
        <time>2013-05-14T13:50:49Z</time>
      </trkpt>
      <trkpt lat="44.07192" lon="5.97155">
        <ele>501.616241</ele>
        <time>2013-05-14T13:50:52Z</time>
      </trkpt>
      <trkpt lat="44.072" lon="5.97171">
        <ele>499.231415</ele>
        <time>2013-05-14T13:50:57Z</time>
      </trkpt>
      <trkpt lat="44.07205" lon="5.97182">
        <ele>497.873627</ele>
        <time>2013-05-14T13:51:01Z</time>
      </trkpt>
      <trkpt lat="44.07207" lon="5.97194">
        <ele>496.963409</ele>
        <time>2013-05-14T13:51:05Z</time>
      </trkpt>
      <trkpt lat="44.07208" lon="5.97201">
        <ele>496.562012</ele>
        <time>2013-05-14T13:51:07Z</time>
      </trkpt>
      <trkpt lat="44.07217" lon="5.97214">
        <ele>494.836884</ele>
        <time>2013-05-14T13:51:12Z</time>
      </trkpt>
      <trkpt lat="44.07226" lon="5.97223">
        <ele>492.995422</ele>
        <time>2013-05-14T13:51:16Z</time>
      </trkpt>
      <trkpt lat="44.07229" lon="5.97229">
        <ele>492.304688</ele>
        <time>2013-05-14T13:51:18Z</time>
      </trkpt>
      <trkpt lat="44.0723" lon="5.97231">
        <ele>492.014496</ele>
        <time>2013-05-14T13:51:19Z</time>
      </trkpt>
      <trkpt lat="44.07234" lon="5.97242">
        <ele>490.745361</ele>
        <time>2013-05-14T13:51:22Z</time>
      </trkpt>
      <trkpt lat="44.07238" lon="5.97252">
        <ele>488.463196</ele>
        <time>2013-05-14T13:51:25Z</time>
      </trkpt>
      <trkpt lat="44.0724" lon="5.9726">
        <ele>486.999573</ele>
        <time>2013-05-14T13:51:27Z</time>
      </trkpt>
      <trkpt lat="44.07249" lon="5.97272">
        <ele>484.102814</ele>
        <time>2013-05-14T13:51:32Z</time>
      </trkpt>
      <trkpt lat="44.07261" lon="5.97297">
        <ele>479.972534</ele>
        <time>2013-05-14T13:51:40Z</time>
      </trkpt>
      <trkpt lat="44.07271" lon="5.97318">
        <ele>478.32251</ele>
        <time>2013-05-14T13:51:48Z</time>
      </trkpt>
      <trkpt lat="44.07271" lon="5.9732">
        <ele>478.316071</ele>
        <time>2013-05-14T13:51:49Z</time>
      </trkpt>
      <trkpt lat="44.07268" lon="5.97328">
        <ele>478.246918</ele>
        <time>2013-05-14T13:52:03Z</time>
      </trkpt>
      <trkpt lat="44.07266" lon="5.97327">
        <ele>478.316345</ele>
        <time>2013-05-14T13:52:31Z</time>
      </trkpt>
      <trkpt lat="44.07264" lon="5.97328">
        <ele>478.2995</ele>
        <time>2013-05-14T13:52:38Z</time>
      </trkpt>
      <trkpt lat="44.07263" lon="5.97329">
        <ele>478.295502</ele>
        <time>2013-05-14T13:52:39Z</time>
      </trkpt>
      <trkpt lat="44.07232" lon="5.97345">
        <ele>478.004883</ele>
        <time>2013-05-14T13:52:52Z</time>
      </trkpt>
      <trkpt lat="44.07203" lon="5.97378">
        <ele>474.496002</ele>
        <time>2013-05-14T13:53:05Z</time>
      </trkpt>
      <trkpt lat="44.072" lon="5.97386">
        <ele>474.111664</ele>
        <time>2013-05-14T13:53:06Z</time>
      </trkpt>
      <trkpt lat="44.07197" lon="5.97394">
        <ele>473.576019</ele>
        <time>2013-05-14T13:53:07Z</time>
      </trkpt>
      <trkpt lat="44.07176" lon="5.97426">
        <ele>469.801117</ele>
        <time>2013-05-14T13:53:11Z</time>
      </trkpt>
      <trkpt lat="44.0717" lon="5.9743">
        <ele>469.110016</ele>
        <time>2013-05-14T13:53:12Z</time>
      </trkpt>
      <trkpt lat="44.07163" lon="5.97433">
        <ele>468.657654</ele>
        <time>2013-05-14T13:53:13Z</time>
      </trkpt>
      <trkpt lat="44.07149" lon="5.97435">
        <ele>467.7724</ele>
        <time>2013-05-14T13:53:15Z</time>
      </trkpt>
      <trkpt lat="44.07143" lon="5.97438">
        <ele>467.369568</ele>
        <time>2013-05-14T13:53:16Z</time>
      </trkpt>
      <trkpt lat="44.07138" lon="5.97443">
        <ele>467.007629</ele>
        <time>2013-05-14T13:53:17Z</time>
      </trkpt>
      <trkpt lat="44.07133" lon="5.97447">
        <ele>466.702637</ele>
        <time>2013-05-14T13:53:18Z</time>
      </trkpt>
      <trkpt lat="44.07129" lon="5.97451">
        <ele>466.448822</ele>
        <time>2013-05-14T13:53:19Z</time>
      </trkpt>
      <trkpt lat="44.07121" lon="5.97462">
        <ele>465.80658</ele>
        <time>2013-05-14T13:53:23Z</time>
      </trkpt>
      <trkpt lat="44.07115" lon="5.97473">
        <ele>465.433319</ele>
        <time>2013-05-14T13:53:27Z</time>
      </trkpt>
      <trkpt lat="44.0711" lon="5.97491">
        <ele>465.850189</ele>
        <time>2013-05-14T13:53:33Z</time>
      </trkpt>
      <trkpt lat="44.0711" lon="5.97494">
        <ele>466.098907</ele>
        <time>2013-05-14T13:53:34Z</time>
      </trkpt>
      <trkpt lat="44.07115" lon="5.97538">
        <ele>470.611877</ele>
        <time>2013-05-14T13:53:51Z</time>
      </trkpt>
      <trkpt lat="44.07123" lon="5.97562">
        <ele>473.612488</ele>
        <time>2013-05-14T13:54:02Z</time>
      </trkpt>
      <trkpt lat="44.07132" lon="5.97598">
        <ele>477.962494</ele>
        <time>2013-05-14T13:54:19Z</time>
      </trkpt>
      <trkpt lat="44.07136" lon="5.9762">
        <ele>480.759521</ele>
        <time>2013-05-14T13:54:31Z</time>
      </trkpt>
      <trkpt lat="44.07134" lon="5.97625">
        <ele>481.282715</ele>
        <time>2013-05-14T13:54:34Z</time>
      </trkpt>
      <trkpt lat="44.07134" lon="5.97629">
        <ele>481.66571</ele>
        <time>2013-05-14T13:54:48Z</time>
      </trkpt>
      <trkpt lat="44.07134" lon="5.9763">
        <ele>481.742493</ele>
        <time>2013-05-14T13:55:17Z</time>
      </trkpt>
      <trkpt lat="44.07133" lon="5.97632">
        <ele>482.059692</ele>
        <time>2013-05-14T13:55:43Z</time>
      </trkpt>
      <trkpt lat="44.07131" lon="5.97634">
        <ele>482.085297</ele>
        <time>2013-05-14T13:55:45Z</time>
      </trkpt>
      <trkpt lat="44.0713" lon="5.97635">
        <ele>482.139191</ele>
        <time>2013-05-14T13:55:46Z</time>
      </trkpt>
      <trkpt lat="44.07129" lon="5.97636">
        <ele>482.234894</ele>
        <time>2013-05-14T13:55:47Z</time>
      </trkpt>
      <trkpt lat="44.07127" lon="5.97638">
        <ele>482.332367</ele>
        <time>2013-05-14T13:55:48Z</time>
      </trkpt>
      <trkpt lat="44.07126" lon="5.9764">
        <ele>482.442352</ele>
        <time>2013-05-14T13:55:49Z</time>
      </trkpt>
      <trkpt lat="44.07124" lon="5.97642">
        <ele>482.566406</ele>
        <time>2013-05-14T13:55:50Z</time>
      </trkpt>
      <trkpt lat="44.07122" lon="5.97643">
        <ele>482.664764</ele>
        <time>2013-05-14T13:55:51Z</time>
      </trkpt>
      <trkpt lat="44.0712" lon="5.97645">
        <ele>482.72879</ele>
        <time>2013-05-14T13:55:52Z</time>
      </trkpt>
      <trkpt lat="44.07093" lon="5.97673">
        <ele>484.50882</ele>
        <time>2013-05-14T13:56:04Z</time>
      </trkpt>
      <trkpt lat="44.07077" lon="5.97676">
        <ele>483.451141</ele>
        <time>2013-05-14T13:56:08Z</time>
      </trkpt>
      <trkpt lat="44.07072" lon="5.97675">
        <ele>483.096069</ele>
        <time>2013-05-14T13:56:09Z</time>
      </trkpt>
      <trkpt lat="44.07067" lon="5.97674">
        <ele>482.306824</ele>
        <time>2013-05-14T13:56:10Z</time>
      </trkpt>
      <trkpt lat="44.07058" lon="5.97669">
        <ele>480.648285</ele>
        <time>2013-05-14T13:56:12Z</time>
      </trkpt>
      <trkpt lat="44.07054" lon="5.97667">
        <ele>479.791779</ele>
        <time>2013-05-14T13:56:13Z</time>
      </trkpt>
      <trkpt lat="44.07039" lon="5.97659">
        <ele>476.51001</ele>
        <time>2013-05-14T13:56:16Z</time>
      </trkpt>
      <trkpt lat="44.07029" lon="5.97654">
        <ele>474.407013</ele>
        <time>2013-05-14T13:56:18Z</time>
      </trkpt>
      <trkpt lat="44.07019" lon="5.97652">
        <ele>472.222504</ele>
        <time>2013-05-14T13:56:20Z</time>
      </trkpt>
      <trkpt lat="44.07013" lon="5.97652">
        <ele>471.25</ele>
        <time>2013-05-14T13:56:21Z</time>
      </trkpt>
      <trkpt lat="44.07008" lon="5.97653">
        <ele>470.376251</ele>
        <time>2013-05-14T13:56:22Z</time>
      </trkpt>
      <trkpt lat="44.07004" lon="5.97655">
        <ele>469.632507</ele>
        <time>2013-05-14T13:56:23Z</time>
      </trkpt>
      <trkpt lat="44.07" lon="5.97657">
        <ele>469.028748</ele>
        <time>2013-05-14T13:56:24Z</time>
      </trkpt>
      <trkpt lat="44.06996" lon="5.9766">
        <ele>468.57251</ele>
        <time>2013-05-14T13:56:25Z</time>
      </trkpt>
      <trkpt lat="44.06993" lon="5.97662">
        <ele>468.247498</ele>
        <time>2013-05-14T13:56:26Z</time>
      </trkpt>
      <trkpt lat="44.06992" lon="5.97665">
        <ele>468.069305</ele>
        <time>2013-05-14T13:56:27Z</time>
      </trkpt>
      <trkpt lat="44.06991" lon="5.97668">
        <ele>468.127899</ele>
        <time>2013-05-14T13:56:28Z</time>
      </trkpt>
      <trkpt lat="44.06992" lon="5.97672">
        <ele>468.372498</ele>
        <time>2013-05-14T13:56:29Z</time>
      </trkpt>
      <trkpt lat="44.06994" lon="5.97674">
        <ele>468.718201</ele>
        <time>2013-05-14T13:56:30Z</time>
      </trkpt>
      <trkpt lat="44.06996" lon="5.97674">
        <ele>468.995209</ele>
        <time>2013-05-14T13:56:31Z</time>
      </trkpt>
      <trkpt lat="44.06997" lon="5.97673">
        <ele>469.301575</ele>
        <time>2013-05-14T13:56:32Z</time>
      </trkpt>
      <trkpt lat="44.06999" lon="5.97673">
        <ele>469.630798</ele>
        <time>2013-05-14T13:56:33Z</time>
      </trkpt>
      <trkpt lat="44.07007" lon="5.9767">
        <ele>471.130402</ele>
        <time>2013-05-14T13:56:38Z</time>
      </trkpt>
      <trkpt lat="44.07018" lon="5.9767">
        <ele>473.221863</ele>
        <time>2013-05-14T13:56:46Z</time>
      </trkpt>
      <trkpt lat="44.07029" lon="5.97674">
        <ele>475.282013</ele>
        <time>2013-05-14T13:57:02Z</time>
      </trkpt>
      <trkpt lat="44.07029" lon="5.97673">
        <ele>475.3461</ele>
        <time>2013-05-14T13:57:25Z</time>
      </trkpt>
      <trkpt lat="44.07038" lon="5.97677">
        <ele>476.860321</ele>
        <time>2013-05-14T13:57:46Z</time>
      </trkpt>
      <trkpt lat="44.07058" lon="5.9769">
        <ele>480.518372</ele>
        <time>2013-05-14T13:57:59Z</time>
      </trkpt>
      <trkpt lat="44.0708" lon="5.97695">
        <ele>483.849945</ele>
        <time>2013-05-14T13:58:14Z</time>
      </trkpt>
      <trkpt lat="44.07103" lon="5.97702">
        <ele>485.933411</ele>
        <time>2013-05-14T13:58:30Z</time>
      </trkpt>
      <trkpt lat="44.07124" lon="5.97723">
        <ele>488.416107</ele>
        <time>2013-05-14T13:58:48Z</time>
      </trkpt>
      <trkpt lat="44.07126" lon="5.97728">
        <ele>488.782928</ele>
        <time>2013-05-14T13:58:51Z</time>
      </trkpt>
      <trkpt lat="44.0715" lon="5.97755">
        <ele>489.62796</ele>
        <time>2013-05-14T13:59:09Z</time>
      </trkpt>
      <trkpt lat="44.07174" lon="5.97783">
        <ele>490.766998</ele>
        <time>2013-05-14T13:59:26Z</time>
      </trkpt>
      <trkpt lat="44.07211" lon="5.97837">
        <ele>489.41626</ele>
        <time>2013-05-14T13:59:43Z</time>
      </trkpt>
      <trkpt lat="44.07253" lon="5.97893">
        <ele>488.083191</ele>
        <time>2013-05-14T13:59:59Z</time>
      </trkpt>
      <trkpt lat="44.07294" lon="5.97928">
        <ele>486.546478</ele>
        <time>2013-05-14T14:00:13Z</time>
      </trkpt>
      <trkpt lat="44.0731" lon="5.97948">
        <ele>490.308197</ele>
        <time>2013-05-14T14:00:25Z</time>
      </trkpt>
      <trkpt lat="44.07319" lon="5.97985">
        <ele>491.851898</ele>
        <time>2013-05-14T14:00:38Z</time>
      </trkpt>
      <trkpt lat="44.0734" lon="5.9802">
        <ele>496.400513</ele>
        <time>2013-05-14T14:00:53Z</time>
      </trkpt>
      <trkpt lat="44.07358" lon="5.98035">
        <ele>499.309113</ele>
        <time>2013-05-14T14:01:04Z</time>
      </trkpt>
      <trkpt lat="44.07377" lon="5.98051">
        <ele>500.973816</ele>
        <time>2013-05-14T14:01:18Z</time>
      </trkpt>
      <trkpt lat="44.07403" lon="5.98064">
        <ele>499.079803</ele>
        <time>2013-05-14T14:01:34Z</time>
      </trkpt>
      <trkpt lat="44.07418" lon="5.98079">
        <ele>500.536652</ele>
        <time>2013-05-14T14:01:47Z</time>
      </trkpt>
      <trkpt lat="44.07436" lon="5.98086">
        <ele>501.592194</ele>
        <time>2013-05-14T14:02:01Z</time>
      </trkpt>
      <trkpt lat="44.07457" lon="5.98093">
        <ele>502.410278</ele>
        <time>2013-05-14T14:02:16Z</time>
      </trkpt>
      <trkpt lat="44.07482" lon="5.981">
        <ele>503.749237</ele>
        <time>2013-05-14T14:02:32Z</time>
      </trkpt>
      <trkpt lat="44.07505" lon="5.98107">
        <ele>504.773926</ele>
        <time>2013-05-14T14:02:48Z</time>
      </trkpt>
      <trkpt lat="44.07507" lon="5.98108">
        <ele>504.914032</ele>
        <time>2013-05-14T14:02:49Z</time>
      </trkpt>
      <trkpt lat="44.07528" lon="5.98112">
        <ele>506.064087</ele>
        <time>2013-05-14T14:03:03Z</time>
      </trkpt>
      <trkpt lat="44.07539" lon="5.98114">
        <ele>506.536743</ele>
        <time>2013-05-14T14:03:11Z</time>
      </trkpt>
      <trkpt lat="44.0754" lon="5.98114">
        <ele>506.548889</ele>
        <time>2013-05-14T14:03:12Z</time>
      </trkpt>
      <trkpt lat="44.07541" lon="5.98114">
        <ele>506.581909</ele>
        <time>2013-05-14T14:03:13Z</time>
      </trkpt>
      <trkpt lat="44.0757" lon="5.98118">
        <ele>509.716644</ele>
        <time>2013-05-14T14:03:31Z</time>
      </trkpt>
      <trkpt lat="44.07596" lon="5.98122">
        <ele>513.340759</ele>
        <time>2013-05-14T14:03:46Z</time>
      </trkpt>
      <trkpt lat="44.07629" lon="5.98133">
        <ele>515.174988</ele>
        <time>2013-05-14T14:04:03Z</time>
      </trkpt>
      <trkpt lat="44.07663" lon="5.98146">
        <ele>515.962402</ele>
        <time>2013-05-14T14:04:19Z</time>
      </trkpt>
      <trkpt lat="44.07697" lon="5.9815">
        <ele>517.618591</ele>
        <time>2013-05-14T14:04:37Z</time>
      </trkpt>
      <trkpt lat="44.07727" lon="5.98153">
        <ele>520.245972</ele>
        <time>2013-05-14T14:04:52Z</time>
      </trkpt>
      <trkpt lat="44.07757" lon="5.98158">
        <ele>522.926453</ele>
        <time>2013-05-14T14:05:07Z</time>
      </trkpt>
      <trkpt lat="44.07777" lon="5.98172">
        <ele>525.25116</ele>
        <time>2013-05-14T14:05:19Z</time>
      </trkpt>
      <trkpt lat="44.07793" lon="5.98182">
        <ele>527.377258</ele>
        <time>2013-05-14T14:05:33Z</time>
      </trkpt>
      <trkpt lat="44.07812" lon="5.98198">
        <ele>529.437744</ele>
        <time>2013-05-14T14:05:49Z</time>
      </trkpt>
      <trkpt lat="44.07818" lon="5.98204">
        <ele>529.954773</ele>
        <time>2013-05-14T14:05:54Z</time>
      </trkpt>
      <trkpt lat="44.07833" lon="5.98222">
        <ele>532.10907</ele>
        <time>2013-05-14T14:06:10Z</time>
      </trkpt>
      <trkpt lat="44.07851" lon="5.98238">
        <ele>534.773315</ele>
        <time>2013-05-14T14:06:26Z</time>
      </trkpt>
      <trkpt lat="44.07867" lon="5.98245">
        <ele>536.39856</ele>
        <time>2013-05-14T14:06:40Z</time>
      </trkpt>
      <trkpt lat="44.07892" lon="5.98262">
        <ele>539.073792</ele>
        <time>2013-05-14T14:06:58Z</time>
      </trkpt>
      <trkpt lat="44.07895" lon="5.98268">
        <ele>539.275818</ele>
        <time>2013-05-14T14:07:10Z</time>
      </trkpt>
      <trkpt lat="44.07893" lon="5.98269">
        <ele>539.12323</ele>
        <time>2013-05-14T14:07:35Z</time>
      </trkpt>
      <trkpt lat="44.07892" lon="5.98271">
        <ele>539.039063</ele>
        <time>2013-05-14T14:07:37Z</time>
      </trkpt>
      <trkpt lat="44.07891" lon="5.98272">
        <ele>538.949463</ele>
        <time>2013-05-14T14:07:38Z</time>
      </trkpt>
      <trkpt lat="44.07889" lon="5.98272">
        <ele>538.817078</ele>
        <time>2013-05-14T14:07:39Z</time>
      </trkpt>
      <trkpt lat="44.07886" lon="5.98272">
        <ele>538.605957</ele>
        <time>2013-05-14T14:07:40Z</time>
      </trkpt>
      <trkpt lat="44.07883" lon="5.98272">
        <ele>538.348083</ele>
        <time>2013-05-14T14:07:41Z</time>
      </trkpt>
      <trkpt lat="44.0788" lon="5.98271">
        <ele>538.085632</ele>
        <time>2013-05-14T14:07:42Z</time>
      </trkpt>
      <trkpt lat="44.07876" lon="5.98271">
        <ele>537.804504</ele>
        <time>2013-05-14T14:07:43Z</time>
      </trkpt>
      <trkpt lat="44.07849" lon="5.98277">
        <ele>536.793762</ele>
        <time>2013-05-14T14:07:56Z</time>
      </trkpt>
      <trkpt lat="44.07839" lon="5.98303">
        <ele>539.90802</ele>
        <time>2013-05-14T14:08:09Z</time>
      </trkpt>
      <trkpt lat="44.07838" lon="5.98305">
        <ele>540.19397</ele>
        <time>2013-05-14T14:08:10Z</time>
      </trkpt>
      <trkpt lat="44.07838" lon="5.98307">
        <ele>540.444885</ele>
        <time>2013-05-14T14:08:11Z</time>
      </trkpt>
      <trkpt lat="44.07838" lon="5.98309">
        <ele>540.711365</ele>
        <time>2013-05-14T14:08:12Z</time>
      </trkpt>
      <trkpt lat="44.07838" lon="5.98311">
        <ele>540.977539</ele>
        <time>2013-05-14T14:08:13Z</time>
      </trkpt>
      <trkpt lat="44.07837" lon="5.98313">
        <ele>541.227356</ele>
        <time>2013-05-14T14:08:14Z</time>
      </trkpt>
      <trkpt lat="44.07837" lon="5.98315">
        <ele>541.491211</ele>
        <time>2013-05-14T14:08:15Z</time>
      </trkpt>
      <trkpt lat="44.07825" lon="5.98339">
        <ele>545.10791</ele>
        <time>2013-05-14T14:08:30Z</time>
      </trkpt>
      <trkpt lat="44.07809" lon="5.98356">
        <ele>548.553833</ele>
        <time>2013-05-14T14:08:45Z</time>
      </trkpt>
      <trkpt lat="44.07808" lon="5.98359">
        <ele>549.123901</ele>
        <time>2013-05-14T14:08:47Z</time>
      </trkpt>
      <trkpt lat="44.07808" lon="5.98361">
        <ele>549.397644</ele>
        <time>2013-05-14T14:08:48Z</time>
      </trkpt>
      <trkpt lat="44.07808" lon="5.98363">
        <ele>549.626404</ele>
        <time>2013-05-14T14:08:49Z</time>
      </trkpt>
      <trkpt lat="44.07809" lon="5.98365">
        <ele>549.78656</ele>
        <time>2013-05-14T14:08:50Z</time>
      </trkpt>
      <trkpt lat="44.0781" lon="5.98367">
        <ele>549.979797</ele>
        <time>2013-05-14T14:08:51Z</time>
      </trkpt>
      <trkpt lat="44.0781" lon="5.98369">
        <ele>550.194458</ele>
        <time>2013-05-14T14:08:52Z</time>
      </trkpt>
      <trkpt lat="44.07827" lon="5.98394">
        <ele>552.319702</ele>
        <time>2013-05-14T14:09:09Z</time>
      </trkpt>
      <trkpt lat="44.07832" lon="5.98413">
        <ele>554.008057</ele>
        <time>2013-05-14T14:09:20Z</time>
      </trkpt>
      <trkpt lat="44.07832" lon="5.98415">
        <ele>554.18335</ele>
        <time>2013-05-14T14:09:21Z</time>
      </trkpt>
      <trkpt lat="44.07833" lon="5.98417">
        <ele>554.30835</ele>
        <time>2013-05-14T14:09:22Z</time>
      </trkpt>
      <trkpt lat="44.07849" lon="5.98442">
        <ele>555.140442</ele>
        <time>2013-05-14T14:09:37Z</time>
      </trkpt>
      <trkpt lat="44.07868" lon="5.98472">
        <ele>555.675659</ele>
        <time>2013-05-14T14:09:55Z</time>
      </trkpt>
      <trkpt lat="44.07874" lon="5.98477">
        <ele>555.432373</ele>
        <time>2013-05-14T14:10:08Z</time>
      </trkpt>
      <trkpt lat="44.07873" lon="5.98479">
        <ele>555.6427</ele>
        <time>2013-05-14T14:10:43Z</time>
      </trkpt>
      <trkpt lat="44.07874" lon="5.98482">
        <ele>555.898438</ele>
        <time>2013-05-14T14:11:08Z</time>
      </trkpt>
      <trkpt lat="44.07876" lon="5.9848">
        <ele>555.542053</ele>
        <time>2013-05-14T14:11:30Z</time>
      </trkpt>
      <trkpt lat="44.0789" lon="5.98491">
        <ele>554.820923</ele>
        <time>2013-05-14T14:11:43Z</time>
      </trkpt>
      <trkpt lat="44.07917" lon="5.98503">
        <ele>552.871765</ele>
        <time>2013-05-14T14:11:55Z</time>
      </trkpt>
      <trkpt lat="44.07917" lon="5.98502">
        <ele>552.821594</ele>
        <time>2013-05-14T14:12:08Z</time>
      </trkpt>
      <trkpt lat="44.07934" lon="5.98502">
        <ele>550.803284</ele>
        <time>2013-05-14T14:12:17Z</time>
      </trkpt>
      <trkpt lat="44.07949" lon="5.98496">
        <ele>548.67688</ele>
        <time>2013-05-14T14:12:29Z</time>
      </trkpt>
      <trkpt lat="44.07971" lon="5.98477">
        <ele>545.678894</ele>
        <time>2013-05-14T14:12:41Z</time>
      </trkpt>
      <trkpt lat="44.07976" lon="5.98476">
        <ele>545.185608</ele>
        <time>2013-05-14T14:12:43Z</time>
      </trkpt>
      <trkpt lat="44.07996" lon="5.98474">
        <ele>542.737976</ele>
        <time>2013-05-14T14:12:54Z</time>
      </trkpt>
      <trkpt lat="44.07995" lon="5.98471">
        <ele>542.822876</ele>
        <time>2013-05-14T14:13:12Z</time>
      </trkpt>
      <trkpt lat="44.07995" lon="5.9847">
        <ele>542.728577</ele>
        <time>2013-05-14T14:13:38Z</time>
      </trkpt>
      <trkpt lat="44.07996" lon="5.9847">
        <ele>542.551392</ele>
        <time>2013-05-14T14:14:02Z</time>
      </trkpt>
      <trkpt lat="44.07998" lon="5.98468">
        <ele>542.206238</ele>
        <time>2013-05-14T14:14:22Z</time>
      </trkpt>
      <trkpt lat="44.07999" lon="5.98468">
        <ele>541.977051</ele>
        <time>2013-05-14T14:14:23Z</time>
      </trkpt>
      <trkpt lat="44.08013" lon="5.98469">
        <ele>539.519287</ele>
        <time>2013-05-14T14:14:30Z</time>
      </trkpt>
      <trkpt lat="44.08018" lon="5.98469">
        <ele>538.80304</ele>
        <time>2013-05-14T14:14:31Z</time>
      </trkpt>
      <trkpt lat="44.08025" lon="5.9847">
        <ele>537.58313</ele>
        <time>2013-05-14T14:14:33Z</time>
      </trkpt>
      <trkpt lat="44.08031" lon="5.98471">
        <ele>536.431213</ele>
        <time>2013-05-14T14:14:35Z</time>
      </trkpt>
      <trkpt lat="44.08039" lon="5.9847">
        <ele>535.153442</ele>
        <time>2013-05-14T14:14:38Z</time>
      </trkpt>
      <trkpt lat="44.08042" lon="5.9847">
        <ele>534.816528</ele>
        <time>2013-05-14T14:14:39Z</time>
      </trkpt>
      <trkpt lat="44.0806" lon="5.9848">
        <ele>532.035583</ele>
        <time>2013-05-14T14:14:47Z</time>
      </trkpt>
      <trkpt lat="44.08084" lon="5.98484">
        <ele>528.656982</ele>
        <time>2013-05-14T14:14:59Z</time>
      </trkpt>
      <trkpt lat="44.0809" lon="5.98482">
        <ele>528.412354</ele>
        <time>2013-05-14T14:15:10Z</time>
      </trkpt>
      <trkpt lat="44.08089" lon="5.98474">
        <ele>529.009583</ele>
        <time>2013-05-14T14:15:59Z</time>
      </trkpt>
      <trkpt lat="44.08093" lon="5.98482">
        <ele>528.20874</ele>
        <time>2013-05-14T14:16:12Z</time>
      </trkpt>
      <trkpt lat="44.08125" lon="5.98511">
        <ele>525.589966</ele>
        <time>2013-05-14T14:16:24Z</time>
      </trkpt>
      <trkpt lat="44.08151" lon="5.98519">
        <ele>524.842712</ele>
        <time>2013-05-14T14:16:32Z</time>
      </trkpt>
      <trkpt lat="44.08166" lon="5.98523">
        <ele>524.174866</ele>
        <time>2013-05-14T14:16:38Z</time>
      </trkpt>
      <trkpt lat="44.08171" lon="5.98524">
        <ele>524.18634</ele>
        <time>2013-05-14T14:16:40Z</time>
      </trkpt>
      <trkpt lat="44.08175" lon="5.98528">
        <ele>523.877319</ele>
        <time>2013-05-14T14:16:43Z</time>
      </trkpt>
      <trkpt lat="44.08175" lon="5.98531">
        <ele>523.503601</ele>
        <time>2013-05-14T14:16:51Z</time>
      </trkpt>
      <trkpt lat="44.08179" lon="5.98535">
        <ele>523.174377</ele>
        <time>2013-05-14T14:16:58Z</time>
      </trkpt>
      <trkpt lat="44.08188" lon="5.98555">
        <ele>521.400085</ele>
        <time>2013-05-14T14:17:07Z</time>
      </trkpt>
      <trkpt lat="44.08191" lon="5.9857">
        <ele>521.087585</ele>
        <time>2013-05-14T14:17:11Z</time>
      </trkpt>
      <trkpt lat="44.08183" lon="5.98581">
        <ele>520.850891</ele>
        <time>2013-05-14T14:17:14Z</time>
      </trkpt>
      <trkpt lat="44.0819" lon="5.98605">
        <ele>520.166443</ele>
        <time>2013-05-14T14:17:24Z</time>
      </trkpt>
      <trkpt lat="44.08196" lon="5.98611">
        <ele>519.766785</ele>
        <time>2013-05-14T14:17:27Z</time>
      </trkpt>
      <trkpt lat="44.08209" lon="5.98641">
        <ele>516.292114</ele>
        <time>2013-05-14T14:17:37Z</time>
      </trkpt>
      <trkpt lat="44.08213" lon="5.98657">
        <ele>515.215088</ele>
        <time>2013-05-14T14:17:40Z</time>
      </trkpt>
      <trkpt lat="44.08226" lon="5.9868">
        <ele>515.705811</ele>
        <time>2013-05-14T14:17:47Z</time>
      </trkpt>
      <trkpt lat="44.0823" lon="5.98683">
        <ele>516.210693</ele>
        <time>2013-05-14T14:17:57Z</time>
      </trkpt>
      <trkpt lat="44.08231" lon="5.98681">
        <ele>516.565002</ele>
        <time>2013-05-14T14:18:31Z</time>
      </trkpt>
      <trkpt lat="44.08232" lon="5.98683">
        <ele>516.591614</ele>
        <time>2013-05-14T14:19:05Z</time>
      </trkpt>
      <trkpt lat="44.08232" lon="5.98689">
        <ele>515.894775</ele>
        <time>2013-05-14T14:19:18Z</time>
      </trkpt>
      <trkpt lat="44.08231" lon="5.98692">
        <ele>515.519653</ele>
        <time>2013-05-14T14:19:27Z</time>
      </trkpt>
      <trkpt lat="44.08235" lon="5.98707">
        <ele>514.236023</ele>
        <time>2013-05-14T14:19:33Z</time>
      </trkpt>
      <trkpt lat="44.08235" lon="5.98717">
        <ele>512.82959</ele>
        <time>2013-05-14T14:19:37Z</time>
      </trkpt>
      <trkpt lat="44.08234" lon="5.98719">
        <ele>512.570435</ele>
        <time>2013-05-14T14:19:38Z</time>
      </trkpt>
      <trkpt lat="44.08225" lon="5.98729">
        <ele>511.425659</ele>
        <time>2013-05-14T14:19:48Z</time>
      </trkpt>
      <trkpt lat="44.08224" lon="5.98732">
        <ele>511.240021</ele>
        <time>2013-05-14T14:19:51Z</time>
      </trkpt>
      <trkpt lat="44.08221" lon="5.98736">
        <ele>511.056091</ele>
        <time>2013-05-14T14:19:55Z</time>
      </trkpt>
      <trkpt lat="44.0822" lon="5.98747">
        <ele>511.248505</ele>
        <time>2013-05-14T14:20:10Z</time>
      </trkpt>
      <trkpt lat="44.08219" lon="5.98749">
        <ele>511.538116</ele>
        <time>2013-05-14T14:20:33Z</time>
      </trkpt>
      <trkpt lat="44.08217" lon="5.98753">
        <ele>512.204224</ele>
        <time>2013-05-14T14:21:09Z</time>
      </trkpt>
      <trkpt lat="44.08219" lon="5.98759">
        <ele>512.498413</ele>
        <time>2013-05-14T14:21:55Z</time>
      </trkpt>
      <trkpt lat="44.08219" lon="5.98761">
        <ele>512.700317</ele>
        <time>2013-05-14T14:22:32Z</time>
      </trkpt>
      <trkpt lat="44.08222" lon="5.98757">
        <ele>511.977356</ele>
        <time>2013-05-14T14:22:52Z</time>
      </trkpt>
      <trkpt lat="44.08231" lon="5.98747">
        <ele>510.075195</ele>
        <time>2013-05-14T14:23:29Z</time>
      </trkpt>
      <trkpt lat="44.08225" lon="5.98752">
        <ele>511.063995</ele>
        <time>2013-05-14T14:24:00Z</time>
      </trkpt>
      <trkpt lat="44.08219" lon="5.98761">
        <ele>512.756531</ele>
        <time>2013-05-14T14:24:30Z</time>
      </trkpt>
      <trkpt lat="44.0822" lon="5.9876">
        <ele>512.452698</ele>
        <time>2013-05-14T14:24:54Z</time>
      </trkpt>
      <trkpt lat="44.08221" lon="5.98766">
        <ele>512.938416</ele>
        <time>2013-05-14T14:25:09Z</time>
      </trkpt>
      <trkpt lat="44.08224" lon="5.98763">
        <ele>512.261475</ele>
        <time>2013-05-14T14:25:36Z</time>
      </trkpt>
      <trkpt lat="44.08225" lon="5.98764">
        <ele>512.137451</ele>
        <time>2013-05-14T14:25:45Z</time>
      </trkpt>
      <trkpt lat="44.0823" lon="5.98786">
        <ele>512.649231</ele>
        <time>2013-05-14T14:25:53Z</time>
      </trkpt>
      <trkpt lat="44.08237" lon="5.98794">
        <ele>511.456238</ele>
        <time>2013-05-14T14:25:55Z</time>
      </trkpt>
      <trkpt lat="44.08252" lon="5.98819">
        <ele>510.299133</ele>
        <time>2013-05-14T14:26:00Z</time>
      </trkpt>
      <trkpt lat="44.08289" lon="5.9886">
        <ele>505.486511</ele>
        <time>2013-05-14T14:26:10Z</time>
      </trkpt>
      <trkpt lat="44.08295" lon="5.98878">
        <ele>505.270599</ele>
        <time>2013-05-14T14:26:13Z</time>
      </trkpt>
      <trkpt lat="44.08311" lon="5.98915">
        <ele>505.439209</ele>
        <time>2013-05-14T14:26:18Z</time>
      </trkpt>
      <trkpt lat="44.08325" lon="5.98937">
        <ele>502.518738</ele>
        <time>2013-05-14T14:26:21Z</time>
      </trkpt>
      <trkpt lat="44.08329" lon="5.98944">
        <ele>501.390015</ele>
        <time>2013-05-14T14:26:22Z</time>
      </trkpt>
      <trkpt lat="44.08332" lon="5.98951">
        <ele>500.726257</ele>
        <time>2013-05-14T14:26:23Z</time>
      </trkpt>
      <trkpt lat="44.08334" lon="5.9896">
        <ele>500.347504</ele>
        <time>2013-05-14T14:26:24Z</time>
      </trkpt>
      <trkpt lat="44.08337" lon="5.98979">
        <ele>500.100006</ele>
        <time>2013-05-14T14:26:26Z</time>
      </trkpt>
      <trkpt lat="44.08338" lon="5.98988">
        <ele>499.84494</ele>
        <time>2013-05-14T14:26:27Z</time>
      </trkpt>
      <trkpt lat="44.08339" lon="5.98996">
        <ele>499.564056</ele>
        <time>2013-05-14T14:26:28Z</time>
      </trkpt>
      <trkpt lat="44.08341" lon="5.99004">
        <ele>498.634186</ele>
        <time>2013-05-14T14:26:29Z</time>
      </trkpt>
      <trkpt lat="44.08346" lon="5.99019">
        <ele>496.174408</ele>
        <time>2013-05-14T14:26:31Z</time>
      </trkpt>
      <trkpt lat="44.08347" lon="5.99027">
        <ele>495.235077</ele>
        <time>2013-05-14T14:26:32Z</time>
      </trkpt>
      <trkpt lat="44.08346" lon="5.99034">
        <ele>494.67276</ele>
        <time>2013-05-14T14:26:33Z</time>
      </trkpt>
      <trkpt lat="44.08343" lon="5.9904">
        <ele>494.516754</ele>
        <time>2013-05-14T14:26:34Z</time>
      </trkpt>
      <trkpt lat="44.08339" lon="5.99045">
        <ele>494.493958</ele>
        <time>2013-05-14T14:26:35Z</time>
      </trkpt>
      <trkpt lat="44.08335" lon="5.99049">
        <ele>494.624512</ele>
        <time>2013-05-14T14:26:36Z</time>
      </trkpt>
      <trkpt lat="44.08331" lon="5.99052">
        <ele>494.865143</ele>
        <time>2013-05-14T14:26:37Z</time>
      </trkpt>
      <trkpt lat="44.08328" lon="5.99054">
        <ele>495.325287</ele>
        <time>2013-05-14T14:26:38Z</time>
      </trkpt>
      <trkpt lat="44.08324" lon="5.99055">
        <ele>495.846802</ele>
        <time>2013-05-14T14:26:39Z</time>
      </trkpt>
      <trkpt lat="44.08321" lon="5.99056">
        <ele>496.381226</ele>
        <time>2013-05-14T14:26:40Z</time>
      </trkpt>
      <trkpt lat="44.08319" lon="5.99056">
        <ele>496.726868</ele>
        <time>2013-05-14T14:26:41Z</time>
      </trkpt>
      <trkpt lat="44.08317" lon="5.99058">
        <ele>496.91095</ele>
        <time>2013-05-14T14:26:42Z</time>
      </trkpt>
      <trkpt lat="44.08315" lon="5.9906">
        <ele>496.964661</ele>
        <time>2013-05-14T14:26:43Z</time>
      </trkpt>
      <trkpt lat="44.08314" lon="5.99063">
        <ele>496.647491</ele>
        <time>2013-05-14T14:26:44Z</time>
      </trkpt>
      <trkpt lat="44.08312" lon="5.99067">
        <ele>496.275543</ele>
        <time>2013-05-14T14:26:45Z</time>
      </trkpt>
      <trkpt lat="44.08311" lon="5.9907">
        <ele>496.00177</ele>
        <time>2013-05-14T14:26:46Z</time>
      </trkpt>
      <trkpt lat="44.08308" lon="5.99078">
        <ele>495.150116</ele>
        <time>2013-05-14T14:26:54Z</time>
      </trkpt>
      <trkpt lat="44.08292" lon="5.99114">
        <ele>491.217316</ele>
        <time>2013-05-14T14:27:06Z</time>
      </trkpt>
      <trkpt lat="44.08279" lon="5.99136">
        <ele>488.714844</ele>
        <time>2013-05-14T14:27:10Z</time>
      </trkpt>
      <trkpt lat="44.08276" lon="5.99141">
        <ele>488.115448</ele>
        <time>2013-05-14T14:27:11Z</time>
      </trkpt>
      <trkpt lat="44.08262" lon="5.99157">
        <ele>486.191193</ele>
        <time>2013-05-14T14:27:14Z</time>
      </trkpt>
      <trkpt lat="44.08257" lon="5.99161">
        <ele>485.763</ele>
        <time>2013-05-14T14:27:15Z</time>
      </trkpt>
      <trkpt lat="44.08246" lon="5.99169">
        <ele>484.663788</ele>
        <time>2013-05-14T14:27:17Z</time>
      </trkpt>
      <trkpt lat="44.08235" lon="5.99177">
        <ele>483.602142</ele>
        <time>2013-05-14T14:27:19Z</time>
      </trkpt>
      <trkpt lat="44.0823" lon="5.99179">
        <ele>483.280487</ele>
        <time>2013-05-14T14:27:20Z</time>
      </trkpt>
      <trkpt lat="44.08224" lon="5.99182">
        <ele>483.314514</ele>
        <time>2013-05-14T14:27:21Z</time>
      </trkpt>
      <trkpt lat="44.0822" lon="5.99184">
        <ele>483.327362</ele>
        <time>2013-05-14T14:27:22Z</time>
      </trkpt>
      <trkpt lat="44.08215" lon="5.99186">
        <ele>483.325562</ele>
        <time>2013-05-14T14:27:23Z</time>
      </trkpt>
      <trkpt lat="44.0821" lon="5.99188">
        <ele>483.265137</ele>
        <time>2013-05-14T14:27:24Z</time>
      </trkpt>
      <trkpt lat="44.08206" lon="5.9919">
        <ele>483.192017</ele>
        <time>2013-05-14T14:27:25Z</time>
      </trkpt>
      <trkpt lat="44.08187" lon="5.99197">
        <ele>482.884186</ele>
        <time>2013-05-14T14:27:30Z</time>
      </trkpt>
      <trkpt lat="44.08183" lon="5.99197">
        <ele>483.122955</ele>
        <time>2013-05-14T14:27:31Z</time>
      </trkpt>
      <trkpt lat="44.08179" lon="5.99195">
        <ele>483.622559</ele>
        <time>2013-05-14T14:27:32Z</time>
      </trkpt>
      <trkpt lat="44.08175" lon="5.99192">
        <ele>484.296783</ele>
        <time>2013-05-14T14:27:33Z</time>
      </trkpt>
      <trkpt lat="44.08165" lon="5.99182">
        <ele>486.28009</ele>
        <time>2013-05-14T14:27:36Z</time>
      </trkpt>
      <trkpt lat="44.08162" lon="5.99184">
        <ele>486.317932</ele>
        <time>2013-05-14T14:27:37Z</time>
      </trkpt>
      <trkpt lat="44.08159" lon="5.99188">
        <ele>485.945862</ele>
        <time>2013-05-14T14:27:38Z</time>
      </trkpt>
      <trkpt lat="44.08157" lon="5.99192">
        <ele>485.339569</ele>
        <time>2013-05-14T14:27:39Z</time>
      </trkpt>
      <trkpt lat="44.08156" lon="5.99198">
        <ele>484.639709</ele>
        <time>2013-05-14T14:27:40Z</time>
      </trkpt>
      <trkpt lat="44.08151" lon="5.99208">
        <ele>483.314697</ele>
        <time>2013-05-14T14:27:42Z</time>
      </trkpt>
      <trkpt lat="44.08147" lon="5.99212">
        <ele>482.859894</ele>
        <time>2013-05-14T14:27:43Z</time>
      </trkpt>
      <trkpt lat="44.08142" lon="5.99215">
        <ele>482.621887</ele>
        <time>2013-05-14T14:27:44Z</time>
      </trkpt>
      <trkpt lat="44.08138" lon="5.99217">
        <ele>482.536133</ele>
        <time>2013-05-14T14:27:45Z</time>
      </trkpt>
      <trkpt lat="44.08133" lon="5.99219">
        <ele>482.510742</ele>
        <time>2013-05-14T14:27:46Z</time>
      </trkpt>
      <trkpt lat="44.08128" lon="5.99221">
        <ele>482.572388</ele>
        <time>2013-05-14T14:27:47Z</time>
      </trkpt>
      <trkpt lat="44.08124" lon="5.99222">
        <ele>482.654449</ele>
        <time>2013-05-14T14:27:48Z</time>
      </trkpt>
      <trkpt lat="44.08079" lon="5.99239">
        <ele>482.637817</ele>
        <time>2013-05-14T14:27:58Z</time>
      </trkpt>
      <trkpt lat="44.08078" lon="5.99243">
        <ele>482.549469</ele>
        <time>2013-05-14T14:27:59Z</time>
      </trkpt>
      <trkpt lat="44.08077" lon="5.99246">
        <ele>482.443085</ele>
        <time>2013-05-14T14:28:00Z</time>
      </trkpt>
      <trkpt lat="44.08077" lon="5.99248">
        <ele>482.335693</ele>
        <time>2013-05-14T14:28:01Z</time>
      </trkpt>
      <trkpt lat="44.08077" lon="5.99251">
        <ele>482.22345</ele>
        <time>2013-05-14T14:28:02Z</time>
      </trkpt>
      <trkpt lat="44.08078" lon="5.99254">
        <ele>482.14975</ele>
        <time>2013-05-14T14:28:03Z</time>
      </trkpt>
      <trkpt lat="44.0808" lon="5.99256">
        <ele>482.1203</ele>
        <time>2013-05-14T14:28:04Z</time>
      </trkpt>
      <trkpt lat="44.08082" lon="5.99257">
        <ele>482.109924</ele>
        <time>2013-05-14T14:28:05Z</time>
      </trkpt>
      <trkpt lat="44.08084" lon="5.99258">
        <ele>482.127258</ele>
        <time>2013-05-14T14:28:06Z</time>
      </trkpt>
      <trkpt lat="44.08085" lon="5.99258">
        <ele>482.154816</ele>
        <time>2013-05-14T14:28:07Z</time>
      </trkpt>
      <trkpt lat="44.08087" lon="5.99259">
        <ele>482.182648</ele>
        <time>2013-05-14T14:28:08Z</time>
      </trkpt>
      <trkpt lat="44.08088" lon="5.99259">
        <ele>482.211182</ele>
        <time>2013-05-14T14:28:09Z</time>
      </trkpt>
      <trkpt lat="44.0809" lon="5.99259">
        <ele>482.243347</ele>
        <time>2013-05-14T14:28:10Z</time>
      </trkpt>
      <trkpt lat="44.08091" lon="5.99259">
        <ele>482.278809</ele>
        <time>2013-05-14T14:28:11Z</time>
      </trkpt>
      <trkpt lat="44.08093" lon="5.99259">
        <ele>482.31189</ele>
        <time>2013-05-14T14:28:12Z</time>
      </trkpt>
      <trkpt lat="44.08095" lon="5.99259">
        <ele>482.345337</ele>
        <time>2013-05-14T14:28:13Z</time>
      </trkpt>
      <trkpt lat="44.08096" lon="5.99259">
        <ele>482.380035</ele>
        <time>2013-05-14T14:28:14Z</time>
      </trkpt>
      <trkpt lat="44.08098" lon="5.99259">
        <ele>482.410583</ele>
        <time>2013-05-14T14:28:15Z</time>
      </trkpt>
      <trkpt lat="44.08099" lon="5.99259">
        <ele>482.385803</ele>
        <time>2013-05-14T14:28:16Z</time>
      </trkpt>
      <trkpt lat="44.08101" lon="5.99259">
        <ele>482.346588</ele>
        <time>2013-05-14T14:28:17Z</time>
      </trkpt>
      <trkpt lat="44.08103" lon="5.99259">
        <ele>482.322968</ele>
        <time>2013-05-14T14:28:18Z</time>
      </trkpt>
      <trkpt lat="44.08104" lon="5.9926">
        <ele>482.302673</ele>
        <time>2013-05-14T14:28:19Z</time>
      </trkpt>
      <trkpt lat="44.08128" lon="5.99257">
        <ele>481.474426</ele>
        <time>2013-05-14T14:28:32Z</time>
      </trkpt>
      <trkpt lat="44.08155" lon="5.99253">
        <ele>480.598755</ele>
        <time>2013-05-14T14:28:46Z</time>
      </trkpt>
      <trkpt lat="44.08186" lon="5.99252">
        <ele>480.226959</ele>
        <time>2013-05-14T14:29:04Z</time>
      </trkpt>
      <trkpt lat="44.08218" lon="5.99246">
        <ele>480.236267</ele>
        <time>2013-05-14T14:29:20Z</time>
      </trkpt>
      <trkpt lat="44.08243" lon="5.99244">
        <ele>481.826233</ele>
        <time>2013-05-14T14:29:34Z</time>
      </trkpt>
      <trkpt lat="44.08252" lon="5.99244">
        <ele>483.47876</ele>
        <time>2013-05-14T14:29:40Z</time>
      </trkpt>
      <trkpt lat="44.08278" lon="5.9924">
        <ele>487.305481</ele>
        <time>2013-05-14T14:29:56Z</time>
      </trkpt>
      <trkpt lat="44.08301" lon="5.99236">
        <ele>487.968719</ele>
        <time>2013-05-14T14:30:09Z</time>
      </trkpt>
      <trkpt lat="44.08327" lon="5.99249">
        <ele>491.299072</ele>
        <time>2013-05-14T14:30:26Z</time>
      </trkpt>
      <trkpt lat="44.08349" lon="5.99252">
        <ele>492.625763</ele>
        <time>2013-05-14T14:30:41Z</time>
      </trkpt>
      <trkpt lat="44.08373" lon="5.99271">
        <ele>497.018097</ele>
        <time>2013-05-14T14:30:59Z</time>
      </trkpt>
      <trkpt lat="44.08382" lon="5.99277">
        <ele>498.596985</ele>
        <time>2013-05-14T14:31:06Z</time>
      </trkpt>
      <trkpt lat="44.08383" lon="5.99277">
        <ele>498.745392</ele>
        <time>2013-05-14T14:31:07Z</time>
      </trkpt>
      <trkpt lat="44.08404" lon="5.99284">
        <ele>501.283356</ele>
        <time>2013-05-14T14:31:22Z</time>
      </trkpt>
      <trkpt lat="44.0843" lon="5.99297">
        <ele>505.706238</ele>
        <time>2013-05-14T14:31:39Z</time>
      </trkpt>
      <trkpt lat="44.08452" lon="5.99304">
        <ele>508.996063</ele>
        <time>2013-05-14T14:31:51Z</time>
      </trkpt>
      <trkpt lat="44.08482" lon="5.99317">
        <ele>513.044067</ele>
        <time>2013-05-14T14:32:07Z</time>
      </trkpt>
      <trkpt lat="44.08508" lon="5.99327">
        <ele>515.878906</ele>
        <time>2013-05-14T14:32:21Z</time>
      </trkpt>
      <trkpt lat="44.08533" lon="5.99341">
        <ele>518.887695</ele>
        <time>2013-05-14T14:32:36Z</time>
      </trkpt>
      <trkpt lat="44.0856" lon="5.99344">
        <ele>520.412048</ele>
        <time>2013-05-14T14:32:54Z</time>
      </trkpt>
      <trkpt lat="44.08582" lon="5.99347">
        <ele>521.60083</ele>
        <time>2013-05-14T14:33:09Z</time>
      </trkpt>
      <trkpt lat="44.08588" lon="5.99349">
        <ele>522.102173</ele>
        <time>2013-05-14T14:33:13Z</time>
      </trkpt>
      <trkpt lat="44.08589" lon="5.99351">
        <ele>522.538025</ele>
        <time>2013-05-14T14:33:14Z</time>
      </trkpt>
      <trkpt lat="44.08589" lon="5.99354">
        <ele>522.987061</ele>
        <time>2013-05-14T14:33:15Z</time>
      </trkpt>
      <trkpt lat="44.08589" lon="5.99355">
        <ele>523.288025</ele>
        <time>2013-05-14T14:33:16Z</time>
      </trkpt>
      <trkpt lat="44.08587" lon="5.99356">
        <ele>523.469727</ele>
        <time>2013-05-14T14:33:18Z</time>
      </trkpt>
      <trkpt lat="44.08585" lon="5.99357">
        <ele>523.549316</ele>
        <time>2013-05-14T14:33:19Z</time>
      </trkpt>
      <trkpt lat="44.08584" lon="5.99358">
        <ele>523.661377</ele>
        <time>2013-05-14T14:33:20Z</time>
      </trkpt>
      <trkpt lat="44.08563" lon="5.9937">
        <ele>525.126709</ele>
        <time>2013-05-14T14:33:37Z</time>
      </trkpt>
      <trkpt lat="44.08561" lon="5.99371">
        <ele>525.177246</ele>
        <time>2013-05-14T14:33:38Z</time>
      </trkpt>
      <trkpt lat="44.08559" lon="5.99372">
        <ele>525.264587</ele>
        <time>2013-05-14T14:33:39Z</time>
      </trkpt>
      <trkpt lat="44.08557" lon="5.99375">
        <ele>525.734009</ele>
        <time>2013-05-14T14:33:42Z</time>
      </trkpt>
      <trkpt lat="44.08563" lon="5.99379">
        <ele>526.600098</ele>
        <time>2013-05-14T14:33:55Z</time>
      </trkpt>
      <trkpt lat="44.08567" lon="5.99378">
        <ele>526.712524</ele>
        <time>2013-05-14T14:34:12Z</time>
      </trkpt>
      <trkpt lat="44.0857" lon="5.99381">
        <ele>527.435791</ele>
        <time>2013-05-14T14:34:15Z</time>
      </trkpt>
      <trkpt lat="44.08571" lon="5.99382">
        <ele>527.666016</ele>
        <time>2013-05-14T14:34:16Z</time>
      </trkpt>
      <trkpt lat="44.08572" lon="5.99383">
        <ele>527.806274</ele>
        <time>2013-05-14T14:34:17Z</time>
      </trkpt>
      <trkpt lat="44.08586" lon="5.99392">
        <ele>530.232483</ele>
        <time>2013-05-14T14:34:30Z</time>
      </trkpt>
      <trkpt lat="44.08599" lon="5.99404">
        <ele>532.983459</ele>
        <time>2013-05-14T14:34:44Z</time>
      </trkpt>
      <trkpt lat="44.08599" lon="5.99404">
        <ele>532.933655</ele>
        <time>2013-05-14T14:34:46Z</time>
      </trkpt>
      <trkpt lat="44.08606" lon="5.99405">
        <ele>533.318542</ele>
        <time>2013-05-14T14:34:51Z</time>
      </trkpt>
      <trkpt lat="44.08622" lon="5.99411">
        <ele>534.922791</ele>
        <time>2013-05-14T14:35:04Z</time>
      </trkpt>
      <trkpt lat="44.08629" lon="5.99411">
        <ele>535.027527</ele>
        <time>2013-05-14T14:35:08Z</time>
      </trkpt>
      <trkpt lat="44.08643" lon="5.99414">
        <ele>536.11499</ele>
        <time>2013-05-14T14:35:17Z</time>
      </trkpt>
      <trkpt lat="44.08655" lon="5.99406">
        <ele>535.075012</ele>
        <time>2013-05-14T14:35:24Z</time>
      </trkpt>
      <trkpt lat="44.08662" lon="5.99391">
        <ele>532.67926</ele>
        <time>2013-05-14T14:35:29Z</time>
      </trkpt>
      <trkpt lat="44.08667" lon="5.99382">
        <ele>531.669434</ele>
        <time>2013-05-14T14:35:32Z</time>
      </trkpt>
      <trkpt lat="44.08684" lon="5.99386">
        <ele>532.977295</ele>
        <time>2013-05-14T14:35:42Z</time>
      </trkpt>
      <trkpt lat="44.08698" lon="5.99396">
        <ele>534.694763</ele>
        <time>2013-05-14T14:35:52Z</time>
      </trkpt>
      <trkpt lat="44.08711" lon="5.99399">
        <ele>535.592529</ele>
        <time>2013-05-14T14:36:04Z</time>
      </trkpt>
      <trkpt lat="44.08725" lon="5.99405">
        <ele>537.065247</ele>
        <time>2013-05-14T14:36:17Z</time>
      </trkpt>
      <trkpt lat="44.0874" lon="5.99394">
        <ele>535.814758</ele>
        <time>2013-05-14T14:36:24Z</time>
      </trkpt>
      <trkpt lat="44.08759" lon="5.994">
        <ele>536.668335</ele>
        <time>2013-05-14T14:36:38Z</time>
      </trkpt>
      <trkpt lat="44.08773" lon="5.99402">
        <ele>537.549622</ele>
        <time>2013-05-14T14:36:47Z</time>
      </trkpt>
      <trkpt lat="44.08789" lon="5.99413">
        <ele>540.742981</ele>
        <time>2013-05-14T14:37:01Z</time>
      </trkpt>
      <trkpt lat="44.08788" lon="5.99423">
        <ele>542.102234</ele>
        <time>2013-05-14T14:37:12Z</time>
      </trkpt>
      <trkpt lat="44.08792" lon="5.99418">
        <ele>541.742126</ele>
        <time>2013-05-14T14:37:21Z</time>
      </trkpt>
      <trkpt lat="44.08803" lon="5.99415">
        <ele>542.226135</ele>
        <time>2013-05-14T14:37:29Z</time>
      </trkpt>
      <trkpt lat="44.08812" lon="5.99414">
        <ele>542.955383</ele>
        <time>2013-05-14T14:37:35Z</time>
      </trkpt>
      <trkpt lat="44.08839" lon="5.99408">
        <ele>544.531677</ele>
        <time>2013-05-14T14:37:52Z</time>
      </trkpt>
      <trkpt lat="44.08845" lon="5.99403">
        <ele>544.361267</ele>
        <time>2013-05-14T14:37:57Z</time>
      </trkpt>
      <trkpt lat="44.08843" lon="5.99397">
        <ele>543.581238</ele>
        <time>2013-05-14T14:38:01Z</time>
      </trkpt>
      <trkpt lat="44.08838" lon="5.99394">
        <ele>542.786255</ele>
        <time>2013-05-14T14:38:05Z</time>
      </trkpt>
      <trkpt lat="44.08833" lon="5.99388">
        <ele>541.67749</ele>
        <time>2013-05-14T14:38:09Z</time>
      </trkpt>
      <trkpt lat="44.0884" lon="5.99369">
        <ele>540.038757</ele>
        <time>2013-05-14T14:38:18Z</time>
      </trkpt>
      <trkpt lat="44.08849" lon="5.99366">
        <ele>540.487488</ele>
        <time>2013-05-14T14:38:21Z</time>
      </trkpt>
      <trkpt lat="44.08868" lon="5.99355">
        <ele>540.419189</ele>
        <time>2013-05-14T14:38:29Z</time>
      </trkpt>
      <trkpt lat="44.08874" lon="5.99357">
        <ele>541.007019</ele>
        <time>2013-05-14T14:38:33Z</time>
      </trkpt>
      <trkpt lat="44.08879" lon="5.99361">
        <ele>541.739136</ele>
        <time>2013-05-14T14:38:38Z</time>
      </trkpt>
      <trkpt lat="44.08902" lon="5.99366">
        <ele>543.507935</ele>
        <time>2013-05-14T14:38:48Z</time>
      </trkpt>
      <trkpt lat="44.08922" lon="5.99369">
        <ele>545.19342</ele>
        <time>2013-05-14T14:38:59Z</time>
      </trkpt>
      <trkpt lat="44.08945" lon="5.99376">
        <ele>547.723389</ele>
        <time>2013-05-14T14:39:12Z</time>
      </trkpt>
      <trkpt lat="44.08962" lon="5.99376">
        <ele>548.646973</ele>
        <time>2013-05-14T14:39:21Z</time>
      </trkpt>
      <trkpt lat="44.08971" lon="5.99372">
        <ele>548.487976</ele>
        <time>2013-05-14T14:39:25Z</time>
      </trkpt>
      <trkpt lat="44.08985" lon="5.99372">
        <ele>549.203918</ele>
        <time>2013-05-14T14:39:30Z</time>
      </trkpt>
      <trkpt lat="44.08989" lon="5.99372">
        <ele>549.253845</ele>
        <time>2013-05-14T14:39:32Z</time>
      </trkpt>
      <trkpt lat="44.08998" lon="5.99376">
        <ele>550.351501</ele>
        <time>2013-05-14T14:39:38Z</time>
      </trkpt>
      <trkpt lat="44.09003" lon="5.99377">
        <ele>550.430054</ele>
        <time>2013-05-14T14:39:41Z</time>
      </trkpt>
      <trkpt lat="44.09018" lon="5.99361">
        <ele>547.588684</ele>
        <time>2013-05-14T14:39:48Z</time>
      </trkpt>
      <trkpt lat="44.09027" lon="5.99362">
        <ele>547.906616</ele>
        <time>2013-05-14T14:39:51Z</time>
      </trkpt>
      <trkpt lat="44.09044" lon="5.99374">
        <ele>550.103638</ele>
        <time>2013-05-14T14:40:02Z</time>
      </trkpt>
      <trkpt lat="44.09049" lon="5.99388">
        <ele>552.616516</ele>
        <time>2013-05-14T14:40:11Z</time>
      </trkpt>
      <trkpt lat="44.09047" lon="5.99397">
        <ele>554.196228</ele>
        <time>2013-05-14T14:40:17Z</time>
      </trkpt>
      <trkpt lat="44.09042" lon="5.99401">
        <ele>554.852051</ele>
        <time>2013-05-14T14:40:22Z</time>
      </trkpt>
      <trkpt lat="44.09036" lon="5.99403">
        <ele>555.196045</ele>
        <time>2013-05-14T14:40:26Z</time>
      </trkpt>
      <trkpt lat="44.09024" lon="5.99405">
        <ele>555.734497</ele>
        <time>2013-05-14T14:40:40Z</time>
      </trkpt>
      <trkpt lat="44.09021" lon="5.99401">
        <ele>554.984985</ele>
        <time>2013-05-14T14:41:19Z</time>
      </trkpt>
      <trkpt lat="44.0902" lon="5.99407">
        <ele>556.005859</ele>
        <time>2013-05-14T14:41:45Z</time>
      </trkpt>
      <trkpt lat="44.09017" lon="5.99404">
        <ele>555.547241</ele>
        <time>2013-05-14T14:42:17Z</time>
      </trkpt>
      <trkpt lat="44.09017" lon="5.99408">
        <ele>556.193481</ele>
        <time>2013-05-14T14:42:45Z</time>
      </trkpt>
      <trkpt lat="44.0902" lon="5.99406">
        <ele>555.94574</ele>
        <time>2013-05-14T14:43:19Z</time>
      </trkpt>
      <trkpt lat="44.09022" lon="5.99408">
        <ele>556.237671</ele>
        <time>2013-05-14T14:43:52Z</time>
      </trkpt>
      <trkpt lat="44.09017" lon="5.99405">
        <ele>555.618958</ele>
        <time>2013-05-14T14:44:23Z</time>
      </trkpt>
      <trkpt lat="44.09015" lon="5.99404">
        <ele>555.52478</ele>
        <time>2013-05-14T14:44:29Z</time>
      </trkpt>
      <trkpt lat="44.08999" lon="5.99405">
        <ele>555.758118</ele>
        <time>2013-05-14T14:44:42Z</time>
      </trkpt>
      <trkpt lat="44.08976" lon="5.99412">
        <ele>555.989441</ele>
        <time>2013-05-14T14:44:56Z</time>
      </trkpt>
      <trkpt lat="44.08953" lon="5.99413">
        <ele>554.47998</ele>
        <time>2013-05-14T14:45:12Z</time>
      </trkpt>
      <trkpt lat="44.08921" lon="5.99407">
        <ele>550.871521</ele>
        <time>2013-05-14T14:45:23Z</time>
      </trkpt>
      <trkpt lat="44.08905" lon="5.99413">
        <ele>550.461426</ele>
        <time>2013-05-14T14:45:29Z</time>
      </trkpt>
      <trkpt lat="44.08906" lon="5.9942">
        <ele>551.151855</ele>
        <time>2013-05-14T14:45:31Z</time>
      </trkpt>
      <trkpt lat="44.08926" lon="5.99427">
        <ele>553.70813</ele>
        <time>2013-05-14T14:45:44Z</time>
      </trkpt>
      <trkpt lat="44.08947" lon="5.99426">
        <ele>555.549316</ele>
        <time>2013-05-14T14:45:58Z</time>
      </trkpt>
      <trkpt lat="44.08966" lon="5.99431">
        <ele>557.859985</ele>
        <time>2013-05-14T14:46:12Z</time>
      </trkpt>
      <trkpt lat="44.08975" lon="5.99435">
        <ele>559.039978</ele>
        <time>2013-05-14T14:46:20Z</time>
      </trkpt>
      <trkpt lat="44.08982" lon="5.99439">
        <ele>560.190002</ele>
        <time>2013-05-14T14:46:26Z</time>
      </trkpt>
      <trkpt lat="44.08986" lon="5.99441">
        <ele>560.700012</ele>
        <time>2013-05-14T14:46:29Z</time>
      </trkpt>
      <trkpt lat="44.08992" lon="5.99446">
        <ele>561.869995</ele>
        <time>2013-05-14T14:46:34Z</time>
      </trkpt>
      <trkpt lat="44.08996" lon="5.99452">
        <ele>562.609985</ele>
        <time>2013-05-14T14:46:38Z</time>
      </trkpt>
      <trkpt lat="44.09022" lon="5.99465">
        <ele>564.070007</ele>
        <time>2013-05-14T14:46:57Z</time>
      </trkpt>
      <trkpt lat="44.09039" lon="5.99459">
        <ele>563.07489</ele>
        <time>2013-05-14T14:47:06Z</time>
      </trkpt>
      <trkpt lat="44.09063" lon="5.99467">
        <ele>563.561279</ele>
        <time>2013-05-14T14:47:20Z</time>
      </trkpt>
      <trkpt lat="44.09064" lon="5.9947">
        <ele>563.794678</ele>
        <time>2013-05-14T14:47:22Z</time>
      </trkpt>
      <trkpt lat="44.09078" lon="5.99478">
        <ele>564.389526</ele>
        <time>2013-05-14T14:47:31Z</time>
      </trkpt>
      <trkpt lat="44.09087" lon="5.99484">
        <ele>564.757507</ele>
        <time>2013-05-14T14:47:38Z</time>
      </trkpt>
      <trkpt lat="44.0909" lon="5.99514">
        <ele>567.260254</ele>
        <time>2013-05-14T14:47:52Z</time>
      </trkpt>
      <trkpt lat="44.09103" lon="5.9955">
        <ele>568.98938</ele>
        <time>2013-05-14T14:48:03Z</time>
      </trkpt>
      <trkpt lat="44.09102" lon="5.99554">
        <ele>569.309875</ele>
        <time>2013-05-14T14:48:05Z</time>
      </trkpt>
      <trkpt lat="44.09096" lon="5.9955">
        <ele>569.695374</ele>
        <time>2013-05-14T14:48:10Z</time>
      </trkpt>
      <trkpt lat="44.0908" lon="5.99554">
        <ele>571.554565</ele>
        <time>2013-05-14T14:48:20Z</time>
      </trkpt>
      <trkpt lat="44.0907" lon="5.99556">
        <ele>572.465942</ele>
        <time>2013-05-14T14:48:26Z</time>
      </trkpt>
      <trkpt lat="44.09038" lon="5.99549">
        <ele>573.614929</ele>
        <time>2013-05-14T14:48:41Z</time>
      </trkpt>
      <trkpt lat="44.09027" lon="5.99549">
        <ele>573.872498</ele>
        <time>2013-05-14T14:48:46Z</time>
      </trkpt>
      <trkpt lat="44.09006" lon="5.99569">
        <ele>577.201233</ele>
        <time>2013-05-14T14:48:57Z</time>
      </trkpt>
      <trkpt lat="44.09003" lon="5.99571">
        <ele>577.473755</ele>
        <time>2013-05-14T14:48:59Z</time>
      </trkpt>
      <trkpt lat="44.08964" lon="5.99581">
        <ele>577.578552</ele>
        <time>2013-05-14T14:49:11Z</time>
      </trkpt>
      <trkpt lat="44.08958" lon="5.99586">
        <ele>578.202209</ele>
        <time>2013-05-14T14:49:13Z</time>
      </trkpt>
      <trkpt lat="44.08947" lon="5.9959">
        <ele>578.442444</ele>
        <time>2013-05-14T14:49:17Z</time>
      </trkpt>
      <trkpt lat="44.08928" lon="5.99591">
        <ele>578.001038</ele>
        <time>2013-05-14T14:49:22Z</time>
      </trkpt>
      <trkpt lat="44.08895" lon="5.99583">
        <ele>575.115356</ele>
        <time>2013-05-14T14:49:30Z</time>
      </trkpt>
      <trkpt lat="44.0888" lon="5.99575">
        <ele>571.921509</ele>
        <time>2013-05-14T14:49:33Z</time>
      </trkpt>
      <trkpt lat="44.08876" lon="5.99573">
        <ele>571.192688</ele>
        <time>2013-05-14T14:49:34Z</time>
      </trkpt>
      <trkpt lat="44.08839" lon="5.9956">
        <ele>566.022583</ele>
        <time>2013-05-14T14:49:44Z</time>
      </trkpt>
      <trkpt lat="44.08831" lon="5.99557">
        <ele>564.986816</ele>
        <time>2013-05-14T14:49:46Z</time>
      </trkpt>
      <trkpt lat="44.08815" lon="5.9956">
        <ele>564.790955</ele>
        <time>2013-05-14T14:49:50Z</time>
      </trkpt>
      <trkpt lat="44.08804" lon="5.99563">
        <ele>564.971619</ele>
        <time>2013-05-14T14:50:02Z</time>
      </trkpt>
      <trkpt lat="44.08801" lon="5.99562">
        <ele>564.757324</ele>
        <time>2013-05-14T14:50:18Z</time>
      </trkpt>
      <trkpt lat="44.08786" lon="5.99566">
        <ele>565.045593</ele>
        <time>2013-05-14T14:50:27Z</time>
      </trkpt>
      <trkpt lat="44.08759" lon="5.99549">
        <ele>562.32959</ele>
        <time>2013-05-14T14:50:38Z</time>
      </trkpt>
      <trkpt lat="44.08756" lon="5.99548">
        <ele>562.087952</ele>
        <time>2013-05-14T14:50:39Z</time>
      </trkpt>
      <trkpt lat="44.08742" lon="5.99545">
        <ele>561.189453</ele>
        <time>2013-05-14T14:50:44Z</time>
      </trkpt>
      <trkpt lat="44.08733" lon="5.99538">
        <ele>560.21698</ele>
        <time>2013-05-14T14:50:48Z</time>
      </trkpt>
      <trkpt lat="44.08712" lon="5.99539">
        <ele>558.804993</ele>
        <time>2013-05-14T14:50:53Z</time>
      </trkpt>
      <trkpt lat="44.08679" lon="5.99526">
        <ele>553.952515</ele>
        <time>2013-05-14T14:51:02Z</time>
      </trkpt>
      <trkpt lat="44.08656" lon="5.99515">
        <ele>550.44989</ele>
        <time>2013-05-14T14:51:10Z</time>
      </trkpt>
      <trkpt lat="44.08635" lon="5.99501">
        <ele>547.108032</ele>
        <time>2013-05-14T14:51:19Z</time>
      </trkpt>
      <trkpt lat="44.08632" lon="5.995">
        <ele>546.758362</ele>
        <time>2013-05-14T14:51:20Z</time>
      </trkpt>
      <trkpt lat="44.08607" lon="5.99482">
        <ele>543.794678</ele>
        <time>2013-05-14T14:51:28Z</time>
      </trkpt>
      <trkpt lat="44.086" lon="5.99483">
        <ele>543.385193</ele>
        <time>2013-05-14T14:51:30Z</time>
      </trkpt>
      <trkpt lat="44.08595" lon="5.99482">
        <ele>543.087036</ele>
        <time>2013-05-14T14:51:31Z</time>
      </trkpt>
      <trkpt lat="44.0859" lon="5.99475">
        <ele>542.562378</ele>
        <time>2013-05-14T14:51:33Z</time>
      </trkpt>
      <trkpt lat="44.08585" lon="5.99471">
        <ele>542.216553</ele>
        <time>2013-05-14T14:51:35Z</time>
      </trkpt>
      <trkpt lat="44.08573" lon="5.99473">
        <ele>541.391663</ele>
        <time>2013-05-14T14:51:39Z</time>
      </trkpt>
      <trkpt lat="44.0857" lon="5.99474">
        <ele>541.198914</ele>
        <time>2013-05-14T14:51:40Z</time>
      </trkpt>
      <trkpt lat="44.08561" lon="5.99473">
        <ele>540.509766</ele>
        <time>2013-05-14T14:51:43Z</time>
      </trkpt>
      <trkpt lat="44.08555" lon="5.99464">
        <ele>540.016663</ele>
        <time>2013-05-14T14:51:46Z</time>
      </trkpt>
      <trkpt lat="44.08544" lon="5.99479">
        <ele>539.268799</ele>
        <time>2013-05-14T14:51:54Z</time>
      </trkpt>
      <trkpt lat="44.08546" lon="5.99482">
        <ele>539.457947</ele>
        <time>2013-05-14T14:51:55Z</time>
      </trkpt>
      <trkpt lat="44.08554" lon="5.99494">
        <ele>540.131165</ele>
        <time>2013-05-14T14:51:59Z</time>
      </trkpt>
      <trkpt lat="44.08568" lon="5.99513">
        <ele>541.477661</ele>
        <time>2013-05-14T14:52:10Z</time>
      </trkpt>
      <trkpt lat="44.08568" lon="5.99514">
        <ele>541.556213</ele>
        <time>2013-05-14T14:52:14Z</time>
      </trkpt>
      <trkpt lat="44.08577" lon="5.99523">
        <ele>542.550842</ele>
        <time>2013-05-14T14:52:22Z</time>
      </trkpt>
      <trkpt lat="44.08578" lon="5.99533">
        <ele>542.942566</ele>
        <time>2013-05-14T14:52:26Z</time>
      </trkpt>
      <trkpt lat="44.08571" lon="5.99562">
        <ele>542.661438</ele>
        <time>2013-05-14T14:52:36Z</time>
      </trkpt>
      <trkpt lat="44.0857" lon="5.99563">
        <ele>542.510925</ele>
        <time>2013-05-14T14:52:37Z</time>
      </trkpt>
      <trkpt lat="44.08568" lon="5.99565">
        <ele>542.258362</ele>
        <time>2013-05-14T14:52:38Z</time>
      </trkpt>
      <trkpt lat="44.0856" lon="5.99573">
        <ele>540.980286</ele>
        <time>2013-05-14T14:52:42Z</time>
      </trkpt>
      <trkpt lat="44.08559" lon="5.99576">
        <ele>540.887939</ele>
        <time>2013-05-14T14:52:43Z</time>
      </trkpt>
      <trkpt lat="44.08558" lon="5.99579">
        <ele>540.796509</ele>
        <time>2013-05-14T14:52:44Z</time>
      </trkpt>
      <trkpt lat="44.08548" lon="5.99604">
        <ele>540.177551</ele>
        <time>2013-05-14T14:52:52Z</time>
      </trkpt>
      <trkpt lat="44.08547" lon="5.99606">
        <ele>539.966125</ele>
        <time>2013-05-14T14:52:53Z</time>
      </trkpt>
      <trkpt lat="44.08546" lon="5.99608">
        <ele>539.7901</ele>
        <time>2013-05-14T14:52:54Z</time>
      </trkpt>
      <trkpt lat="44.08544" lon="5.99608">
        <ele>539.542664</ele>
        <time>2013-05-14T14:52:55Z</time>
      </trkpt>
      <trkpt lat="44.08542" lon="5.99608">
        <ele>539.168762</ele>
        <time>2013-05-14T14:52:56Z</time>
      </trkpt>
      <trkpt lat="44.0854" lon="5.99609">
        <ele>538.86377</ele>
        <time>2013-05-14T14:52:57Z</time>
      </trkpt>
      <trkpt lat="44.08531" lon="5.99613">
        <ele>537.241577</ele>
        <time>2013-05-14T14:53:11Z</time>
      </trkpt>
      <trkpt lat="44.08532" lon="5.99613">
        <ele>537.406128</ele>
        <time>2013-05-14T14:53:28Z</time>
      </trkpt>
      <trkpt lat="44.08531" lon="5.99616">
        <ele>537.325928</ele>
        <time>2013-05-14T14:53:58Z</time>
      </trkpt>
      <trkpt lat="44.08526" lon="5.99614">
        <ele>536.349487</ele>
        <time>2013-05-14T14:54:05Z</time>
      </trkpt>
      <trkpt lat="44.08511" lon="5.99609">
        <ele>533.622986</ele>
        <time>2013-05-14T14:54:12Z</time>
      </trkpt>
      <trkpt lat="44.08504" lon="5.9961">
        <ele>532.300903</ele>
        <time>2013-05-14T14:54:14Z</time>
      </trkpt>
      <trkpt lat="44.08492" lon="5.99611">
        <ele>530.041382</ele>
        <time>2013-05-14T14:54:17Z</time>
      </trkpt>
      <trkpt lat="44.08475" lon="5.99617">
        <ele>528.177368</ele>
        <time>2013-05-14T14:54:21Z</time>
      </trkpt>
      <trkpt lat="44.08463" lon="5.99621">
        <ele>526.760559</ele>
        <time>2013-05-14T14:54:24Z</time>
      </trkpt>
      <trkpt lat="44.08457" lon="5.99628">
        <ele>526.200806</ele>
        <time>2013-05-14T14:54:26Z</time>
      </trkpt>
      <trkpt lat="44.0843" lon="5.99638">
        <ele>524.301575</ele>
        <time>2013-05-14T14:54:37Z</time>
      </trkpt>
      <trkpt lat="44.08438" lon="5.99637">
        <ele>524.55542</ele>
        <time>2013-05-14T14:54:49Z</time>
      </trkpt>
      <trkpt lat="44.08449" lon="5.99655">
        <ele>524.798096</ele>
        <time>2013-05-14T14:54:56Z</time>
      </trkpt>
      <trkpt lat="44.08444" lon="5.99664">
        <ele>523.896545</ele>
        <time>2013-05-14T14:55:01Z</time>
      </trkpt>
      <trkpt lat="44.08421" lon="5.99672">
        <ele>522.359619</ele>
        <time>2013-05-14T14:55:09Z</time>
      </trkpt>
      <trkpt lat="44.08413" lon="5.99683">
        <ele>521.334534</ele>
        <time>2013-05-14T14:55:12Z</time>
      </trkpt>
      <trkpt lat="44.08398" lon="5.99699">
        <ele>519.408997</ele>
        <time>2013-05-14T14:55:18Z</time>
      </trkpt>
      <trkpt lat="44.08394" lon="5.99703">
        <ele>518.897278</ele>
        <time>2013-05-14T14:55:20Z</time>
      </trkpt>
      <trkpt lat="44.08367" lon="5.99698">
        <ele>517.487671</ele>
        <time>2013-05-14T14:55:29Z</time>
      </trkpt>
      <trkpt lat="44.08365" lon="5.99698">
        <ele>517.400208</ele>
        <time>2013-05-14T14:55:30Z</time>
      </trkpt>
      <trkpt lat="44.08352" lon="5.997">
        <ele>516.075073</ele>
        <time>2013-05-14T14:55:35Z</time>
      </trkpt>
      <trkpt lat="44.08345" lon="5.99703">
        <ele>514.601563</ele>
        <time>2013-05-14T14:55:37Z</time>
      </trkpt>
      <trkpt lat="44.08339" lon="5.99705">
        <ele>513.403198</ele>
        <time>2013-05-14T14:55:39Z</time>
      </trkpt>
      <trkpt lat="44.08336" lon="5.99703">
        <ele>513.183655</ele>
        <time>2013-05-14T14:55:40Z</time>
      </trkpt>
      <trkpt lat="44.08333" lon="5.99702">
        <ele>512.925171</ele>
        <time>2013-05-14T14:55:41Z</time>
      </trkpt>
      <trkpt lat="44.08331" lon="5.99701">
        <ele>512.613098</ele>
        <time>2013-05-14T14:55:42Z</time>
      </trkpt>
      <trkpt lat="44.08328" lon="5.99701">
        <ele>512.27063</ele>
        <time>2013-05-14T14:55:43Z</time>
      </trkpt>
      <trkpt lat="44.08317" lon="5.99698">
        <ele>510.882355</ele>
        <time>2013-05-14T14:55:54Z</time>
      </trkpt>
      <trkpt lat="44.08317" lon="5.99701">
        <ele>510.32901</ele>
        <time>2013-05-14T14:56:19Z</time>
      </trkpt>
      <trkpt lat="44.08303" lon="5.99706">
        <ele>507.642029</ele>
        <time>2013-05-14T14:56:34Z</time>
      </trkpt>
      <trkpt lat="44.08275" lon="5.99695">
        <ele>506.217987</ele>
        <time>2013-05-14T14:56:44Z</time>
      </trkpt>
      <trkpt lat="44.08271" lon="5.99694">
        <ele>505.946564</ele>
        <time>2013-05-14T14:56:45Z</time>
      </trkpt>
      <trkpt lat="44.0825" lon="5.99687">
        <ele>504.314209</ele>
        <time>2013-05-14T14:56:51Z</time>
      </trkpt>
      <trkpt lat="44.08225" lon="5.99689">
        <ele>500.975983</ele>
        <time>2013-05-14T14:57:00Z</time>
      </trkpt>
      <trkpt lat="44.08204" lon="5.9969">
        <ele>498.505005</ele>
        <time>2013-05-14T14:57:06Z</time>
      </trkpt>
      <trkpt lat="44.08201" lon="5.99686">
        <ele>498.351746</ele>
        <time>2013-05-14T14:57:07Z</time>
      </trkpt>
      <trkpt lat="44.08151" lon="5.99632">
        <ele>499.204254</ele>
        <time>2013-05-14T14:57:22Z</time>
      </trkpt>
      <trkpt lat="44.08118" lon="5.99594">
        <ele>500.129028</ele>
        <time>2013-05-14T14:57:32Z</time>
      </trkpt>
      <trkpt lat="44.08103" lon="5.99578">
        <ele>500.179382</ele>
        <time>2013-05-14T14:57:36Z</time>
      </trkpt>
      <trkpt lat="44.08099" lon="5.99574">
        <ele>499.963623</ele>
        <time>2013-05-14T14:57:37Z</time>
      </trkpt>
      <trkpt lat="44.08086" lon="5.99564">
        <ele>498.836578</ele>
        <time>2013-05-14T14:57:40Z</time>
      </trkpt>
      <trkpt lat="44.08065" lon="5.99551">
        <ele>496.722656</ele>
        <time>2013-05-14T14:57:46Z</time>
      </trkpt>
      <trkpt lat="44.08062" lon="5.99547">
        <ele>496.390808</ele>
        <time>2013-05-14T14:57:47Z</time>
      </trkpt>
      <trkpt lat="44.0804" lon="5.99509">
        <ele>492.644562</ele>
        <time>2013-05-14T14:57:54Z</time>
      </trkpt>
      <trkpt lat="44.08037" lon="5.99504">
        <ele>491.813293</ele>
        <time>2013-05-14T14:57:55Z</time>
      </trkpt>
      <trkpt lat="44.08015" lon="5.99471">
        <ele>485.237793</ele>
        <time>2013-05-14T14:58:01Z</time>
      </trkpt>
      <trkpt lat="44.08013" lon="5.99464">
        <ele>484.190247</ele>
        <time>2013-05-14T14:58:02Z</time>
      </trkpt>
      <trkpt lat="44.08012" lon="5.99456">
        <ele>483.417114</ele>
        <time>2013-05-14T14:58:03Z</time>
      </trkpt>
      <trkpt lat="44.08012" lon="5.99448">
        <ele>482.978027</ele>
        <time>2013-05-14T14:58:04Z</time>
      </trkpt>
      <trkpt lat="44.08012" lon="5.9944">
        <ele>482.558167</ele>
        <time>2013-05-14T14:58:05Z</time>
      </trkpt>
      <trkpt lat="44.08011" lon="5.99431">
        <ele>481.769012</ele>
        <time>2013-05-14T14:58:06Z</time>
      </trkpt>
      <trkpt lat="44.08009" lon="5.99421">
        <ele>480.55777</ele>
        <time>2013-05-14T14:58:07Z</time>
      </trkpt>
      <trkpt lat="44.08008" lon="5.99411">
        <ele>479.395874</ele>
        <time>2013-05-14T14:58:08Z</time>
      </trkpt>
      <trkpt lat="44.08007" lon="5.99401">
        <ele>478.852905</ele>
        <time>2013-05-14T14:58:09Z</time>
      </trkpt>
      <trkpt lat="44.08008" lon="5.99391">
        <ele>478.854004</ele>
        <time>2013-05-14T14:58:10Z</time>
      </trkpt>
      <trkpt lat="44.08011" lon="5.99382">
        <ele>479.137817</ele>
        <time>2013-05-14T14:58:11Z</time>
      </trkpt>
      <trkpt lat="44.08014" lon="5.99373">
        <ele>479.476593</ele>
        <time>2013-05-14T14:58:12Z</time>
      </trkpt>
      <trkpt lat="44.08017" lon="5.99364">
        <ele>479.635498</ele>
        <time>2013-05-14T14:58:13Z</time>
      </trkpt>
      <trkpt lat="44.0802" lon="5.99355">
        <ele>479.841095</ele>
        <time>2013-05-14T14:58:14Z</time>
      </trkpt>
      <trkpt lat="44.08039" lon="5.9932">
        <ele>481.216888</ele>
        <time>2013-05-14T14:58:18Z</time>
      </trkpt>
      <trkpt lat="44.08042" lon="5.99312">
        <ele>480.69165</ele>
        <time>2013-05-14T14:58:19Z</time>
      </trkpt>
      <trkpt lat="44.08044" lon="5.99304">
        <ele>480.018311</ele>
        <time>2013-05-14T14:58:20Z</time>
      </trkpt>
      <trkpt lat="44.08044" lon="5.99296">
        <ele>479.415192</ele>
        <time>2013-05-14T14:58:21Z</time>
      </trkpt>
      <trkpt lat="44.08045" lon="5.99289">
        <ele>479.359863</ele>
        <time>2013-05-14T14:58:22Z</time>
      </trkpt>
      <trkpt lat="44.08047" lon="5.99283">
        <ele>479.675476</ele>
        <time>2013-05-14T14:58:23Z</time>
      </trkpt>
      <trkpt lat="44.08049" lon="5.99278">
        <ele>479.98819</ele>
        <time>2013-05-14T14:58:24Z</time>
      </trkpt>
      <trkpt lat="44.08051" lon="5.99272">
        <ele>480.226624</ele>
        <time>2013-05-14T14:58:25Z</time>
      </trkpt>
      <trkpt lat="44.08055" lon="5.99268">
        <ele>480.506104</ele>
        <time>2013-05-14T14:58:26Z</time>
      </trkpt>
      <trkpt lat="44.08059" lon="5.99266">
        <ele>480.848633</ele>
        <time>2013-05-14T14:58:27Z</time>
      </trkpt>
      <trkpt lat="44.08063" lon="5.99265">
        <ele>481.129303</ele>
        <time>2013-05-14T14:58:28Z</time>
      </trkpt>
      <trkpt lat="44.08066" lon="5.99262">
        <ele>481.476929</ele>
        <time>2013-05-14T14:58:29Z</time>
      </trkpt>
      <trkpt lat="44.08069" lon="5.99258">
        <ele>481.822479</ele>
        <time>2013-05-14T14:58:30Z</time>
      </trkpt>
      <trkpt lat="44.08071" lon="5.99252">
        <ele>482.127808</ele>
        <time>2013-05-14T14:58:31Z</time>
      </trkpt>
      <trkpt lat="44.08072" lon="5.99248">
        <ele>482.380768</ele>
        <time>2013-05-14T14:58:32Z</time>
      </trkpt>
      <trkpt lat="44.08073" lon="5.99243">
        <ele>482.594391</ele>
        <time>2013-05-14T14:58:33Z</time>
      </trkpt>
      <trkpt lat="44.08073" lon="5.99239">
        <ele>482.790161</ele>
        <time>2013-05-14T14:58:34Z</time>
      </trkpt>
      <trkpt lat="44.08072" lon="5.99236">
        <ele>482.975769</ele>
        <time>2013-05-14T14:58:35Z</time>
      </trkpt>
      <trkpt lat="44.0807" lon="5.99235">
        <ele>483.122772</ele>
        <time>2013-05-14T14:58:36Z</time>
      </trkpt>
      <trkpt lat="44.08055" lon="5.99228">
        <ele>484.434998</ele>
        <time>2013-05-14T14:58:46Z</time>
      </trkpt>
      <trkpt lat="44.08048" lon="5.99212">
        <ele>488.235596</ele>
        <time>2013-05-14T14:58:55Z</time>
      </trkpt>
      <trkpt lat="44.08043" lon="5.99198">
        <ele>491.046265</ele>
        <time>2013-05-14T14:59:04Z</time>
      </trkpt>
      <trkpt lat="44.08034" lon="5.99193">
        <ele>492.436798</ele>
        <time>2013-05-14T14:59:12Z</time>
      </trkpt>
      <trkpt lat="44.0803" lon="5.99194">
        <ele>492.426819</ele>
        <time>2013-05-14T14:59:15Z</time>
      </trkpt>
      <trkpt lat="44.08019" lon="5.99189">
        <ele>493.853027</ele>
        <time>2013-05-14T14:59:25Z</time>
      </trkpt>
      <trkpt lat="44.08003" lon="5.99187">
        <ele>495.573334</ele>
        <time>2013-05-14T14:59:40Z</time>
      </trkpt>
      <trkpt lat="44.08005" lon="5.99175">
        <ele>496.742401</ele>
        <time>2013-05-14T14:59:55Z</time>
      </trkpt>
      <trkpt lat="44.07998" lon="5.99166">
        <ele>498.563873</ele>
        <time>2013-05-14T15:00:09Z</time>
      </trkpt>
      <trkpt lat="44.07991" lon="5.99174">
        <ele>498.731873</ele>
        <time>2013-05-14T15:00:23Z</time>
      </trkpt>
      <trkpt lat="44.07986" lon="5.99186">
        <ele>497.914917</ele>
        <time>2013-05-14T15:00:30Z</time>
      </trkpt>
      <trkpt lat="44.07983" lon="5.99164">
        <ele>500.719055</ele>
        <time>2013-05-14T15:00:43Z</time>
      </trkpt>
      <trkpt lat="44.0798" lon="5.99161">
        <ele>501.822357</ele>
        <time>2013-05-14T15:00:48Z</time>
      </trkpt>
      <trkpt lat="44.07972" lon="5.99161">
        <ele>502.649231</ele>
        <time>2013-05-14T15:01:00Z</time>
      </trkpt>
      <trkpt lat="44.07966" lon="5.99172">
        <ele>502.143433</ele>
        <time>2013-05-14T15:01:13Z</time>
      </trkpt>
      <trkpt lat="44.07961" lon="5.99181">
        <ele>502.223419</ele>
        <time>2013-05-14T15:01:27Z</time>
      </trkpt>
      <trkpt lat="44.07955" lon="5.9918">
        <ele>503.372162</ele>
        <time>2013-05-14T15:01:37Z</time>
      </trkpt>
      <trkpt lat="44.07949" lon="5.99178">
        <ele>504.681458</ele>
        <time>2013-05-14T15:01:42Z</time>
      </trkpt>
      <trkpt lat="44.0793" lon="5.99183">
        <ele>507.601563</ele>
        <time>2013-05-14T15:01:56Z</time>
      </trkpt>
      <trkpt lat="44.07916" lon="5.99207">
        <ele>506.951904</ele>
        <time>2013-05-14T15:02:11Z</time>
      </trkpt>
      <trkpt lat="44.07907" lon="5.99212">
        <ele>506.894653</ele>
        <time>2013-05-14T15:02:25Z</time>
      </trkpt>
      <trkpt lat="44.07906" lon="5.99211">
        <ele>507.063507</ele>
        <time>2013-05-14T15:02:51Z</time>
      </trkpt>
      <trkpt lat="44.07905" lon="5.99211">
        <ele>507.022156</ele>
        <time>2013-05-14T15:03:09Z</time>
      </trkpt>
      <trkpt lat="44.07906" lon="5.99213">
        <ele>506.756561</ele>
        <time>2013-05-14T15:03:31Z</time>
      </trkpt>
      <trkpt lat="44.07902" lon="5.99214">
        <ele>506.817383</ele>
        <time>2013-05-14T15:03:58Z</time>
      </trkpt>
      <trkpt lat="44.07885" lon="5.99212">
        <ele>508.036072</ele>
        <time>2013-05-14T15:04:07Z</time>
      </trkpt>
      <trkpt lat="44.07883" lon="5.9921">
        <ele>508.368896</ele>
        <time>2013-05-14T15:04:08Z</time>
      </trkpt>
      <trkpt lat="44.07882" lon="5.99209">
        <ele>508.704132</ele>
        <time>2013-05-14T15:04:09Z</time>
      </trkpt>
      <trkpt lat="44.07879" lon="5.99206">
        <ele>509.435822</ele>
        <time>2013-05-14T15:04:11Z</time>
      </trkpt>
      <trkpt lat="44.07854" lon="5.99175">
        <ele>512.965881</ele>
        <time>2013-05-14T15:04:26Z</time>
      </trkpt>
      <trkpt lat="44.07821" lon="5.99141">
        <ele>514.127991</ele>
        <time>2013-05-14T15:04:42Z</time>
      </trkpt>
      <trkpt lat="44.07788" lon="5.99107">
        <ele>513.726135</ele>
        <time>2013-05-14T15:04:57Z</time>
      </trkpt>
      <trkpt lat="44.07764" lon="5.99075">
        <ele>515.696289</ele>
        <time>2013-05-14T15:05:11Z</time>
      </trkpt>
      <trkpt lat="44.07748" lon="5.9905">
        <ele>517.563354</ele>
        <time>2013-05-14T15:05:21Z</time>
      </trkpt>
      <trkpt lat="44.07723" lon="5.99023">
        <ele>517.183655</ele>
        <time>2013-05-14T15:05:31Z</time>
      </trkpt>
      <trkpt lat="44.07719" lon="5.99019">
        <ele>517.022156</ele>
        <time>2013-05-14T15:05:32Z</time>
      </trkpt>
      <trkpt lat="44.077" lon="5.99">
        <ele>516.169128</ele>
        <time>2013-05-14T15:05:37Z</time>
      </trkpt>
      <trkpt lat="44.07695" lon="5.98996">
        <ele>516.298706</ele>
        <time>2013-05-14T15:05:38Z</time>
      </trkpt>
      <trkpt lat="44.07691" lon="5.98994">
        <ele>516.296021</ele>
        <time>2013-05-14T15:05:39Z</time>
      </trkpt>
      <trkpt lat="44.07687" lon="5.98993">
        <ele>515.944031</ele>
        <time>2013-05-14T15:05:40Z</time>
      </trkpt>
      <trkpt lat="44.07683" lon="5.98997">
        <ele>515.089417</ele>
        <time>2013-05-14T15:05:41Z</time>
      </trkpt>
      <trkpt lat="44.0768" lon="5.99002">
        <ele>513.909607</ele>
        <time>2013-05-14T15:05:42Z</time>
      </trkpt>
      <trkpt lat="44.07678" lon="5.99009">
        <ele>512.600708</ele>
        <time>2013-05-14T15:05:43Z</time>
      </trkpt>
      <trkpt lat="44.07675" lon="5.99016">
        <ele>511.185913</ele>
        <time>2013-05-14T15:05:44Z</time>
      </trkpt>
      <trkpt lat="44.07661" lon="5.99048">
        <ele>505.188751</ele>
        <time>2013-05-14T15:05:48Z</time>
      </trkpt>
      <trkpt lat="44.07657" lon="5.99056">
        <ele>503.674988</ele>
        <time>2013-05-14T15:05:49Z</time>
      </trkpt>
      <trkpt lat="44.07654" lon="5.99063">
        <ele>502.308472</ele>
        <time>2013-05-14T15:05:50Z</time>
      </trkpt>
      <trkpt lat="44.0765" lon="5.99071">
        <ele>500.955811</ele>
        <time>2013-05-14T15:05:51Z</time>
      </trkpt>
      <trkpt lat="44.07644" lon="5.99077">
        <ele>499.595032</ele>
        <time>2013-05-14T15:05:52Z</time>
      </trkpt>
      <trkpt lat="44.07638" lon="5.99084">
        <ele>498.380005</ele>
        <time>2013-05-14T15:05:53Z</time>
      </trkpt>
      <trkpt lat="44.07632" lon="5.99093">
        <ele>497.195007</ele>
        <time>2013-05-14T15:05:54Z</time>
      </trkpt>
      <trkpt lat="44.07617" lon="5.99115">
        <ele>493.977509</ele>
        <time>2013-05-14T15:05:57Z</time>
      </trkpt>
      <trkpt lat="44.07606" lon="5.99128">
        <ele>491.975494</ele>
        <time>2013-05-14T15:05:59Z</time>
      </trkpt>
      <trkpt lat="44.07599" lon="5.99133">
        <ele>490.821289</ele>
        <time>2013-05-14T15:06:00Z</time>
      </trkpt>
      <trkpt lat="44.07592" lon="5.99137">
        <ele>489.723053</ele>
        <time>2013-05-14T15:06:01Z</time>
      </trkpt>
      <trkpt lat="44.07583" lon="5.9914">
        <ele>488.77713</ele>
        <time>2013-05-14T15:06:02Z</time>
      </trkpt>
      <trkpt lat="44.07575" lon="5.99141">
        <ele>487.952759</ele>
        <time>2013-05-14T15:06:03Z</time>
      </trkpt>
      <trkpt lat="44.07567" lon="5.99141">
        <ele>487.183014</ele>
        <time>2013-05-14T15:06:04Z</time>
      </trkpt>
      <trkpt lat="44.07539" lon="5.9914">
        <ele>484.723755</ele>
        <time>2013-05-14T15:06:07Z</time>
      </trkpt>
      <trkpt lat="44.07523" lon="5.99138">
        <ele>483.306244</ele>
        <time>2013-05-14T15:06:09Z</time>
      </trkpt>
      <trkpt lat="44.07511" lon="5.99133">
        <ele>482.39859</ele>
        <time>2013-05-14T15:06:11Z</time>
      </trkpt>
      <trkpt lat="44.07506" lon="5.9913">
        <ele>482.120422</ele>
        <time>2013-05-14T15:06:12Z</time>
      </trkpt>
      <trkpt lat="44.07501" lon="5.99131">
        <ele>481.596161</ele>
        <time>2013-05-14T15:06:13Z</time>
      </trkpt>
      <trkpt lat="44.07496" lon="5.99135">
        <ele>480.970581</ele>
        <time>2013-05-14T15:06:14Z</time>
      </trkpt>
      <trkpt lat="44.07492" lon="5.99142">
        <ele>480.32605</ele>
        <time>2013-05-14T15:06:15Z</time>
      </trkpt>
      <trkpt lat="44.07488" lon="5.9915">
        <ele>479.701294</ele>
        <time>2013-05-14T15:06:16Z</time>
      </trkpt>
      <trkpt lat="44.0746" lon="5.99197">
        <ele>476.461243</ele>
        <time>2013-05-14T15:06:23Z</time>
      </trkpt>
      <trkpt lat="44.07457" lon="5.992">
        <ele>476.273743</ele>
        <time>2013-05-14T15:06:24Z</time>
      </trkpt>
      <trkpt lat="44.07454" lon="5.99203">
        <ele>476.110016</ele>
        <time>2013-05-14T15:06:25Z</time>
      </trkpt>
      <trkpt lat="44.07452" lon="5.99205">
        <ele>475.96875</ele>
        <time>2013-05-14T15:06:26Z</time>
      </trkpt>
      <trkpt lat="44.0745" lon="5.99207">
        <ele>475.85376</ele>
        <time>2013-05-14T15:06:27Z</time>
      </trkpt>
      <trkpt lat="44.07448" lon="5.99208">
        <ele>475.75</ele>
        <time>2013-05-14T15:06:28Z</time>
      </trkpt>
      <trkpt lat="44.07446" lon="5.99209">
        <ele>475.65625</ele>
        <time>2013-05-14T15:06:43Z</time>
      </trkpt>
      <trkpt lat="44.07445" lon="5.9921">
        <ele>475.582489</ele>
        <time>2013-05-14T15:06:44Z</time>
      </trkpt>
      <trkpt lat="44.07444" lon="5.99213">
        <ele>475.507507</ele>
        <time>2013-05-14T15:06:45Z</time>
      </trkpt>
      <trkpt lat="44.07443" lon="5.99215">
        <ele>475.426239</ele>
        <time>2013-05-14T15:06:46Z</time>
      </trkpt>
      <trkpt lat="44.07442" lon="5.99218">
        <ele>475.336243</ele>
        <time>2013-05-14T15:06:47Z</time>
      </trkpt>
      <trkpt lat="44.07416" lon="5.99263">
        <ele>473.818756</ele>
        <time>2013-05-14T15:07:01Z</time>
      </trkpt>
      <trkpt lat="44.07394" lon="5.99312">
        <ele>473.003754</ele>
        <time>2013-05-14T15:07:13Z</time>
      </trkpt>
      <trkpt lat="44.07391" lon="5.99331">
        <ele>472.712494</ele>
        <time>2013-05-14T15:07:16Z</time>
      </trkpt>
      <trkpt lat="44.07385" lon="5.99432">
        <ele>471.071259</ele>
        <time>2013-05-14T15:07:28Z</time>
      </trkpt>
      <trkpt lat="44.07375" lon="5.9955">
        <ele>471.823761</ele>
        <time>2013-05-14T15:07:42Z</time>
      </trkpt>
      <trkpt lat="44.07373" lon="5.99578">
        <ele>472.296143</ele>
        <time>2013-05-14T15:07:46Z</time>
      </trkpt>
      <trkpt lat="44.07371" lon="5.99585">
        <ele>472.415558</ele>
        <time>2013-05-14T15:07:47Z</time>
      </trkpt>
      <trkpt lat="44.07359" lon="5.99704">
        <ele>472.053436</ele>
        <time>2013-05-14T15:08:03Z</time>
      </trkpt>
      <trkpt lat="44.0735" lon="5.99831">
        <ele>461.160889</ele>
        <time>2013-05-14T15:08:18Z</time>
      </trkpt>
      <trkpt lat="44.07345" lon="5.9985">
        <ele>458.858643</ele>
        <time>2013-05-14T15:08:20Z</time>
      </trkpt>
      <trkpt lat="44.07341" lon="5.99859">
        <ele>458.274658</ele>
        <time>2013-05-14T15:08:21Z</time>
      </trkpt>
      <trkpt lat="44.07336" lon="5.99867">
        <ele>458.383362</ele>
        <time>2013-05-14T15:08:22Z</time>
      </trkpt>
      <trkpt lat="44.07325" lon="5.9988">
        <ele>459.396637</ele>
        <time>2013-05-14T15:08:24Z</time>
      </trkpt>
      <trkpt lat="44.07319" lon="5.99887">
        <ele>460.19281</ele>
        <time>2013-05-14T15:08:25Z</time>
      </trkpt>
      <trkpt lat="44.07267" lon="5.99928">
        <ele>465.818268</ele>
        <time>2013-05-14T15:08:33Z</time>
      </trkpt>
      <trkpt lat="44.07262" lon="5.99935">
        <ele>464.976807</ele>
        <time>2013-05-14T15:08:34Z</time>
      </trkpt>
      <trkpt lat="44.07233" lon="5.99975">
        <ele>459.827118</ele>
        <time>2013-05-14T15:08:40Z</time>
      </trkpt>
      <trkpt lat="44.07227" lon="5.99978">
        <ele>459.851105</ele>
        <time>2013-05-14T15:08:41Z</time>
      </trkpt>
      <trkpt lat="44.0722" lon="5.9998">
        <ele>460.287048</ele>
        <time>2013-05-14T15:08:42Z</time>
      </trkpt>
      <trkpt lat="44.07213" lon="5.9998">
        <ele>460.347504</ele>
        <time>2013-05-14T15:08:43Z</time>
      </trkpt>
      <trkpt lat="44.07206" lon="5.99978">
        <ele>460.608765</ele>
        <time>2013-05-14T15:08:44Z</time>
      </trkpt>
      <trkpt lat="44.072" lon="5.99975">
        <ele>461.035004</ele>
        <time>2013-05-14T15:08:45Z</time>
      </trkpt>
      <trkpt lat="44.07105" lon="5.99926">
        <ele>464.83136</ele>
        <time>2013-05-14T15:09:01Z</time>
      </trkpt>
      <trkpt lat="44.07024" lon="5.99865">
        <ele>465.112946</ele>
        <time>2013-05-14T15:09:16Z</time>
      </trkpt>
      <trkpt lat="44.07013" lon="5.99856">
        <ele>465.212524</ele>
        <time>2013-05-14T15:09:18Z</time>
      </trkpt>
      <trkpt lat="44.07007" lon="5.99853">
        <ele>465.124207</ele>
        <time>2013-05-14T15:09:19Z</time>
      </trkpt>
      <trkpt lat="44.07001" lon="5.99851">
        <ele>464.885223</ele>
        <time>2013-05-14T15:09:20Z</time>
      </trkpt>
      <trkpt lat="44.06972" lon="5.99839">
        <ele>463.013184</ele>
        <time>2013-05-14T15:09:25Z</time>
      </trkpt>
      <trkpt lat="44.0689" lon="5.99775">
        <ele>459.327515</ele>
        <time>2013-05-14T15:09:40Z</time>
      </trkpt>
      <trkpt lat="44.06873" lon="5.99761">
        <ele>458.635925</ele>
        <time>2013-05-14T15:09:43Z</time>
      </trkpt>
      <trkpt lat="44.06869" lon="5.99756">
        <ele>458.873016</ele>
        <time>2013-05-14T15:09:44Z</time>
      </trkpt>
      <trkpt lat="44.06861" lon="5.99743">
        <ele>459.60672</ele>
        <time>2013-05-14T15:09:46Z</time>
      </trkpt>
      <trkpt lat="44.06847" lon="5.99714">
        <ele>462.748383</ele>
        <time>2013-05-14T15:09:54Z</time>
      </trkpt>
      <trkpt lat="44.06844" lon="5.9971">
        <ele>462.57782</ele>
        <time>2013-05-14T15:09:55Z</time>
      </trkpt>
      <trkpt lat="44.06841" lon="5.99707">
        <ele>462.32431</ele>
        <time>2013-05-14T15:09:56Z</time>
      </trkpt>
      <trkpt lat="44.06836" lon="5.99704">
        <ele>462.012085</ele>
        <time>2013-05-14T15:09:57Z</time>
      </trkpt>
      <trkpt lat="44.06832" lon="5.99702">
        <ele>461.624237</ele>
        <time>2013-05-14T15:09:58Z</time>
      </trkpt>
      <trkpt lat="44.06827" lon="5.99701">
        <ele>461.176636</ele>
        <time>2013-05-14T15:09:59Z</time>
      </trkpt>
      <trkpt lat="44.06823" lon="5.99699">
        <ele>460.771881</ele>
        <time>2013-05-14T15:10:00Z</time>
      </trkpt>
      <trkpt lat="44.06819" lon="5.99696">
        <ele>460.235992</ele>
        <time>2013-05-14T15:10:01Z</time>
      </trkpt>
      <trkpt lat="44.06816" lon="5.99693">
        <ele>459.968292</ele>
        <time>2013-05-14T15:10:02Z</time>
      </trkpt>
      <trkpt lat="44.06814" lon="5.99689">
        <ele>459.94162</ele>
        <time>2013-05-14T15:10:03Z</time>
      </trkpt>
      <trkpt lat="44.06813" lon="5.99685">
        <ele>460.171051</ele>
        <time>2013-05-14T15:10:04Z</time>
      </trkpt>
      <trkpt lat="44.06813" lon="5.99682">
        <ele>460.524414</ele>
        <time>2013-05-14T15:10:05Z</time>
      </trkpt>
      <trkpt lat="44.06814" lon="5.99678">
        <ele>460.968445</ele>
        <time>2013-05-14T15:10:06Z</time>
      </trkpt>
      <trkpt lat="44.06814" lon="5.99673">
        <ele>461.347961</ele>
        <time>2013-05-14T15:10:07Z</time>
      </trkpt>
      <trkpt lat="44.06814" lon="5.99669">
        <ele>461.714539</ele>
        <time>2013-05-14T15:10:08Z</time>
      </trkpt>
      <trkpt lat="44.06814" lon="5.99665">
        <ele>462.128601</ele>
        <time>2013-05-14T15:10:09Z</time>
      </trkpt>
      <trkpt lat="44.06814" lon="5.9966">
        <ele>462.523041</ele>
        <time>2013-05-14T15:10:10Z</time>
      </trkpt>
      <trkpt lat="44.06814" lon="5.99656">
        <ele>462.877106</ele>
        <time>2013-05-14T15:10:11Z</time>
      </trkpt>
      <trkpt lat="44.06806" lon="5.9961">
        <ele>464.023956</ele>
        <time>2013-05-14T15:10:20Z</time>
      </trkpt>
      <trkpt lat="44.06804" lon="5.99596">
        <ele>464.279755</ele>
        <time>2013-05-14T15:10:22Z</time>
      </trkpt>
      <trkpt lat="44.06798" lon="5.99577">
        <ele>464.456299</ele>
        <time>2013-05-14T15:10:25Z</time>
      </trkpt>
      <trkpt lat="44.06789" lon="5.99553">
        <ele>464.582092</ele>
        <time>2013-05-14T15:10:29Z</time>
      </trkpt>
      <trkpt lat="44.06784" lon="5.99534">
        <ele>464.816254</ele>
        <time>2013-05-14T15:10:32Z</time>
      </trkpt>
      <trkpt lat="44.06781" lon="5.99522">
        <ele>465</ele>
        <time>2013-05-14T15:10:34Z</time>
      </trkpt>
      <trkpt lat="44.06776" lon="5.99504">
        <ele>465</ele>
        <time>2013-05-14T15:10:37Z</time>
      </trkpt>
      <trkpt lat="44.06773" lon="5.99493">
        <ele>465</ele>
        <time>2013-05-14T15:10:39Z</time>
      </trkpt>
      <trkpt lat="44.06772" lon="5.99488">
        <ele>465</ele>
        <time>2013-05-14T15:10:40Z</time>
      </trkpt>
      <trkpt lat="44.06769" lon="5.99484">
        <ele>465</ele>
        <time>2013-05-14T15:10:41Z</time>
      </trkpt>
      <trkpt lat="44.06765" lon="5.99483">
        <ele>465</ele>
        <time>2013-05-14T15:10:42Z</time>
      </trkpt>
      <trkpt lat="44.06761" lon="5.99483">
        <ele>465</ele>
        <time>2013-05-14T15:10:43Z</time>
      </trkpt>
      <trkpt lat="44.06756" lon="5.99482">
        <ele>465</ele>
        <time>2013-05-14T15:10:44Z</time>
      </trkpt>
      <trkpt lat="44.06668" lon="5.99464">
        <ele>462.734985</ele>
        <time>2013-05-14T15:11:01Z</time>
      </trkpt>
      <trkpt lat="44.06663" lon="5.99462">
        <ele>462.515015</ele>
        <time>2013-05-14T15:11:02Z</time>
      </trkpt>
      <trkpt lat="44.06658" lon="5.99459">
        <ele>462.290009</ele>
        <time>2013-05-14T15:11:03Z</time>
      </trkpt>
      <trkpt lat="44.06653" lon="5.99456">
        <ele>462.070007</ele>
        <time>2013-05-14T15:11:04Z</time>
      </trkpt>
      <trkpt lat="44.06648" lon="5.99453">
        <ele>461.848694</ele>
        <time>2013-05-14T15:11:05Z</time>
      </trkpt>
      <trkpt lat="44.06644" lon="5.99449">
        <ele>461.646515</ele>
        <time>2013-05-14T15:11:06Z</time>
      </trkpt>
      <trkpt lat="44.06635" lon="5.99441">
        <ele>461.318726</ele>
        <time>2013-05-14T15:11:08Z</time>
      </trkpt>
      <trkpt lat="44.06631" lon="5.99437">
        <ele>461.177917</ele>
        <time>2013-05-14T15:11:09Z</time>
      </trkpt>
      <trkpt lat="44.06624" lon="5.99428">
        <ele>460.953827</ele>
        <time>2013-05-14T15:11:11Z</time>
      </trkpt>
      <trkpt lat="44.06618" lon="5.99418">
        <ele>460.855377</ele>
        <time>2013-05-14T15:11:13Z</time>
      </trkpt>
      <trkpt lat="44.06615" lon="5.99414">
        <ele>460.809692</ele>
        <time>2013-05-14T15:11:14Z</time>
      </trkpt>
      <trkpt lat="44.06612" lon="5.99409">
        <ele>460.768188</ele>
        <time>2013-05-14T15:11:15Z</time>
      </trkpt>
      <trkpt lat="44.06599" lon="5.99392">
        <ele>460.517242</ele>
        <time>2013-05-14T15:11:19Z</time>
      </trkpt>
      <trkpt lat="44.06598" lon="5.99387">
        <ele>460.527496</ele>
        <time>2013-05-14T15:11:20Z</time>
      </trkpt>
      <trkpt lat="44.06606" lon="5.99367">
        <ele>460.834991</ele>
        <time>2013-05-14T15:11:24Z</time>
      </trkpt>
      <trkpt lat="44.06611" lon="5.99342">
        <ele>461.017487</ele>
        <time>2013-05-14T15:11:28Z</time>
      </trkpt>
      <trkpt lat="44.06626" lon="5.9929">
        <ele>460.927307</ele>
        <time>2013-05-14T15:11:37Z</time>
      </trkpt>
      <trkpt lat="44.06628" lon="5.99284">
        <ele>460.916107</ele>
        <time>2013-05-14T15:11:38Z</time>
      </trkpt>
      <trkpt lat="44.06644" lon="5.99222">
        <ele>461.304993</ele>
        <time>2013-05-14T15:11:49Z</time>
      </trkpt>
      <trkpt lat="44.06663" lon="5.99211">
        <ele>462.077515</ele>
        <time>2013-05-14T15:11:54Z</time>
      </trkpt>
      <trkpt lat="44.06698" lon="5.99218">
        <ele>462.867493</ele>
        <time>2013-05-14T15:12:04Z</time>
      </trkpt>
      <trkpt lat="44.067" lon="5.99218">
        <ele>462.904999</ele>
        <time>2013-05-14T15:12:26Z</time>
      </trkpt>
      <trkpt lat="44.06703" lon="5.99219">
        <ele>462.962494</ele>
        <time>2013-05-14T15:12:47Z</time>
      </trkpt>
      <trkpt lat="44.06704" lon="5.99218">
        <ele>462.982513</ele>
        <time>2013-05-14T15:13:21Z</time>
      </trkpt>
      <trkpt lat="44.06705" lon="5.99218">
        <ele>463.002502</ele>
        <time>2013-05-14T15:13:40Z</time>
      </trkpt>
      <trkpt lat="44.06709" lon="5.99214">
        <ele>463.092499</ele>
        <time>2013-05-14T15:13:55Z</time>
      </trkpt>
      <trkpt lat="44.06708" lon="5.99213">
        <ele>463.082489</ele>
        <time>2013-05-14T15:13:57Z</time>
      </trkpt>
      <trkpt lat="44.06707" lon="5.9921">
        <ele>463.042511</ele>
        <time>2013-05-14T15:13:59Z</time>
      </trkpt>
      <trkpt lat="44.06703" lon="5.99193">
        <ele>462.93692</ele>
        <time>2013-05-14T15:14:05Z</time>
      </trkpt>
      <trkpt lat="44.06702" lon="5.99188">
        <ele>462.913849</ele>
        <time>2013-05-14T15:14:06Z</time>
      </trkpt>
      <trkpt lat="44.06703" lon="5.99165">
        <ele>462.901062</ele>
        <time>2013-05-14T15:14:10Z</time>
      </trkpt>
      <trkpt lat="44.06705" lon="5.9916">
        <ele>462.934692</ele>
        <time>2013-05-14T15:14:11Z</time>
      </trkpt>
      <trkpt lat="44.06706" lon="5.99154">
        <ele>462.977112</ele>
        <time>2013-05-14T15:14:12Z</time>
      </trkpt>
      <trkpt lat="44.06706" lon="5.99148">
        <ele>462.990387</ele>
        <time>2013-05-14T15:14:13Z</time>
      </trkpt>
      <trkpt lat="44.06706" lon="5.99143">
        <ele>462.964996</ele>
        <time>2013-05-14T15:14:14Z</time>
      </trkpt>
      <trkpt lat="44.06706" lon="5.99137">
        <ele>462.940002</ele>
        <time>2013-05-14T15:14:15Z</time>
      </trkpt>
      <trkpt lat="44.06706" lon="5.99131">
        <ele>462.950012</ele>
        <time>2013-05-14T15:14:16Z</time>
      </trkpt>
    </trkseg>
  </trk>
</gpx>